<?xml version="1.0" encoding="UTF-8" standalone="no" ?>
<gpx xmlns="http://www.topografix.com/GPX/1/1" xmlns:xsi="http://www.w3.org/2001/XMLSchema-instance" xsi:schemaLocation="http://www.topografix.com/GPX/1/1 http://www.topografix.com/GPX/1/1/gpx.xsd" version="1.1" creator="VisuGPX - https://www.visugpx.com">
  <metadata>
    <name>St germers de Fly</name>
    <desc><![CDATA[Saint Germer de Fly]]></desc>
  </metadata>
  <wpt lat="49.44267" lon="1.78052">
    <ele>70</ele>
    <name><![CDATA[Pause à 06/04/2015 à 8:46]]></name>
    <desc><![CDATA[Pause de 4min 55s]]></desc>
  </wpt>
  <wpt lat="49.40416" lon="1.81639">
    <ele>162</ele>
    <name><![CDATA[Pause à 06/04/2015 à 9:26]]></name>
    <desc><![CDATA[Pause de 3min 49s]]></desc>
  </wpt>
  <wpt lat="49.39708" lon="1.7844">
    <ele>81</ele>
    <name><![CDATA[Pause à 06/04/2015 à 8:36]]></name>
    <desc><![CDATA[Pause de 14s]]></desc>
  </wpt>
  <wpt lat="49.42913" lon="1.73685">
    <ele>113</ele>
    <name><![CDATA[Pause à 06/04/2015 à 10:25]]></name>
    <desc><![CDATA[Pause de 2min 3s]]></desc>
  </wpt>
  <trk>
    <name><![CDATA[Saint germers decaht]]></name>
    <trkseg>
      <trkpt lat="49.44267" lon="1.78052">
        <ele>70</ele>
        <time>2015-04-06T06:42:32Z</time>
      </trkpt>
      <trkpt lat="49.44277" lon="1.77975">
        <ele>41</ele>
        <time>2015-04-06T06:47:27Z</time>
      </trkpt>
      <trkpt lat="49.44274" lon="1.7796">
        <ele>42</ele>
        <time>2015-04-06T06:47:32Z</time>
      </trkpt>
      <trkpt lat="49.44266" lon="1.7793">
        <ele>43</ele>
        <time>2015-04-06T06:47:39Z</time>
      </trkpt>
      <trkpt lat="49.44264" lon="1.77921">
        <ele>43</ele>
        <time>2015-04-06T06:47:41Z</time>
      </trkpt>
      <trkpt lat="49.44261" lon="1.77906">
        <ele>43</ele>
        <time>2015-04-06T06:47:44Z</time>
      </trkpt>
      <trkpt lat="49.44259" lon="1.77895">
        <ele>43</ele>
        <time>2015-04-06T06:47:46Z</time>
      </trkpt>
      <trkpt lat="49.44254" lon="1.77885">
        <ele>44</ele>
        <time>2015-04-06T06:47:48Z</time>
      </trkpt>
      <trkpt lat="49.44247" lon="1.77872">
        <ele>44</ele>
        <time>2015-04-06T06:47:51Z</time>
      </trkpt>
      <trkpt lat="49.4423" lon="1.77831">
        <ele>45</ele>
        <time>2015-04-06T06:47:59Z</time>
      </trkpt>
      <trkpt lat="49.44225" lon="1.77821">
        <ele>45</ele>
        <time>2015-04-06T06:48:01Z</time>
      </trkpt>
      <trkpt lat="49.4419" lon="1.77736">
        <ele>48</ele>
        <time>2015-04-06T06:48:17Z</time>
      </trkpt>
      <trkpt lat="49.44186" lon="1.77726">
        <ele>48</ele>
        <time>2015-04-06T06:48:19Z</time>
      </trkpt>
      <trkpt lat="49.44181" lon="1.77715">
        <ele>48</ele>
        <time>2015-04-06T06:48:21Z</time>
      </trkpt>
      <trkpt lat="49.44175" lon="1.777">
        <ele>49</ele>
        <time>2015-04-06T06:48:24Z</time>
      </trkpt>
      <trkpt lat="49.44172" lon="1.7769">
        <ele>49</ele>
        <time>2015-04-06T06:48:26Z</time>
      </trkpt>
      <trkpt lat="49.44166" lon="1.77675">
        <ele>49</ele>
        <time>2015-04-06T06:48:29Z</time>
      </trkpt>
      <trkpt lat="49.44162" lon="1.77665">
        <ele>50</ele>
        <time>2015-04-06T06:48:31Z</time>
      </trkpt>
      <trkpt lat="49.44159" lon="1.77655">
        <ele>50</ele>
        <time>2015-04-06T06:48:33Z</time>
      </trkpt>
      <trkpt lat="49.44154" lon="1.77647">
        <ele>50</ele>
        <time>2015-04-06T06:48:35Z</time>
      </trkpt>
      <trkpt lat="49.44147" lon="1.7763">
        <ele>50</ele>
        <time>2015-04-06T06:48:39Z</time>
      </trkpt>
      <trkpt lat="49.44143" lon="1.77623">
        <ele>50</ele>
        <time>2015-04-06T06:48:41Z</time>
      </trkpt>
      <trkpt lat="49.44138" lon="1.77616">
        <ele>51</ele>
        <time>2015-04-06T06:48:43Z</time>
      </trkpt>
      <trkpt lat="49.44134" lon="1.77609">
        <ele>51</ele>
        <time>2015-04-06T06:48:45Z</time>
      </trkpt>
      <trkpt lat="49.44124" lon="1.77595">
        <ele>51</ele>
        <time>2015-04-06T06:48:49Z</time>
      </trkpt>
      <trkpt lat="49.4412" lon="1.77588">
        <ele>51</ele>
        <time>2015-04-06T06:48:51Z</time>
      </trkpt>
      <trkpt lat="49.44115" lon="1.77582">
        <ele>51</ele>
        <time>2015-04-06T06:48:53Z</time>
      </trkpt>
      <trkpt lat="49.44111" lon="1.77576">
        <ele>51</ele>
        <time>2015-04-06T06:48:55Z</time>
      </trkpt>
      <trkpt lat="49.44106" lon="1.7757">
        <ele>51</ele>
        <time>2015-04-06T06:48:57Z</time>
      </trkpt>
      <trkpt lat="49.44101" lon="1.77563">
        <ele>52</ele>
        <time>2015-04-06T06:48:59Z</time>
      </trkpt>
      <trkpt lat="49.44097" lon="1.77557">
        <ele>52</ele>
        <time>2015-04-06T06:49:01Z</time>
      </trkpt>
      <trkpt lat="49.44092" lon="1.77551">
        <ele>52</ele>
        <time>2015-04-06T06:49:03Z</time>
      </trkpt>
      <trkpt lat="49.44082" lon="1.77538">
        <ele>53</ele>
        <time>2015-04-06T06:49:08Z</time>
      </trkpt>
      <trkpt lat="49.44078" lon="1.77533">
        <ele>53</ele>
        <time>2015-04-06T06:49:10Z</time>
      </trkpt>
      <trkpt lat="49.4407" lon="1.77525">
        <ele>53</ele>
        <time>2015-04-06T06:49:13Z</time>
      </trkpt>
      <trkpt lat="49.44065" lon="1.7752">
        <ele>53</ele>
        <time>2015-04-06T06:49:15Z</time>
      </trkpt>
      <trkpt lat="49.44061" lon="1.77514">
        <ele>53</ele>
        <time>2015-04-06T06:49:17Z</time>
      </trkpt>
      <trkpt lat="49.44055" lon="1.77509">
        <ele>53</ele>
        <time>2015-04-06T06:49:19Z</time>
      </trkpt>
      <trkpt lat="49.4405" lon="1.77503">
        <ele>53</ele>
        <time>2015-04-06T06:49:21Z</time>
      </trkpt>
      <trkpt lat="49.44045" lon="1.77497">
        <ele>53</ele>
        <time>2015-04-06T06:49:23Z</time>
      </trkpt>
      <trkpt lat="49.44038" lon="1.77492">
        <ele>53</ele>
        <time>2015-04-06T06:49:25Z</time>
      </trkpt>
      <trkpt lat="49.44033" lon="1.77487">
        <ele>54</ele>
        <time>2015-04-06T06:49:27Z</time>
      </trkpt>
      <trkpt lat="49.44003" lon="1.77453">
        <ele>58</ele>
        <time>2015-04-06T06:49:39Z</time>
      </trkpt>
      <trkpt lat="49.43998" lon="1.77448">
        <ele>58</ele>
        <time>2015-04-06T06:49:41Z</time>
      </trkpt>
      <trkpt lat="49.43993" lon="1.77442">
        <ele>58</ele>
        <time>2015-04-06T06:49:43Z</time>
      </trkpt>
      <trkpt lat="49.43987" lon="1.77433">
        <ele>59</ele>
        <time>2015-04-06T06:49:46Z</time>
      </trkpt>
      <trkpt lat="49.43979" lon="1.77423">
        <ele>59</ele>
        <time>2015-04-06T06:49:50Z</time>
      </trkpt>
      <trkpt lat="49.43974" lon="1.77418">
        <ele>59</ele>
        <time>2015-04-06T06:49:52Z</time>
      </trkpt>
      <trkpt lat="49.43966" lon="1.77415">
        <ele>60</ele>
        <time>2015-04-06T06:49:56Z</time>
      </trkpt>
      <trkpt lat="49.43953" lon="1.77418">
        <ele>61</ele>
        <time>2015-04-06T06:50:01Z</time>
      </trkpt>
      <trkpt lat="49.43949" lon="1.77419">
        <ele>61</ele>
        <time>2015-04-06T06:50:03Z</time>
      </trkpt>
      <trkpt lat="49.43938" lon="1.77424">
        <ele>61</ele>
        <time>2015-04-06T06:50:08Z</time>
      </trkpt>
      <trkpt lat="49.43932" lon="1.77427">
        <ele>61</ele>
        <time>2015-04-06T06:50:11Z</time>
      </trkpt>
      <trkpt lat="49.43905" lon="1.7744">
        <ele>61</ele>
        <time>2015-04-06T06:50:19Z</time>
      </trkpt>
      <trkpt lat="49.43897" lon="1.77445">
        <ele>61</ele>
        <time>2015-04-06T06:50:21Z</time>
      </trkpt>
      <trkpt lat="49.43886" lon="1.77453">
        <ele>62</ele>
        <time>2015-04-06T06:50:24Z</time>
      </trkpt>
      <trkpt lat="49.43877" lon="1.77462">
        <ele>63</ele>
        <time>2015-04-06T06:50:27Z</time>
      </trkpt>
      <trkpt lat="49.43837" lon="1.7749">
        <ele>64</ele>
        <time>2015-04-06T06:50:39Z</time>
      </trkpt>
      <trkpt lat="49.4383" lon="1.77492">
        <ele>64</ele>
        <time>2015-04-06T06:50:41Z</time>
      </trkpt>
      <trkpt lat="49.4382" lon="1.77498">
        <ele>64</ele>
        <time>2015-04-06T06:50:44Z</time>
      </trkpt>
      <trkpt lat="49.4381" lon="1.77505">
        <ele>64</ele>
        <time>2015-04-06T06:50:47Z</time>
      </trkpt>
      <trkpt lat="49.43803" lon="1.77508">
        <ele>63</ele>
        <time>2015-04-06T06:50:49Z</time>
      </trkpt>
      <trkpt lat="49.43795" lon="1.77512">
        <ele>64</ele>
        <time>2015-04-06T06:50:51Z</time>
      </trkpt>
      <trkpt lat="49.43785" lon="1.77518">
        <ele>64</ele>
        <time>2015-04-06T06:50:54Z</time>
      </trkpt>
      <trkpt lat="49.43774" lon="1.77524">
        <ele>65</ele>
        <time>2015-04-06T06:50:57Z</time>
      </trkpt>
      <trkpt lat="49.43767" lon="1.77529">
        <ele>65</ele>
        <time>2015-04-06T06:50:59Z</time>
      </trkpt>
      <trkpt lat="49.4376" lon="1.77532">
        <ele>65</ele>
        <time>2015-04-06T06:51:01Z</time>
      </trkpt>
      <trkpt lat="49.43746" lon="1.77541">
        <ele>65</ele>
        <time>2015-04-06T06:51:05Z</time>
      </trkpt>
      <trkpt lat="49.43699" lon="1.7757">
        <ele>66</ele>
        <time>2015-04-06T06:51:19Z</time>
      </trkpt>
      <trkpt lat="49.43691" lon="1.77574">
        <ele>66</ele>
        <time>2015-04-06T06:51:21Z</time>
      </trkpt>
      <trkpt lat="49.43684" lon="1.77578">
        <ele>67</ele>
        <time>2015-04-06T06:51:23Z</time>
      </trkpt>
      <trkpt lat="49.4367" lon="1.77585">
        <ele>67</ele>
        <time>2015-04-06T06:51:27Z</time>
      </trkpt>
      <trkpt lat="49.43634" lon="1.77597">
        <ele>69</ele>
        <time>2015-04-06T06:51:37Z</time>
      </trkpt>
      <trkpt lat="49.43628" lon="1.77599">
        <ele>69</ele>
        <time>2015-04-06T06:51:39Z</time>
      </trkpt>
      <trkpt lat="49.43622" lon="1.77601">
        <ele>69</ele>
        <time>2015-04-06T06:51:41Z</time>
      </trkpt>
      <trkpt lat="49.43613" lon="1.77603">
        <ele>69</ele>
        <time>2015-04-06T06:51:44Z</time>
      </trkpt>
      <trkpt lat="49.43606" lon="1.77604">
        <ele>69</ele>
        <time>2015-04-06T06:51:46Z</time>
      </trkpt>
      <trkpt lat="49.436" lon="1.77604">
        <ele>70</ele>
        <time>2015-04-06T06:51:48Z</time>
      </trkpt>
      <trkpt lat="49.43591" lon="1.77606">
        <ele>70</ele>
        <time>2015-04-06T06:51:51Z</time>
      </trkpt>
      <trkpt lat="49.43568" lon="1.7761">
        <ele>70</ele>
        <time>2015-04-06T06:51:58Z</time>
      </trkpt>
      <trkpt lat="49.43559" lon="1.77613">
        <ele>71</ele>
        <time>2015-04-06T06:52:01Z</time>
      </trkpt>
      <trkpt lat="49.43553" lon="1.77614">
        <ele>71</ele>
        <time>2015-04-06T06:52:03Z</time>
      </trkpt>
      <trkpt lat="49.43504" lon="1.77628">
        <ele>70</ele>
        <time>2015-04-06T06:52:19Z</time>
      </trkpt>
      <trkpt lat="49.43498" lon="1.77631">
        <ele>70</ele>
        <time>2015-04-06T06:52:21Z</time>
      </trkpt>
      <trkpt lat="49.43493" lon="1.77633">
        <ele>70</ele>
        <time>2015-04-06T06:52:23Z</time>
      </trkpt>
      <trkpt lat="49.43486" lon="1.77635">
        <ele>71</ele>
        <time>2015-04-06T06:52:25Z</time>
      </trkpt>
      <trkpt lat="49.43481" lon="1.77638">
        <ele>70</ele>
        <time>2015-04-06T06:52:27Z</time>
      </trkpt>
      <trkpt lat="49.43472" lon="1.77643">
        <ele>70</ele>
        <time>2015-04-06T06:52:30Z</time>
      </trkpt>
      <trkpt lat="49.43467" lon="1.77646">
        <ele>70</ele>
        <time>2015-04-06T06:52:32Z</time>
      </trkpt>
      <trkpt lat="49.43459" lon="1.77652">
        <ele>69</ele>
        <time>2015-04-06T06:52:35Z</time>
      </trkpt>
      <trkpt lat="49.43449" lon="1.7766">
        <ele>68</ele>
        <time>2015-04-06T06:52:39Z</time>
      </trkpt>
      <trkpt lat="49.43444" lon="1.77664">
        <ele>68</ele>
        <time>2015-04-06T06:52:41Z</time>
      </trkpt>
      <trkpt lat="49.4344" lon="1.77668">
        <ele>68</ele>
        <time>2015-04-06T06:52:43Z</time>
      </trkpt>
      <trkpt lat="49.43434" lon="1.77672">
        <ele>68</ele>
        <time>2015-04-06T06:52:45Z</time>
      </trkpt>
      <trkpt lat="49.43429" lon="1.77675">
        <ele>68</ele>
        <time>2015-04-06T06:52:47Z</time>
      </trkpt>
      <trkpt lat="49.43424" lon="1.77679">
        <ele>68</ele>
        <time>2015-04-06T06:52:49Z</time>
      </trkpt>
      <trkpt lat="49.43399" lon="1.77697">
        <ele>69</ele>
        <time>2015-04-06T06:52:59Z</time>
      </trkpt>
      <trkpt lat="49.43395" lon="1.77701">
        <ele>69</ele>
        <time>2015-04-06T06:53:01Z</time>
      </trkpt>
      <trkpt lat="49.43373" lon="1.77717">
        <ele>70</ele>
        <time>2015-04-06T06:53:10Z</time>
      </trkpt>
      <trkpt lat="49.43362" lon="1.77724">
        <ele>71</ele>
        <time>2015-04-06T06:53:14Z</time>
      </trkpt>
      <trkpt lat="49.43352" lon="1.77731">
        <ele>71</ele>
        <time>2015-04-06T06:53:18Z</time>
      </trkpt>
      <trkpt lat="49.43345" lon="1.77737">
        <ele>71</ele>
        <time>2015-04-06T06:53:21Z</time>
      </trkpt>
      <trkpt lat="49.43336" lon="1.77742">
        <ele>71</ele>
        <time>2015-04-06T06:53:24Z</time>
      </trkpt>
      <trkpt lat="49.4333" lon="1.77746">
        <ele>71</ele>
        <time>2015-04-06T06:53:26Z</time>
      </trkpt>
      <trkpt lat="49.43325" lon="1.7775">
        <ele>71</ele>
        <time>2015-04-06T06:53:28Z</time>
      </trkpt>
      <trkpt lat="49.43319" lon="1.77754">
        <ele>71</ele>
        <time>2015-04-06T06:53:30Z</time>
      </trkpt>
      <trkpt lat="49.43309" lon="1.77761">
        <ele>70</ele>
        <time>2015-04-06T06:53:34Z</time>
      </trkpt>
      <trkpt lat="49.43301" lon="1.77767">
        <ele>70</ele>
        <time>2015-04-06T06:53:37Z</time>
      </trkpt>
      <trkpt lat="49.43295" lon="1.77771">
        <ele>71</ele>
        <time>2015-04-06T06:53:39Z</time>
      </trkpt>
      <trkpt lat="49.4329" lon="1.77774">
        <ele>70</ele>
        <time>2015-04-06T06:53:41Z</time>
      </trkpt>
      <trkpt lat="49.43285" lon="1.77778">
        <ele>70</ele>
        <time>2015-04-06T06:53:43Z</time>
      </trkpt>
      <trkpt lat="49.43277" lon="1.77784">
        <ele>70</ele>
        <time>2015-04-06T06:53:46Z</time>
      </trkpt>
      <trkpt lat="49.43272" lon="1.77787">
        <ele>70</ele>
        <time>2015-04-06T06:53:48Z</time>
      </trkpt>
      <trkpt lat="49.43264" lon="1.77793">
        <ele>70</ele>
        <time>2015-04-06T06:53:51Z</time>
      </trkpt>
      <trkpt lat="49.43259" lon="1.77797">
        <ele>71</ele>
        <time>2015-04-06T06:53:53Z</time>
      </trkpt>
      <trkpt lat="49.43251" lon="1.77802">
        <ele>71</ele>
        <time>2015-04-06T06:53:56Z</time>
      </trkpt>
      <trkpt lat="49.43246" lon="1.77806">
        <ele>71</ele>
        <time>2015-04-06T06:53:58Z</time>
      </trkpt>
      <trkpt lat="49.43241" lon="1.77809">
        <ele>71</ele>
        <time>2015-04-06T06:54:00Z</time>
      </trkpt>
      <trkpt lat="49.43236" lon="1.77813">
        <ele>71</ele>
        <time>2015-04-06T06:54:02Z</time>
      </trkpt>
      <trkpt lat="49.43224" lon="1.77822">
        <ele>72</ele>
        <time>2015-04-06T06:54:07Z</time>
      </trkpt>
      <trkpt lat="49.43195" lon="1.77846">
        <ele>73</ele>
        <time>2015-04-06T06:54:19Z</time>
      </trkpt>
      <trkpt lat="49.4319" lon="1.77851">
        <ele>73</ele>
        <time>2015-04-06T06:54:21Z</time>
      </trkpt>
      <trkpt lat="49.43182" lon="1.77857">
        <ele>73</ele>
        <time>2015-04-06T06:54:24Z</time>
      </trkpt>
      <trkpt lat="49.43178" lon="1.77861">
        <ele>73</ele>
        <time>2015-04-06T06:54:26Z</time>
      </trkpt>
      <trkpt lat="49.43173" lon="1.77865">
        <ele>73</ele>
        <time>2015-04-06T06:54:28Z</time>
      </trkpt>
      <trkpt lat="49.43146" lon="1.77887">
        <ele>74</ele>
        <time>2015-04-06T06:54:39Z</time>
      </trkpt>
      <trkpt lat="49.43141" lon="1.77891">
        <ele>74</ele>
        <time>2015-04-06T06:54:41Z</time>
      </trkpt>
      <trkpt lat="49.43134" lon="1.77897">
        <ele>74</ele>
        <time>2015-04-06T06:54:44Z</time>
      </trkpt>
      <trkpt lat="49.43129" lon="1.77901">
        <ele>75</ele>
        <time>2015-04-06T06:54:46Z</time>
      </trkpt>
      <trkpt lat="49.43119" lon="1.77908">
        <ele>75</ele>
        <time>2015-04-06T06:54:50Z</time>
      </trkpt>
      <trkpt lat="49.43115" lon="1.77911">
        <ele>75</ele>
        <time>2015-04-06T06:54:52Z</time>
      </trkpt>
      <trkpt lat="49.43103" lon="1.77921">
        <ele>75</ele>
        <time>2015-04-06T06:54:57Z</time>
      </trkpt>
      <trkpt lat="49.43094" lon="1.77928">
        <ele>75</ele>
        <time>2015-04-06T06:55:01Z</time>
      </trkpt>
      <trkpt lat="49.43081" lon="1.77938">
        <ele>75</ele>
        <time>2015-04-06T06:55:06Z</time>
      </trkpt>
      <trkpt lat="49.43044" lon="1.77971">
        <ele>74</ele>
        <time>2015-04-06T06:55:19Z</time>
      </trkpt>
      <trkpt lat="49.43037" lon="1.77977">
        <ele>74</ele>
        <time>2015-04-06T06:55:21Z</time>
      </trkpt>
      <trkpt lat="49.43031" lon="1.77983">
        <ele>74</ele>
        <time>2015-04-06T06:55:23Z</time>
      </trkpt>
      <trkpt lat="49.43022" lon="1.77993">
        <ele>74</ele>
        <time>2015-04-06T06:55:26Z</time>
      </trkpt>
      <trkpt lat="49.43016" lon="1.78">
        <ele>74</ele>
        <time>2015-04-06T06:55:28Z</time>
      </trkpt>
      <trkpt lat="49.43005" lon="1.78015">
        <ele>75</ele>
        <time>2015-04-06T06:55:32Z</time>
      </trkpt>
      <trkpt lat="49.42989" lon="1.78038">
        <ele>75</ele>
        <time>2015-04-06T06:55:38Z</time>
      </trkpt>
      <trkpt lat="49.42981" lon="1.7805">
        <ele>75</ele>
        <time>2015-04-06T06:55:41Z</time>
      </trkpt>
      <trkpt lat="49.42975" lon="1.78058">
        <ele>75</ele>
        <time>2015-04-06T06:55:43Z</time>
      </trkpt>
      <trkpt lat="49.42968" lon="1.78069">
        <ele>76</ele>
        <time>2015-04-06T06:55:46Z</time>
      </trkpt>
      <trkpt lat="49.42954" lon="1.78092">
        <ele>76</ele>
        <time>2015-04-06T06:55:52Z</time>
      </trkpt>
      <trkpt lat="49.42946" lon="1.78106">
        <ele>77</ele>
        <time>2015-04-06T06:55:56Z</time>
      </trkpt>
      <trkpt lat="49.42942" lon="1.78112">
        <ele>77</ele>
        <time>2015-04-06T06:55:58Z</time>
      </trkpt>
      <trkpt lat="49.42935" lon="1.78122">
        <ele>77</ele>
        <time>2015-04-06T06:56:01Z</time>
      </trkpt>
      <trkpt lat="49.42931" lon="1.78128">
        <ele>78</ele>
        <time>2015-04-06T06:56:03Z</time>
      </trkpt>
      <trkpt lat="49.42906" lon="1.78159">
        <ele>80</ele>
        <time>2015-04-06T06:56:15Z</time>
      </trkpt>
      <trkpt lat="49.42902" lon="1.78164">
        <ele>80</ele>
        <time>2015-04-06T06:56:17Z</time>
      </trkpt>
      <trkpt lat="49.42896" lon="1.7817">
        <ele>81</ele>
        <time>2015-04-06T06:56:20Z</time>
      </trkpt>
      <trkpt lat="49.42892" lon="1.78174">
        <ele>81</ele>
        <time>2015-04-06T06:56:22Z</time>
      </trkpt>
      <trkpt lat="49.42884" lon="1.78182">
        <ele>82</ele>
        <time>2015-04-06T06:56:26Z</time>
      </trkpt>
      <trkpt lat="49.42881" lon="1.78186">
        <ele>82</ele>
        <time>2015-04-06T06:56:28Z</time>
      </trkpt>
      <trkpt lat="49.4286" lon="1.78205">
        <ele>83</ele>
        <time>2015-04-06T06:56:39Z</time>
      </trkpt>
      <trkpt lat="49.42856" lon="1.78208">
        <ele>82</ele>
        <time>2015-04-06T06:56:41Z</time>
      </trkpt>
      <trkpt lat="49.42847" lon="1.78217">
        <ele>83</ele>
        <time>2015-04-06T06:56:46Z</time>
      </trkpt>
      <trkpt lat="49.42838" lon="1.78223">
        <ele>82</ele>
        <time>2015-04-06T06:56:50Z</time>
      </trkpt>
      <trkpt lat="49.42832" lon="1.78231">
        <ele>83</ele>
        <time>2015-04-06T06:56:54Z</time>
      </trkpt>
      <trkpt lat="49.42825" lon="1.7824">
        <ele>87</ele>
        <time>2015-04-06T06:57:00Z</time>
      </trkpt>
      <trkpt lat="49.4282" lon="1.78245">
        <ele>88</ele>
        <time>2015-04-06T06:57:04Z</time>
      </trkpt>
      <trkpt lat="49.42816" lon="1.78248">
        <ele>89</ele>
        <time>2015-04-06T06:57:07Z</time>
      </trkpt>
      <trkpt lat="49.42807" lon="1.78273">
        <ele>95</ele>
        <time>2015-04-06T06:57:18Z</time>
      </trkpt>
      <trkpt lat="49.42807" lon="1.78281">
        <ele>97</ele>
        <time>2015-04-06T06:57:21Z</time>
      </trkpt>
      <trkpt lat="49.42807" lon="1.78289">
        <ele>97</ele>
        <time>2015-04-06T06:57:24Z</time>
      </trkpt>
      <trkpt lat="49.42807" lon="1.78299">
        <ele>99</ele>
        <time>2015-04-06T06:57:28Z</time>
      </trkpt>
      <trkpt lat="49.42808" lon="1.78311">
        <ele>101</ele>
        <time>2015-04-06T06:57:33Z</time>
      </trkpt>
      <trkpt lat="49.42808" lon="1.78323">
        <ele>103</ele>
        <time>2015-04-06T06:57:38Z</time>
      </trkpt>
      <trkpt lat="49.42807" lon="1.78337">
        <ele>105</ele>
        <time>2015-04-06T06:57:44Z</time>
      </trkpt>
      <trkpt lat="49.42806" lon="1.78344">
        <ele>106</ele>
        <time>2015-04-06T06:57:47Z</time>
      </trkpt>
      <trkpt lat="49.42804" lon="1.78357">
        <ele>107</ele>
        <time>2015-04-06T06:57:52Z</time>
      </trkpt>
      <trkpt lat="49.428" lon="1.78375">
        <ele>107</ele>
        <time>2015-04-06T06:57:58Z</time>
      </trkpt>
      <trkpt lat="49.42798" lon="1.78384">
        <ele>107</ele>
        <time>2015-04-06T06:58:01Z</time>
      </trkpt>
      <trkpt lat="49.4278" lon="1.78421">
        <ele>108</ele>
        <time>2015-04-06T06:58:19Z</time>
      </trkpt>
      <trkpt lat="49.42776" lon="1.78428">
        <ele>108</ele>
        <time>2015-04-06T06:58:23Z</time>
      </trkpt>
      <trkpt lat="49.42771" lon="1.78434">
        <ele>108</ele>
        <time>2015-04-06T06:58:27Z</time>
      </trkpt>
      <trkpt lat="49.42766" lon="1.7844">
        <ele>107</ele>
        <time>2015-04-06T06:58:32Z</time>
      </trkpt>
      <trkpt lat="49.42757" lon="1.78446">
        <ele>107</ele>
        <time>2015-04-06T06:58:39Z</time>
      </trkpt>
      <trkpt lat="49.42753" lon="1.78449">
        <ele>106</ele>
        <time>2015-04-06T06:58:42Z</time>
      </trkpt>
      <trkpt lat="49.42747" lon="1.78453">
        <ele>107</ele>
        <time>2015-04-06T06:58:46Z</time>
      </trkpt>
      <trkpt lat="49.42738" lon="1.78459">
        <ele>107</ele>
        <time>2015-04-06T06:58:52Z</time>
      </trkpt>
      <trkpt lat="49.4273" lon="1.78464">
        <ele>107</ele>
        <time>2015-04-06T06:58:56Z</time>
      </trkpt>
      <trkpt lat="49.42724" lon="1.78468">
        <ele>107</ele>
        <time>2015-04-06T06:58:59Z</time>
      </trkpt>
      <trkpt lat="49.42719" lon="1.78471">
        <ele>106</ele>
        <time>2015-04-06T06:59:01Z</time>
      </trkpt>
      <trkpt lat="49.42692" lon="1.78491">
        <ele>103</ele>
        <time>2015-04-06T06:59:12Z</time>
      </trkpt>
      <trkpt lat="49.42674" lon="1.78503">
        <ele>102</ele>
        <time>2015-04-06T06:59:18Z</time>
      </trkpt>
      <trkpt lat="49.42668" lon="1.78507">
        <ele>101</ele>
        <time>2015-04-06T06:59:20Z</time>
      </trkpt>
      <trkpt lat="49.42662" lon="1.78512">
        <ele>101</ele>
        <time>2015-04-06T06:59:22Z</time>
      </trkpt>
      <trkpt lat="49.42656" lon="1.78516">
        <ele>100</ele>
        <time>2015-04-06T06:59:24Z</time>
      </trkpt>
      <trkpt lat="49.42644" lon="1.78525">
        <ele>100</ele>
        <time>2015-04-06T06:59:28Z</time>
      </trkpt>
      <trkpt lat="49.42611" lon="1.78549">
        <ele>99</ele>
        <time>2015-04-06T06:59:39Z</time>
      </trkpt>
      <trkpt lat="49.42604" lon="1.78554">
        <ele>99</ele>
        <time>2015-04-06T06:59:41Z</time>
      </trkpt>
      <trkpt lat="49.42598" lon="1.78559">
        <ele>99</ele>
        <time>2015-04-06T06:59:43Z</time>
      </trkpt>
      <trkpt lat="49.42588" lon="1.78568">
        <ele>99</ele>
        <time>2015-04-06T06:59:46Z</time>
      </trkpt>
      <trkpt lat="49.42574" lon="1.78578">
        <ele>99</ele>
        <time>2015-04-06T06:59:50Z</time>
      </trkpt>
      <trkpt lat="49.42568" lon="1.78583">
        <ele>98</ele>
        <time>2015-04-06T06:59:52Z</time>
      </trkpt>
      <trkpt lat="49.42551" lon="1.78595">
        <ele>98</ele>
        <time>2015-04-06T06:59:57Z</time>
      </trkpt>
      <trkpt lat="49.42542" lon="1.78603">
        <ele>98</ele>
        <time>2015-04-06T07:00:00Z</time>
      </trkpt>
      <trkpt lat="49.425" lon="1.78632">
        <ele>99</ele>
        <time>2015-04-06T07:00:14Z</time>
      </trkpt>
      <trkpt lat="49.42484" lon="1.78643">
        <ele>100</ele>
        <time>2015-04-06T07:00:20Z</time>
      </trkpt>
      <trkpt lat="49.42479" lon="1.78646">
        <ele>100</ele>
        <time>2015-04-06T07:00:22Z</time>
      </trkpt>
      <trkpt lat="49.42468" lon="1.78653">
        <ele>100</ele>
        <time>2015-04-06T07:00:26Z</time>
      </trkpt>
      <trkpt lat="49.42463" lon="1.78656">
        <ele>100</ele>
        <time>2015-04-06T07:00:28Z</time>
      </trkpt>
      <trkpt lat="49.42454" lon="1.78662">
        <ele>100</ele>
        <time>2015-04-06T07:00:31Z</time>
      </trkpt>
      <trkpt lat="49.42448" lon="1.78665">
        <ele>100</ele>
        <time>2015-04-06T07:00:33Z</time>
      </trkpt>
      <trkpt lat="49.42441" lon="1.78669">
        <ele>100</ele>
        <time>2015-04-06T07:00:35Z</time>
      </trkpt>
      <trkpt lat="49.42425" lon="1.78678">
        <ele>100</ele>
        <time>2015-04-06T07:00:40Z</time>
      </trkpt>
      <trkpt lat="49.42419" lon="1.78682">
        <ele>100</ele>
        <time>2015-04-06T07:00:42Z</time>
      </trkpt>
      <trkpt lat="49.42408" lon="1.78689">
        <ele>100</ele>
        <time>2015-04-06T07:00:45Z</time>
      </trkpt>
      <trkpt lat="49.42391" lon="1.78699">
        <ele>99</ele>
        <time>2015-04-06T07:00:50Z</time>
      </trkpt>
      <trkpt lat="49.42384" lon="1.78703">
        <ele>100</ele>
        <time>2015-04-06T07:00:52Z</time>
      </trkpt>
      <trkpt lat="49.42355" lon="1.7872">
        <ele>99</ele>
        <time>2015-04-06T07:01:00Z</time>
      </trkpt>
      <trkpt lat="49.42345" lon="1.78724">
        <ele>98</ele>
        <time>2015-04-06T07:01:02Z</time>
      </trkpt>
      <trkpt lat="49.42333" lon="1.78727">
        <ele>98</ele>
        <time>2015-04-06T07:01:05Z</time>
      </trkpt>
      <trkpt lat="49.42324" lon="1.78728">
        <ele>98</ele>
        <time>2015-04-06T07:01:07Z</time>
      </trkpt>
      <trkpt lat="49.42315" lon="1.78728">
        <ele>98</ele>
        <time>2015-04-06T07:01:09Z</time>
      </trkpt>
      <trkpt lat="49.4231" lon="1.78729">
        <ele>97</ele>
        <time>2015-04-06T07:01:10Z</time>
      </trkpt>
      <trkpt lat="49.42305" lon="1.78728">
        <ele>97</ele>
        <time>2015-04-06T07:01:11Z</time>
      </trkpt>
      <trkpt lat="49.42297" lon="1.78727">
        <ele>97</ele>
        <time>2015-04-06T07:01:13Z</time>
      </trkpt>
      <trkpt lat="49.42271" lon="1.78721">
        <ele>96</ele>
        <time>2015-04-06T07:01:19Z</time>
      </trkpt>
      <trkpt lat="49.42263" lon="1.78718">
        <ele>96</ele>
        <time>2015-04-06T07:01:21Z</time>
      </trkpt>
      <trkpt lat="49.42255" lon="1.78715">
        <ele>95</ele>
        <time>2015-04-06T07:01:23Z</time>
      </trkpt>
      <trkpt lat="49.42247" lon="1.7871">
        <ele>95</ele>
        <time>2015-04-06T07:01:25Z</time>
      </trkpt>
      <trkpt lat="49.42239" lon="1.78703">
        <ele>95</ele>
        <time>2015-04-06T07:01:27Z</time>
      </trkpt>
      <trkpt lat="49.42236" lon="1.78699">
        <ele>94</ele>
        <time>2015-04-06T07:01:28Z</time>
      </trkpt>
      <trkpt lat="49.42223" lon="1.78688">
        <ele>94</ele>
        <time>2015-04-06T07:01:31Z</time>
      </trkpt>
      <trkpt lat="49.42213" lon="1.78681">
        <ele>93</ele>
        <time>2015-04-06T07:01:33Z</time>
      </trkpt>
      <trkpt lat="49.42202" lon="1.78674">
        <ele>93</ele>
        <time>2015-04-06T07:01:35Z</time>
      </trkpt>
      <trkpt lat="49.42197" lon="1.78671">
        <ele>93</ele>
        <time>2015-04-06T07:01:36Z</time>
      </trkpt>
      <trkpt lat="49.42173" lon="1.78657">
        <ele>91</ele>
        <time>2015-04-06T07:01:40Z</time>
      </trkpt>
      <trkpt lat="49.42159" lon="1.78649">
        <ele>91</ele>
        <time>2015-04-06T07:01:42Z</time>
      </trkpt>
      <trkpt lat="49.42145" lon="1.78641">
        <ele>90</ele>
        <time>2015-04-06T07:01:44Z</time>
      </trkpt>
      <trkpt lat="49.42138" lon="1.78636">
        <ele>90</ele>
        <time>2015-04-06T07:01:45Z</time>
      </trkpt>
      <trkpt lat="49.42124" lon="1.78628">
        <ele>89</ele>
        <time>2015-04-06T07:01:47Z</time>
      </trkpt>
      <trkpt lat="49.42102" lon="1.78614">
        <ele>88</ele>
        <time>2015-04-06T07:01:50Z</time>
      </trkpt>
      <trkpt lat="49.42087" lon="1.78604">
        <ele>87</ele>
        <time>2015-04-06T07:01:52Z</time>
      </trkpt>
      <trkpt lat="49.42073" lon="1.78593">
        <ele>87</ele>
        <time>2015-04-06T07:01:54Z</time>
      </trkpt>
      <trkpt lat="49.42058" lon="1.78582">
        <ele>86</ele>
        <time>2015-04-06T07:01:56Z</time>
      </trkpt>
      <trkpt lat="49.42051" lon="1.78576">
        <ele>86</ele>
        <time>2015-04-06T07:01:57Z</time>
      </trkpt>
      <trkpt lat="49.4203" lon="1.7856">
        <ele>85</ele>
        <time>2015-04-06T07:02:00Z</time>
      </trkpt>
      <trkpt lat="49.42017" lon="1.7855">
        <ele>85</ele>
        <time>2015-04-06T07:02:02Z</time>
      </trkpt>
      <trkpt lat="49.42011" lon="1.78545">
        <ele>85</ele>
        <time>2015-04-06T07:02:03Z</time>
      </trkpt>
      <trkpt lat="49.42004" lon="1.7854">
        <ele>84</ele>
        <time>2015-04-06T07:02:04Z</time>
      </trkpt>
      <trkpt lat="49.41991" lon="1.7853">
        <ele>84</ele>
        <time>2015-04-06T07:02:06Z</time>
      </trkpt>
      <trkpt lat="49.41986" lon="1.78526">
        <ele>84</ele>
        <time>2015-04-06T07:02:07Z</time>
      </trkpt>
      <trkpt lat="49.4191" lon="1.78459">
        <ele>81</ele>
        <time>2015-04-06T07:02:20Z</time>
      </trkpt>
      <trkpt lat="49.419" lon="1.78447">
        <ele>81</ele>
        <time>2015-04-06T07:02:22Z</time>
      </trkpt>
      <trkpt lat="49.41889" lon="1.78436">
        <ele>81</ele>
        <time>2015-04-06T07:02:24Z</time>
      </trkpt>
      <trkpt lat="49.41873" lon="1.78422">
        <ele>82</ele>
        <time>2015-04-06T07:02:27Z</time>
      </trkpt>
      <trkpt lat="49.41863" lon="1.78414">
        <ele>81</ele>
        <time>2015-04-06T07:02:29Z</time>
      </trkpt>
      <trkpt lat="49.41816" lon="1.78406">
        <ele>81</ele>
        <time>2015-04-06T07:02:37Z</time>
      </trkpt>
      <trkpt lat="49.41798" lon="1.78407">
        <ele>80</ele>
        <time>2015-04-06T07:02:40Z</time>
      </trkpt>
      <trkpt lat="49.41786" lon="1.78406">
        <ele>80</ele>
        <time>2015-04-06T07:02:42Z</time>
      </trkpt>
      <trkpt lat="49.41769" lon="1.78405">
        <ele>79</ele>
        <time>2015-04-06T07:02:45Z</time>
      </trkpt>
      <trkpt lat="49.41756" lon="1.78403">
        <ele>79</ele>
        <time>2015-04-06T07:02:47Z</time>
      </trkpt>
      <trkpt lat="49.41733" lon="1.78403">
        <ele>78</ele>
        <time>2015-04-06T07:02:51Z</time>
      </trkpt>
      <trkpt lat="49.41729" lon="1.78406">
        <ele>78</ele>
        <time>2015-04-06T07:02:53Z</time>
      </trkpt>
      <trkpt lat="49.41718" lon="1.78437">
        <ele>74</ele>
        <time>2015-04-06T07:03:00Z</time>
      </trkpt>
      <trkpt lat="49.41714" lon="1.78447">
        <ele>75</ele>
        <time>2015-04-06T07:03:02Z</time>
      </trkpt>
      <trkpt lat="49.41708" lon="1.78466">
        <ele>76</ele>
        <time>2015-04-06T07:03:05Z</time>
      </trkpt>
      <trkpt lat="49.4168" lon="1.78557">
        <ele>78</ele>
        <time>2015-04-06T07:03:20Z</time>
      </trkpt>
      <trkpt lat="49.41677" lon="1.78567">
        <ele>79</ele>
        <time>2015-04-06T07:03:22Z</time>
      </trkpt>
      <trkpt lat="49.41672" lon="1.78583">
        <ele>80</ele>
        <time>2015-04-06T07:03:25Z</time>
      </trkpt>
      <trkpt lat="49.41669" lon="1.78593">
        <ele>80</ele>
        <time>2015-04-06T07:03:27Z</time>
      </trkpt>
      <trkpt lat="49.41666" lon="1.78603">
        <ele>81</ele>
        <time>2015-04-06T07:03:29Z</time>
      </trkpt>
      <trkpt lat="49.41658" lon="1.78626">
        <ele>82</ele>
        <time>2015-04-06T07:03:34Z</time>
      </trkpt>
      <trkpt lat="49.41653" lon="1.78643">
        <ele>83</ele>
        <time>2015-04-06T07:03:38Z</time>
      </trkpt>
      <trkpt lat="49.4165" lon="1.7865">
        <ele>83</ele>
        <time>2015-04-06T07:03:40Z</time>
      </trkpt>
      <trkpt lat="49.4164" lon="1.78651">
        <ele>85</ele>
        <time>2015-04-06T07:03:44Z</time>
      </trkpt>
      <trkpt lat="49.41633" lon="1.7865">
        <ele>86</ele>
        <time>2015-04-06T07:03:47Z</time>
      </trkpt>
      <trkpt lat="49.41626" lon="1.78649">
        <ele>86</ele>
        <time>2015-04-06T07:03:51Z</time>
      </trkpt>
      <trkpt lat="49.41609" lon="1.78644">
        <ele>89</ele>
        <time>2015-04-06T07:04:00Z</time>
      </trkpt>
      <trkpt lat="49.41603" lon="1.78644">
        <ele>89</ele>
        <time>2015-04-06T07:04:03Z</time>
      </trkpt>
      <trkpt lat="49.41594" lon="1.78643">
        <ele>90</ele>
        <time>2015-04-06T07:04:07Z</time>
      </trkpt>
      <trkpt lat="49.41568" lon="1.78642">
        <ele>91</ele>
        <time>2015-04-06T07:04:19Z</time>
      </trkpt>
      <trkpt lat="49.41563" lon="1.78642">
        <ele>92</ele>
        <time>2015-04-06T07:04:21Z</time>
      </trkpt>
      <trkpt lat="49.41559" lon="1.78642">
        <ele>92</ele>
        <time>2015-04-06T07:04:23Z</time>
      </trkpt>
      <trkpt lat="49.41554" lon="1.78642">
        <ele>91</ele>
        <time>2015-04-06T07:04:25Z</time>
      </trkpt>
      <trkpt lat="49.41548" lon="1.78642">
        <ele>91</ele>
        <time>2015-04-06T07:04:27Z</time>
      </trkpt>
      <trkpt lat="49.41541" lon="1.78643">
        <ele>91</ele>
        <time>2015-04-06T07:04:30Z</time>
      </trkpt>
      <trkpt lat="49.41536" lon="1.78643">
        <ele>90</ele>
        <time>2015-04-06T07:04:32Z</time>
      </trkpt>
      <trkpt lat="49.41531" lon="1.78644">
        <ele>90</ele>
        <time>2015-04-06T07:04:34Z</time>
      </trkpt>
      <trkpt lat="49.41526" lon="1.78645">
        <ele>90</ele>
        <time>2015-04-06T07:04:36Z</time>
      </trkpt>
      <trkpt lat="49.41521" lon="1.78646">
        <ele>90</ele>
        <time>2015-04-06T07:04:38Z</time>
      </trkpt>
      <trkpt lat="49.41512" lon="1.78651">
        <ele>90</ele>
        <time>2015-04-06T07:04:42Z</time>
      </trkpt>
      <trkpt lat="49.41507" lon="1.78654">
        <ele>90</ele>
        <time>2015-04-06T07:04:44Z</time>
      </trkpt>
      <trkpt lat="49.41497" lon="1.78659">
        <ele>91</ele>
        <time>2015-04-06T07:04:47Z</time>
      </trkpt>
      <trkpt lat="49.41465" lon="1.7868">
        <ele>88</ele>
        <time>2015-04-06T07:04:54Z</time>
      </trkpt>
      <trkpt lat="49.4143" lon="1.7871">
        <ele>84</ele>
        <time>2015-04-06T07:05:00Z</time>
      </trkpt>
      <trkpt lat="49.41418" lon="1.7872">
        <ele>83</ele>
        <time>2015-04-06T07:05:02Z</time>
      </trkpt>
      <trkpt lat="49.41412" lon="1.78724">
        <ele>82</ele>
        <time>2015-04-06T07:05:03Z</time>
      </trkpt>
      <trkpt lat="49.414" lon="1.78735">
        <ele>81</ele>
        <time>2015-04-06T07:05:05Z</time>
      </trkpt>
      <trkpt lat="49.41383" lon="1.78749">
        <ele>80</ele>
        <time>2015-04-06T07:05:08Z</time>
      </trkpt>
      <trkpt lat="49.41378" lon="1.78753">
        <ele>80</ele>
        <time>2015-04-06T07:05:09Z</time>
      </trkpt>
      <trkpt lat="49.41367" lon="1.78759">
        <ele>78</ele>
        <time>2015-04-06T07:05:11Z</time>
      </trkpt>
      <trkpt lat="49.41362" lon="1.78761">
        <ele>78</ele>
        <time>2015-04-06T07:05:12Z</time>
      </trkpt>
      <trkpt lat="49.41351" lon="1.78763">
        <ele>77</ele>
        <time>2015-04-06T07:05:14Z</time>
      </trkpt>
      <trkpt lat="49.41327" lon="1.78764">
        <ele>77</ele>
        <time>2015-04-06T07:05:20Z</time>
      </trkpt>
      <trkpt lat="49.41319" lon="1.78764">
        <ele>77</ele>
        <time>2015-04-06T07:05:22Z</time>
      </trkpt>
      <trkpt lat="49.41308" lon="1.78764">
        <ele>78</ele>
        <time>2015-04-06T07:05:25Z</time>
      </trkpt>
      <trkpt lat="49.41296" lon="1.78762">
        <ele>78</ele>
        <time>2015-04-06T07:05:29Z</time>
      </trkpt>
      <trkpt lat="49.41264" lon="1.78763">
        <ele>77</ele>
        <time>2015-04-06T07:05:40Z</time>
      </trkpt>
      <trkpt lat="49.41258" lon="1.78764">
        <ele>78</ele>
        <time>2015-04-06T07:05:44Z</time>
      </trkpt>
      <trkpt lat="49.41244" lon="1.78764">
        <ele>80</ele>
        <time>2015-04-06T07:05:51Z</time>
      </trkpt>
      <trkpt lat="49.41226" lon="1.78763">
        <ele>83</ele>
        <time>2015-04-06T07:06:00Z</time>
      </trkpt>
      <trkpt lat="49.41221" lon="1.78763">
        <ele>84</ele>
        <time>2015-04-06T07:06:03Z</time>
      </trkpt>
      <trkpt lat="49.41212" lon="1.78766">
        <ele>84</ele>
        <time>2015-04-06T07:06:08Z</time>
      </trkpt>
      <trkpt lat="49.41212" lon="1.78773">
        <ele>84</ele>
        <time>2015-04-06T07:06:10Z</time>
      </trkpt>
      <trkpt lat="49.41214" lon="1.78781">
        <ele>84</ele>
        <time>2015-04-06T07:06:12Z</time>
      </trkpt>
      <trkpt lat="49.41218" lon="1.78794">
        <ele>84</ele>
        <time>2015-04-06T07:06:15Z</time>
      </trkpt>
      <trkpt lat="49.41222" lon="1.78806">
        <ele>85</ele>
        <time>2015-04-06T07:06:18Z</time>
      </trkpt>
      <trkpt lat="49.41225" lon="1.78815">
        <ele>85</ele>
        <time>2015-04-06T07:06:20Z</time>
      </trkpt>
      <trkpt lat="49.41228" lon="1.78824">
        <ele>85</ele>
        <time>2015-04-06T07:06:22Z</time>
      </trkpt>
      <trkpt lat="49.41233" lon="1.78836">
        <ele>85</ele>
        <time>2015-04-06T07:06:25Z</time>
      </trkpt>
      <trkpt lat="49.41235" lon="1.78845">
        <ele>85</ele>
        <time>2015-04-06T07:06:27Z</time>
      </trkpt>
      <trkpt lat="49.41242" lon="1.78873">
        <ele>85</ele>
        <time>2015-04-06T07:06:34Z</time>
      </trkpt>
      <trkpt lat="49.41244" lon="1.78906">
        <ele>84</ele>
        <time>2015-04-06T07:06:40Z</time>
      </trkpt>
      <trkpt lat="49.41243" lon="1.7892">
        <ele>83</ele>
        <time>2015-04-06T07:06:42Z</time>
      </trkpt>
      <trkpt lat="49.41242" lon="1.78939">
        <ele>83</ele>
        <time>2015-04-06T07:06:45Z</time>
      </trkpt>
      <trkpt lat="49.4124" lon="1.78952">
        <ele>83</ele>
        <time>2015-04-06T07:06:47Z</time>
      </trkpt>
      <trkpt lat="49.41238" lon="1.78965">
        <ele>83</ele>
        <time>2015-04-06T07:06:49Z</time>
      </trkpt>
      <trkpt lat="49.41236" lon="1.78979">
        <ele>82</ele>
        <time>2015-04-06T07:06:51Z</time>
      </trkpt>
      <trkpt lat="49.41233" lon="1.78991">
        <ele>82</ele>
        <time>2015-04-06T07:06:53Z</time>
      </trkpt>
      <trkpt lat="49.41223" lon="1.79034">
        <ele>82</ele>
        <time>2015-04-06T07:07:00Z</time>
      </trkpt>
      <trkpt lat="49.41219" lon="1.79046">
        <ele>82</ele>
        <time>2015-04-06T07:07:02Z</time>
      </trkpt>
      <trkpt lat="49.41189" lon="1.79145">
        <ele>82</ele>
        <time>2015-04-06T07:07:20Z</time>
      </trkpt>
      <trkpt lat="49.41185" lon="1.79156">
        <ele>81</ele>
        <time>2015-04-06T07:07:22Z</time>
      </trkpt>
      <trkpt lat="49.41181" lon="1.79165">
        <ele>81</ele>
        <time>2015-04-06T07:07:24Z</time>
      </trkpt>
      <trkpt lat="49.41177" lon="1.79174">
        <ele>82</ele>
        <time>2015-04-06T07:07:26Z</time>
      </trkpt>
      <trkpt lat="49.41172" lon="1.79188">
        <ele>82</ele>
        <time>2015-04-06T07:07:29Z</time>
      </trkpt>
      <trkpt lat="49.41168" lon="1.79196">
        <ele>82</ele>
        <time>2015-04-06T07:07:31Z</time>
      </trkpt>
      <trkpt lat="49.41148" lon="1.79221">
        <ele>82</ele>
        <time>2015-04-06T07:07:40Z</time>
      </trkpt>
      <trkpt lat="49.41135" lon="1.79229">
        <ele>83</ele>
        <time>2015-04-06T07:07:45Z</time>
      </trkpt>
      <trkpt lat="49.41129" lon="1.79231">
        <ele>83</ele>
        <time>2015-04-06T07:07:47Z</time>
      </trkpt>
      <trkpt lat="49.41106" lon="1.79247">
        <ele>83</ele>
        <time>2015-04-06T07:07:55Z</time>
      </trkpt>
      <trkpt lat="49.411" lon="1.79251">
        <ele>83</ele>
        <time>2015-04-06T07:07:57Z</time>
      </trkpt>
      <trkpt lat="49.41095" lon="1.79253">
        <ele>83</ele>
        <time>2015-04-06T07:07:59Z</time>
      </trkpt>
      <trkpt lat="49.41089" lon="1.79257">
        <ele>83</ele>
        <time>2015-04-06T07:08:01Z</time>
      </trkpt>
      <trkpt lat="49.41083" lon="1.79262">
        <ele>83</ele>
        <time>2015-04-06T07:08:03Z</time>
      </trkpt>
      <trkpt lat="49.41077" lon="1.79267">
        <ele>83</ele>
        <time>2015-04-06T07:08:05Z</time>
      </trkpt>
      <trkpt lat="49.41055" lon="1.79287">
        <ele>84</ele>
        <time>2015-04-06T07:08:14Z</time>
      </trkpt>
      <trkpt lat="49.4104" lon="1.79303">
        <ele>84</ele>
        <time>2015-04-06T07:08:20Z</time>
      </trkpt>
      <trkpt lat="49.41034" lon="1.79308">
        <ele>84</ele>
        <time>2015-04-06T07:08:22Z</time>
      </trkpt>
      <trkpt lat="49.41026" lon="1.79314">
        <ele>84</ele>
        <time>2015-04-06T07:08:25Z</time>
      </trkpt>
      <trkpt lat="49.41014" lon="1.79323">
        <ele>85</ele>
        <time>2015-04-06T07:08:29Z</time>
      </trkpt>
      <trkpt lat="49.40985" lon="1.79345">
        <ele>85</ele>
        <time>2015-04-06T07:08:40Z</time>
      </trkpt>
      <trkpt lat="49.4098" lon="1.7935">
        <ele>85</ele>
        <time>2015-04-06T07:08:42Z</time>
      </trkpt>
      <trkpt lat="49.40975" lon="1.79354">
        <ele>85</ele>
        <time>2015-04-06T07:08:44Z</time>
      </trkpt>
      <trkpt lat="49.40967" lon="1.7936">
        <ele>86</ele>
        <time>2015-04-06T07:08:47Z</time>
      </trkpt>
      <trkpt lat="49.40957" lon="1.79368">
        <ele>86</ele>
        <time>2015-04-06T07:08:51Z</time>
      </trkpt>
      <trkpt lat="49.40952" lon="1.79373">
        <ele>87</ele>
        <time>2015-04-06T07:08:53Z</time>
      </trkpt>
      <trkpt lat="49.40947" lon="1.79377">
        <ele>87</ele>
        <time>2015-04-06T07:08:55Z</time>
      </trkpt>
      <trkpt lat="49.40941" lon="1.79384">
        <ele>87</ele>
        <time>2015-04-06T07:08:58Z</time>
      </trkpt>
      <trkpt lat="49.40935" lon="1.79392">
        <ele>88</ele>
        <time>2015-04-06T07:09:02Z</time>
      </trkpt>
      <trkpt lat="49.40922" lon="1.79416">
        <ele>88</ele>
        <time>2015-04-06T07:09:10Z</time>
      </trkpt>
      <trkpt lat="49.40919" lon="1.79425">
        <ele>89</ele>
        <time>2015-04-06T07:09:13Z</time>
      </trkpt>
      <trkpt lat="49.40913" lon="1.79437">
        <ele>89</ele>
        <time>2015-04-06T07:09:17Z</time>
      </trkpt>
      <trkpt lat="49.40913" lon="1.79446">
        <ele>89</ele>
        <time>2015-04-06T07:09:19Z</time>
      </trkpt>
      <trkpt lat="49.40911" lon="1.79452">
        <ele>89</ele>
        <time>2015-04-06T07:09:21Z</time>
      </trkpt>
      <trkpt lat="49.4091" lon="1.79459">
        <ele>89</ele>
        <time>2015-04-06T07:09:23Z</time>
      </trkpt>
      <trkpt lat="49.40908" lon="1.79473">
        <ele>89</ele>
        <time>2015-04-06T07:09:27Z</time>
      </trkpt>
      <trkpt lat="49.40908" lon="1.79483">
        <ele>89</ele>
        <time>2015-04-06T07:09:30Z</time>
      </trkpt>
      <trkpt lat="49.4091" lon="1.79495">
        <ele>89</ele>
        <time>2015-04-06T07:09:33Z</time>
      </trkpt>
      <trkpt lat="49.40913" lon="1.79509">
        <ele>90</ele>
        <time>2015-04-06T07:09:38Z</time>
      </trkpt>
      <trkpt lat="49.40913" lon="1.79525">
        <ele>91</ele>
        <time>2015-04-06T07:09:43Z</time>
      </trkpt>
      <trkpt lat="49.40914" lon="1.79532">
        <ele>92</ele>
        <time>2015-04-06T07:09:45Z</time>
      </trkpt>
      <trkpt lat="49.40922" lon="1.79554">
        <ele>93</ele>
        <time>2015-04-06T07:09:51Z</time>
      </trkpt>
      <trkpt lat="49.40925" lon="1.79563">
        <ele>94</ele>
        <time>2015-04-06T07:09:53Z</time>
      </trkpt>
      <trkpt lat="49.40934" lon="1.79591">
        <ele>94</ele>
        <time>2015-04-06T07:10:00Z</time>
      </trkpt>
      <trkpt lat="49.40937" lon="1.79598">
        <ele>94</ele>
        <time>2015-04-06T07:10:02Z</time>
      </trkpt>
      <trkpt lat="49.40938" lon="1.79605">
        <ele>94</ele>
        <time>2015-04-06T07:10:03Z</time>
      </trkpt>
      <trkpt lat="49.40942" lon="1.79618">
        <ele>94</ele>
        <time>2015-04-06T07:10:07Z</time>
      </trkpt>
      <trkpt lat="49.40949" lon="1.79637">
        <ele>95</ele>
        <time>2015-04-06T07:10:13Z</time>
      </trkpt>
      <trkpt lat="49.40957" lon="1.79657">
        <ele>95</ele>
        <time>2015-04-06T07:10:20Z</time>
      </trkpt>
      <trkpt lat="49.4096" lon="1.79665">
        <ele>95</ele>
        <time>2015-04-06T07:10:23Z</time>
      </trkpt>
      <trkpt lat="49.40962" lon="1.79672">
        <ele>96</ele>
        <time>2015-04-06T07:10:26Z</time>
      </trkpt>
      <trkpt lat="49.40966" lon="1.79687">
        <ele>98</ele>
        <time>2015-04-06T07:10:31Z</time>
      </trkpt>
      <trkpt lat="49.40969" lon="1.79721">
        <ele>99</ele>
        <time>2015-04-06T07:10:37Z</time>
      </trkpt>
      <trkpt lat="49.4097" lon="1.79729">
        <ele>100</ele>
        <time>2015-04-06T07:10:39Z</time>
      </trkpt>
      <trkpt lat="49.40972" lon="1.79742">
        <ele>100</ele>
        <time>2015-04-06T07:10:42Z</time>
      </trkpt>
      <trkpt lat="49.40974" lon="1.79751">
        <ele>100</ele>
        <time>2015-04-06T07:10:44Z</time>
      </trkpt>
      <trkpt lat="49.40974" lon="1.79761">
        <ele>100</ele>
        <time>2015-04-06T07:10:46Z</time>
      </trkpt>
      <trkpt lat="49.40976" lon="1.7977">
        <ele>101</ele>
        <time>2015-04-06T07:10:48Z</time>
      </trkpt>
      <trkpt lat="49.40982" lon="1.79795">
        <ele>102</ele>
        <time>2015-04-06T07:10:55Z</time>
      </trkpt>
      <trkpt lat="49.40984" lon="1.79803">
        <ele>102</ele>
        <time>2015-04-06T07:10:57Z</time>
      </trkpt>
      <trkpt lat="49.40986" lon="1.79814">
        <ele>102</ele>
        <time>2015-04-06T07:11:00Z</time>
      </trkpt>
      <trkpt lat="49.40989" lon="1.79821">
        <ele>102</ele>
        <time>2015-04-06T07:11:02Z</time>
      </trkpt>
      <trkpt lat="49.41" lon="1.79884">
        <ele>99</ele>
        <time>2015-04-06T07:11:19Z</time>
      </trkpt>
      <trkpt lat="49.41001" lon="1.79892">
        <ele>99</ele>
        <time>2015-04-06T07:11:21Z</time>
      </trkpt>
      <trkpt lat="49.41002" lon="1.79899">
        <ele>97</ele>
        <time>2015-04-06T07:11:23Z</time>
      </trkpt>
      <trkpt lat="49.41001" lon="1.79906">
        <ele>96</ele>
        <time>2015-04-06T07:11:25Z</time>
      </trkpt>
      <trkpt lat="49.41" lon="1.7992">
        <ele>96</ele>
        <time>2015-04-06T07:11:29Z</time>
      </trkpt>
      <trkpt lat="49.40992" lon="1.79958">
        <ele>97</ele>
        <time>2015-04-06T07:11:40Z</time>
      </trkpt>
      <trkpt lat="49.40988" lon="1.79967">
        <ele>97</ele>
        <time>2015-04-06T07:11:43Z</time>
      </trkpt>
      <trkpt lat="49.40983" lon="1.79979">
        <ele>98</ele>
        <time>2015-04-06T07:11:47Z</time>
      </trkpt>
      <trkpt lat="49.40979" lon="1.79987">
        <ele>98</ele>
        <time>2015-04-06T07:11:50Z</time>
      </trkpt>
      <trkpt lat="49.40973" lon="1.79997">
        <ele>99</ele>
        <time>2015-04-06T07:11:54Z</time>
      </trkpt>
      <trkpt lat="49.40964" lon="1.80012">
        <ele>99</ele>
        <time>2015-04-06T07:12:00Z</time>
      </trkpt>
      <trkpt lat="49.40959" lon="1.80018">
        <ele>99</ele>
        <time>2015-04-06T07:12:03Z</time>
      </trkpt>
      <trkpt lat="49.40933" lon="1.80048">
        <ele>99</ele>
        <time>2015-04-06T07:12:17Z</time>
      </trkpt>
      <trkpt lat="49.40928" lon="1.80054">
        <ele>100</ele>
        <time>2015-04-06T07:12:20Z</time>
      </trkpt>
      <trkpt lat="49.40923" lon="1.80061">
        <ele>99</ele>
        <time>2015-04-06T07:12:23Z</time>
      </trkpt>
      <trkpt lat="49.40918" lon="1.80068">
        <ele>100</ele>
        <time>2015-04-06T07:12:26Z</time>
      </trkpt>
      <trkpt lat="49.40912" lon="1.80075">
        <ele>100</ele>
        <time>2015-04-06T07:12:30Z</time>
      </trkpt>
      <trkpt lat="49.40899" lon="1.80095">
        <ele>101</ele>
        <time>2015-04-06T07:12:40Z</time>
      </trkpt>
      <trkpt lat="49.40895" lon="1.801">
        <ele>101</ele>
        <time>2015-04-06T07:12:43Z</time>
      </trkpt>
      <trkpt lat="49.40891" lon="1.80105">
        <ele>102</ele>
        <time>2015-04-06T07:12:46Z</time>
      </trkpt>
      <trkpt lat="49.40886" lon="1.80115">
        <ele>103</ele>
        <time>2015-04-06T07:12:51Z</time>
      </trkpt>
      <trkpt lat="49.40883" lon="1.80121">
        <ele>103</ele>
        <time>2015-04-06T07:12:54Z</time>
      </trkpt>
      <trkpt lat="49.4088" lon="1.80131">
        <ele>103</ele>
        <time>2015-04-06T07:12:58Z</time>
      </trkpt>
      <trkpt lat="49.40877" lon="1.80143">
        <ele>103</ele>
        <time>2015-04-06T07:13:02Z</time>
      </trkpt>
      <trkpt lat="49.40874" lon="1.80159">
        <ele>103</ele>
        <time>2015-04-06T07:13:07Z</time>
      </trkpt>
      <trkpt lat="49.40872" lon="1.80173">
        <ele>103</ele>
        <time>2015-04-06T07:13:11Z</time>
      </trkpt>
      <trkpt lat="49.40871" lon="1.8018">
        <ele>103</ele>
        <time>2015-04-06T07:13:13Z</time>
      </trkpt>
      <trkpt lat="49.4087" lon="1.80199">
        <ele>104</ele>
        <time>2015-04-06T07:13:19Z</time>
      </trkpt>
      <trkpt lat="49.4087" lon="1.80212">
        <ele>104</ele>
        <time>2015-04-06T07:13:23Z</time>
      </trkpt>
      <trkpt lat="49.40869" lon="1.80222">
        <ele>104</ele>
        <time>2015-04-06T07:13:26Z</time>
      </trkpt>
      <trkpt lat="49.40868" lon="1.80233">
        <ele>104</ele>
        <time>2015-04-06T07:13:29Z</time>
      </trkpt>
      <trkpt lat="49.40867" lon="1.8024">
        <ele>104</ele>
        <time>2015-04-06T07:13:31Z</time>
      </trkpt>
      <trkpt lat="49.40862" lon="1.80272">
        <ele>105</ele>
        <time>2015-04-06T07:13:41Z</time>
      </trkpt>
      <trkpt lat="49.40859" lon="1.80285">
        <ele>105</ele>
        <time>2015-04-06T07:13:45Z</time>
      </trkpt>
      <trkpt lat="49.40857" lon="1.80296">
        <ele>106</ele>
        <time>2015-04-06T07:13:48Z</time>
      </trkpt>
      <trkpt lat="49.40854" lon="1.80306">
        <ele>106</ele>
        <time>2015-04-06T07:13:51Z</time>
      </trkpt>
      <trkpt lat="49.4085" lon="1.80318">
        <ele>106</ele>
        <time>2015-04-06T07:13:55Z</time>
      </trkpt>
      <trkpt lat="49.40846" lon="1.80329">
        <ele>106</ele>
        <time>2015-04-06T07:13:59Z</time>
      </trkpt>
      <trkpt lat="49.40842" lon="1.80339">
        <ele>106</ele>
        <time>2015-04-06T07:14:02Z</time>
      </trkpt>
      <trkpt lat="49.40842" lon="1.80349">
        <ele>106</ele>
        <time>2015-04-06T07:14:04Z</time>
      </trkpt>
      <trkpt lat="49.40839" lon="1.8036">
        <ele>107</ele>
        <time>2015-04-06T07:14:07Z</time>
      </trkpt>
      <trkpt lat="49.40834" lon="1.8037">
        <ele>106</ele>
        <time>2015-04-06T07:14:10Z</time>
      </trkpt>
      <trkpt lat="49.4082" lon="1.80391">
        <ele>106</ele>
        <time>2015-04-06T07:14:19Z</time>
      </trkpt>
      <trkpt lat="49.40814" lon="1.80397">
        <ele>106</ele>
        <time>2015-04-06T07:14:22Z</time>
      </trkpt>
      <trkpt lat="49.40811" lon="1.80403">
        <ele>106</ele>
        <time>2015-04-06T07:14:24Z</time>
      </trkpt>
      <trkpt lat="49.40805" lon="1.80415">
        <ele>107</ele>
        <time>2015-04-06T07:14:28Z</time>
      </trkpt>
      <trkpt lat="49.4079" lon="1.80447">
        <ele>108</ele>
        <time>2015-04-06T07:14:38Z</time>
      </trkpt>
      <trkpt lat="49.40784" lon="1.80458">
        <ele>109</ele>
        <time>2015-04-06T07:14:41Z</time>
      </trkpt>
      <trkpt lat="49.40782" lon="1.80464">
        <ele>110</ele>
        <time>2015-04-06T07:14:43Z</time>
      </trkpt>
      <trkpt lat="49.40778" lon="1.80471">
        <ele>110</ele>
        <time>2015-04-06T07:14:46Z</time>
      </trkpt>
      <trkpt lat="49.40773" lon="1.80477">
        <ele>110</ele>
        <time>2015-04-06T07:14:49Z</time>
      </trkpt>
      <trkpt lat="49.40766" lon="1.80482">
        <ele>110</ele>
        <time>2015-04-06T07:14:52Z</time>
      </trkpt>
      <trkpt lat="49.40763" lon="1.80487">
        <ele>110</ele>
        <time>2015-04-06T07:14:54Z</time>
      </trkpt>
      <trkpt lat="49.40756" lon="1.80494">
        <ele>111</ele>
        <time>2015-04-06T07:14:58Z</time>
      </trkpt>
      <trkpt lat="49.40749" lon="1.80501">
        <ele>111</ele>
        <time>2015-04-06T07:15:02Z</time>
      </trkpt>
      <trkpt lat="49.40746" lon="1.80505">
        <ele>111</ele>
        <time>2015-04-06T07:15:04Z</time>
      </trkpt>
      <trkpt lat="49.40743" lon="1.8051">
        <ele>111</ele>
        <time>2015-04-06T07:15:06Z</time>
      </trkpt>
      <trkpt lat="49.40719" lon="1.80545">
        <ele>114</ele>
        <time>2015-04-06T07:15:20Z</time>
      </trkpt>
      <trkpt lat="49.4071" lon="1.80556">
        <ele>114</ele>
        <time>2015-04-06T07:15:25Z</time>
      </trkpt>
      <trkpt lat="49.40706" lon="1.80564">
        <ele>114</ele>
        <time>2015-04-06T07:15:28Z</time>
      </trkpt>
      <trkpt lat="49.40699" lon="1.80576">
        <ele>115</ele>
        <time>2015-04-06T07:15:33Z</time>
      </trkpt>
      <trkpt lat="49.40683" lon="1.80599">
        <ele>115</ele>
        <time>2015-04-06T07:15:42Z</time>
      </trkpt>
      <trkpt lat="49.40678" lon="1.80609">
        <ele>116</ele>
        <time>2015-04-06T07:15:46Z</time>
      </trkpt>
      <trkpt lat="49.40675" lon="1.80617">
        <ele>116</ele>
        <time>2015-04-06T07:15:49Z</time>
      </trkpt>
      <trkpt lat="49.40674" lon="1.80627">
        <ele>115</ele>
        <time>2015-04-06T07:16:09Z</time>
      </trkpt>
      <trkpt lat="49.4067" lon="1.80632">
        <ele>115</ele>
        <time>2015-04-06T07:16:11Z</time>
      </trkpt>
      <trkpt lat="49.40662" lon="1.80636">
        <ele>116</ele>
        <time>2015-04-06T07:16:14Z</time>
      </trkpt>
      <trkpt lat="49.40658" lon="1.80639">
        <ele>116</ele>
        <time>2015-04-06T07:16:19Z</time>
      </trkpt>
      <trkpt lat="49.40656" lon="1.80648">
        <ele>118</ele>
        <time>2015-04-06T07:16:42Z</time>
      </trkpt>
      <trkpt lat="49.40652" lon="1.80656">
        <ele>118</ele>
        <time>2015-04-06T07:16:44Z</time>
      </trkpt>
      <trkpt lat="49.40646" lon="1.80667">
        <ele>118</ele>
        <time>2015-04-06T07:16:47Z</time>
      </trkpt>
      <trkpt lat="49.40643" lon="1.80675">
        <ele>119</ele>
        <time>2015-04-06T07:16:49Z</time>
      </trkpt>
      <trkpt lat="49.40638" lon="1.80682">
        <ele>119</ele>
        <time>2015-04-06T07:16:51Z</time>
      </trkpt>
      <trkpt lat="49.40633" lon="1.80695">
        <ele>119</ele>
        <time>2015-04-06T07:16:54Z</time>
      </trkpt>
      <trkpt lat="49.40629" lon="1.80703">
        <ele>119</ele>
        <time>2015-04-06T07:16:56Z</time>
      </trkpt>
      <trkpt lat="49.40622" lon="1.80721">
        <ele>118</ele>
        <time>2015-04-06T07:17:00Z</time>
      </trkpt>
      <trkpt lat="49.40617" lon="1.80733">
        <ele>118</ele>
        <time>2015-04-06T07:17:03Z</time>
      </trkpt>
      <trkpt lat="49.40615" lon="1.80742">
        <ele>117</ele>
        <time>2015-04-06T07:17:05Z</time>
      </trkpt>
      <trkpt lat="49.40606" lon="1.80776">
        <ele>119</ele>
        <time>2015-04-06T07:17:16Z</time>
      </trkpt>
      <trkpt lat="49.40601" lon="1.80798">
        <ele>121</ele>
        <time>2015-04-06T07:17:22Z</time>
      </trkpt>
      <trkpt lat="49.40598" lon="1.80807">
        <ele>121</ele>
        <time>2015-04-06T07:17:24Z</time>
      </trkpt>
      <trkpt lat="49.40594" lon="1.80826">
        <ele>122</ele>
        <time>2015-04-06T07:17:28Z</time>
      </trkpt>
      <trkpt lat="49.40591" lon="1.80835">
        <ele>123</ele>
        <time>2015-04-06T07:17:30Z</time>
      </trkpt>
      <trkpt lat="49.40585" lon="1.80889">
        <ele>127</ele>
        <time>2015-04-06T07:17:42Z</time>
      </trkpt>
      <trkpt lat="49.40585" lon="1.80897">
        <ele>128</ele>
        <time>2015-04-06T07:17:44Z</time>
      </trkpt>
      <trkpt lat="49.40587" lon="1.80931">
        <ele>131</ele>
        <time>2015-04-06T07:17:52Z</time>
      </trkpt>
      <trkpt lat="49.40587" lon="1.80955">
        <ele>134</ele>
        <time>2015-04-06T07:17:58Z</time>
      </trkpt>
      <trkpt lat="49.40588" lon="1.80968">
        <ele>134</ele>
        <time>2015-04-06T07:18:01Z</time>
      </trkpt>
      <trkpt lat="49.4059" lon="1.8098">
        <ele>135</ele>
        <time>2015-04-06T07:18:04Z</time>
      </trkpt>
      <trkpt lat="49.40593" lon="1.80997">
        <ele>136</ele>
        <time>2015-04-06T07:18:08Z</time>
      </trkpt>
      <trkpt lat="49.40595" lon="1.81006">
        <ele>136</ele>
        <time>2015-04-06T07:18:10Z</time>
      </trkpt>
      <trkpt lat="49.40597" lon="1.81015">
        <ele>136</ele>
        <time>2015-04-06T07:18:12Z</time>
      </trkpt>
      <trkpt lat="49.40599" lon="1.81024">
        <ele>137</ele>
        <time>2015-04-06T07:18:14Z</time>
      </trkpt>
      <trkpt lat="49.40608" lon="1.81063">
        <ele>136</ele>
        <time>2015-04-06T07:18:22Z</time>
      </trkpt>
      <trkpt lat="49.40609" lon="1.81071">
        <ele>136</ele>
        <time>2015-04-06T07:18:24Z</time>
      </trkpt>
      <trkpt lat="49.40611" lon="1.81083">
        <ele>135</ele>
        <time>2015-04-06T07:18:27Z</time>
      </trkpt>
      <trkpt lat="49.40612" lon="1.81091">
        <ele>135</ele>
        <time>2015-04-06T07:18:29Z</time>
      </trkpt>
      <trkpt lat="49.40593" lon="1.81116">
        <ele>134</ele>
        <time>2015-04-06T07:18:42Z</time>
      </trkpt>
      <trkpt lat="49.40588" lon="1.81118">
        <ele>134</ele>
        <time>2015-04-06T07:18:44Z</time>
      </trkpt>
      <trkpt lat="49.40561" lon="1.8114">
        <ele>132</ele>
        <time>2015-04-06T07:18:58Z</time>
      </trkpt>
      <trkpt lat="49.40555" lon="1.81147">
        <ele>133</ele>
        <time>2015-04-06T07:19:02Z</time>
      </trkpt>
      <trkpt lat="49.40551" lon="1.81153">
        <ele>134</ele>
        <time>2015-04-06T07:19:05Z</time>
      </trkpt>
      <trkpt lat="49.4054" lon="1.81168">
        <ele>135</ele>
        <time>2015-04-06T07:19:13Z</time>
      </trkpt>
      <trkpt lat="49.40525" lon="1.81183">
        <ele>136</ele>
        <time>2015-04-06T07:19:21Z</time>
      </trkpt>
      <trkpt lat="49.40522" lon="1.81188">
        <ele>137</ele>
        <time>2015-04-06T07:19:24Z</time>
      </trkpt>
      <trkpt lat="49.40518" lon="1.81199">
        <ele>138</ele>
        <time>2015-04-06T07:19:29Z</time>
      </trkpt>
      <trkpt lat="49.40507" lon="1.81223">
        <ele>140</ele>
        <time>2015-04-06T07:19:41Z</time>
      </trkpt>
      <trkpt lat="49.40493" lon="1.81271">
        <ele>145</ele>
        <time>2015-04-06T07:19:59Z</time>
      </trkpt>
      <trkpt lat="49.40489" lon="1.81279">
        <ele>146</ele>
        <time>2015-04-06T07:20:04Z</time>
      </trkpt>
      <trkpt lat="49.40486" lon="1.81289">
        <ele>147</ele>
        <time>2015-04-06T07:20:09Z</time>
      </trkpt>
      <trkpt lat="49.40485" lon="1.813">
        <ele>149</ele>
        <time>2015-04-06T07:20:14Z</time>
      </trkpt>
      <trkpt lat="49.40484" lon="1.81308">
        <ele>149</ele>
        <time>2015-04-06T07:20:17Z</time>
      </trkpt>
      <trkpt lat="49.4048" lon="1.81319">
        <ele>150</ele>
        <time>2015-04-06T07:20:21Z</time>
      </trkpt>
      <trkpt lat="49.4048" lon="1.81326">
        <ele>150</ele>
        <time>2015-04-06T07:20:24Z</time>
      </trkpt>
      <trkpt lat="49.40477" lon="1.81336">
        <ele>151</ele>
        <time>2015-04-06T07:20:29Z</time>
      </trkpt>
      <trkpt lat="49.40476" lon="1.81349">
        <ele>152</ele>
        <time>2015-04-06T07:20:34Z</time>
      </trkpt>
      <trkpt lat="49.40474" lon="1.81356">
        <ele>152</ele>
        <time>2015-04-06T07:20:37Z</time>
      </trkpt>
      <trkpt lat="49.40472" lon="1.81365">
        <ele>153</ele>
        <time>2015-04-06T07:20:40Z</time>
      </trkpt>
      <trkpt lat="49.40469" lon="1.81371">
        <ele>153</ele>
        <time>2015-04-06T07:20:43Z</time>
      </trkpt>
      <trkpt lat="49.40467" lon="1.81378">
        <ele>153</ele>
        <time>2015-04-06T07:20:46Z</time>
      </trkpt>
      <trkpt lat="49.40461" lon="1.81405">
        <ele>154</ele>
        <time>2015-04-06T07:20:54Z</time>
      </trkpt>
      <trkpt lat="49.40455" lon="1.81417">
        <ele>154</ele>
        <time>2015-04-06T07:20:59Z</time>
      </trkpt>
      <trkpt lat="49.4045" lon="1.81429">
        <ele>154</ele>
        <time>2015-04-06T07:21:04Z</time>
      </trkpt>
      <trkpt lat="49.40443" lon="1.81443">
        <ele>154</ele>
        <time>2015-04-06T07:21:10Z</time>
      </trkpt>
      <trkpt lat="49.40439" lon="1.81452">
        <ele>154</ele>
        <time>2015-04-06T07:21:14Z</time>
      </trkpt>
      <trkpt lat="49.40437" lon="1.81461">
        <ele>154</ele>
        <time>2015-04-06T07:21:17Z</time>
      </trkpt>
      <trkpt lat="49.40434" lon="1.81476">
        <ele>153</ele>
        <time>2015-04-06T07:21:22Z</time>
      </trkpt>
      <trkpt lat="49.40432" lon="1.81485">
        <ele>153</ele>
        <time>2015-04-06T07:21:25Z</time>
      </trkpt>
      <trkpt lat="49.40431" lon="1.81494">
        <ele>153</ele>
        <time>2015-04-06T07:21:28Z</time>
      </trkpt>
      <trkpt lat="49.40428" lon="1.81523">
        <ele>156</ele>
        <time>2015-04-06T07:21:40Z</time>
      </trkpt>
      <trkpt lat="49.40429" lon="1.81534">
        <ele>156</ele>
        <time>2015-04-06T07:21:43Z</time>
      </trkpt>
      <trkpt lat="49.40424" lon="1.81569">
        <ele>161</ele>
        <time>2015-04-06T07:21:56Z</time>
      </trkpt>
      <trkpt lat="49.40426" lon="1.81583">
        <ele>162</ele>
        <time>2015-04-06T07:22:00Z</time>
      </trkpt>
      <trkpt lat="49.40426" lon="1.81594">
        <ele>165</ele>
        <time>2015-04-06T07:22:04Z</time>
      </trkpt>
      <trkpt lat="49.40423" lon="1.8161">
        <ele>167</ele>
        <time>2015-04-06T07:22:09Z</time>
      </trkpt>
      <trkpt lat="49.40419" lon="1.81626">
        <ele>166</ele>
        <time>2015-04-06T07:22:22Z</time>
      </trkpt>
      <trkpt lat="49.40416" lon="1.81639">
        <ele>162</ele>
        <time>2015-04-06T07:22:45Z</time>
      </trkpt>
      <trkpt lat="49.40385" lon="1.8158">
        <ele>155</ele>
        <time>2015-04-06T07:26:34Z</time>
      </trkpt>
      <trkpt lat="49.40378" lon="1.81565">
        <ele>155</ele>
        <time>2015-04-06T07:26:37Z</time>
      </trkpt>
      <trkpt lat="49.40373" lon="1.81556">
        <ele>154</ele>
        <time>2015-04-06T07:26:39Z</time>
      </trkpt>
      <trkpt lat="49.40366" lon="1.81548">
        <ele>154</ele>
        <time>2015-04-06T07:26:41Z</time>
      </trkpt>
      <trkpt lat="49.40361" lon="1.81539">
        <ele>154</ele>
        <time>2015-04-06T07:26:43Z</time>
      </trkpt>
      <trkpt lat="49.40355" lon="1.81531">
        <ele>154</ele>
        <time>2015-04-06T07:26:45Z</time>
      </trkpt>
      <trkpt lat="49.4035" lon="1.81522">
        <ele>155</ele>
        <time>2015-04-06T07:26:47Z</time>
      </trkpt>
      <trkpt lat="49.40345" lon="1.81515">
        <ele>155</ele>
        <time>2015-04-06T07:26:49Z</time>
      </trkpt>
      <trkpt lat="49.40339" lon="1.81506">
        <ele>155</ele>
        <time>2015-04-06T07:26:51Z</time>
      </trkpt>
      <trkpt lat="49.40331" lon="1.81494">
        <ele>155</ele>
        <time>2015-04-06T07:26:54Z</time>
      </trkpt>
      <trkpt lat="49.40327" lon="1.81487">
        <ele>155</ele>
        <time>2015-04-06T07:26:56Z</time>
      </trkpt>
      <trkpt lat="49.40321" lon="1.81479">
        <ele>155</ele>
        <time>2015-04-06T07:26:58Z</time>
      </trkpt>
      <trkpt lat="49.40314" lon="1.81468">
        <ele>156</ele>
        <time>2015-04-06T07:27:01Z</time>
      </trkpt>
      <trkpt lat="49.40307" lon="1.81457">
        <ele>156</ele>
        <time>2015-04-06T07:27:04Z</time>
      </trkpt>
      <trkpt lat="49.40298" lon="1.81443">
        <ele>156</ele>
        <time>2015-04-06T07:27:08Z</time>
      </trkpt>
      <trkpt lat="49.40293" lon="1.81436">
        <ele>156</ele>
        <time>2015-04-06T07:27:10Z</time>
      </trkpt>
      <trkpt lat="49.40282" lon="1.81419">
        <ele>157</ele>
        <time>2015-04-06T07:27:15Z</time>
      </trkpt>
      <trkpt lat="49.40275" lon="1.81409">
        <ele>157</ele>
        <time>2015-04-06T07:27:18Z</time>
      </trkpt>
      <trkpt lat="49.40268" lon="1.81399">
        <ele>157</ele>
        <time>2015-04-06T07:27:21Z</time>
      </trkpt>
      <trkpt lat="49.40263" lon="1.81392">
        <ele>157</ele>
        <time>2015-04-06T07:27:23Z</time>
      </trkpt>
      <trkpt lat="49.40259" lon="1.81386">
        <ele>158</ele>
        <time>2015-04-06T07:27:25Z</time>
      </trkpt>
      <trkpt lat="49.40254" lon="1.81379">
        <ele>158</ele>
        <time>2015-04-06T07:27:27Z</time>
      </trkpt>
      <trkpt lat="49.40247" lon="1.81368">
        <ele>158</ele>
        <time>2015-04-06T07:27:30Z</time>
      </trkpt>
      <trkpt lat="49.40243" lon="1.81361">
        <ele>158</ele>
        <time>2015-04-06T07:27:32Z</time>
      </trkpt>
      <trkpt lat="49.40238" lon="1.81354">
        <ele>158</ele>
        <time>2015-04-06T07:27:34Z</time>
      </trkpt>
      <trkpt lat="49.40216" lon="1.81322">
        <ele>159</ele>
        <time>2015-04-06T07:27:43Z</time>
      </trkpt>
      <trkpt lat="49.40204" lon="1.81304">
        <ele>159</ele>
        <time>2015-04-06T07:27:48Z</time>
      </trkpt>
      <trkpt lat="49.40179" lon="1.81267">
        <ele>159</ele>
        <time>2015-04-06T07:27:58Z</time>
      </trkpt>
      <trkpt lat="49.40168" lon="1.81249">
        <ele>158</ele>
        <time>2015-04-06T07:28:02Z</time>
      </trkpt>
      <trkpt lat="49.40159" lon="1.81238">
        <ele>157</ele>
        <time>2015-04-06T07:28:05Z</time>
      </trkpt>
      <trkpt lat="49.40138" lon="1.81208">
        <ele>156</ele>
        <time>2015-04-06T07:28:12Z</time>
      </trkpt>
      <trkpt lat="49.40123" lon="1.81185">
        <ele>156</ele>
        <time>2015-04-06T07:28:17Z</time>
      </trkpt>
      <trkpt lat="49.40117" lon="1.81175">
        <ele>156</ele>
        <time>2015-04-06T07:28:19Z</time>
      </trkpt>
      <trkpt lat="49.40107" lon="1.81161">
        <ele>156</ele>
        <time>2015-04-06T07:28:22Z</time>
      </trkpt>
      <trkpt lat="49.40101" lon="1.81151">
        <ele>156</ele>
        <time>2015-04-06T07:28:24Z</time>
      </trkpt>
      <trkpt lat="49.40094" lon="1.81141">
        <ele>156</ele>
        <time>2015-04-06T07:28:26Z</time>
      </trkpt>
      <trkpt lat="49.40091" lon="1.81136">
        <ele>156</ele>
        <time>2015-04-06T07:28:27Z</time>
      </trkpt>
      <trkpt lat="49.40085" lon="1.81127">
        <ele>156</ele>
        <time>2015-04-06T07:28:29Z</time>
      </trkpt>
      <trkpt lat="49.40078" lon="1.81119">
        <ele>156</ele>
        <time>2015-04-06T07:28:31Z</time>
      </trkpt>
      <trkpt lat="49.4006" lon="1.81103">
        <ele>156</ele>
        <time>2015-04-06T07:28:36Z</time>
      </trkpt>
      <trkpt lat="49.40054" lon="1.81098">
        <ele>155</ele>
        <time>2015-04-06T07:28:38Z</time>
      </trkpt>
      <trkpt lat="49.4005" lon="1.81092">
        <ele>154</ele>
        <time>2015-04-06T07:28:42Z</time>
      </trkpt>
      <trkpt lat="49.40059" lon="1.81089">
        <ele>158</ele>
        <time>2015-04-06T07:29:28Z</time>
      </trkpt>
      <trkpt lat="49.40066" lon="1.81098">
        <ele>158</ele>
        <time>2015-04-06T07:29:32Z</time>
      </trkpt>
      <trkpt lat="49.4006" lon="1.81101">
        <ele>160</ele>
        <time>2015-04-06T07:29:56Z</time>
      </trkpt>
      <trkpt lat="49.40054" lon="1.81096">
        <ele>160</ele>
        <time>2015-04-06T07:29:59Z</time>
      </trkpt>
      <trkpt lat="49.40047" lon="1.81085">
        <ele>160</ele>
        <time>2015-04-06T07:30:03Z</time>
      </trkpt>
      <trkpt lat="49.40044" lon="1.8108">
        <ele>160</ele>
        <time>2015-04-06T07:30:05Z</time>
      </trkpt>
      <trkpt lat="49.40036" lon="1.81066">
        <ele>160</ele>
        <time>2015-04-06T07:30:10Z</time>
      </trkpt>
      <trkpt lat="49.40031" lon="1.81061">
        <ele>160</ele>
        <time>2015-04-06T07:30:12Z</time>
      </trkpt>
      <trkpt lat="49.40026" lon="1.81056">
        <ele>159</ele>
        <time>2015-04-06T07:30:14Z</time>
      </trkpt>
      <trkpt lat="49.40022" lon="1.81052">
        <ele>159</ele>
        <time>2015-04-06T07:30:16Z</time>
      </trkpt>
      <trkpt lat="49.40017" lon="1.81047">
        <ele>159</ele>
        <time>2015-04-06T07:30:18Z</time>
      </trkpt>
      <trkpt lat="49.40009" lon="1.81039">
        <ele>159</ele>
        <time>2015-04-06T07:30:21Z</time>
      </trkpt>
      <trkpt lat="49.40002" lon="1.81031">
        <ele>159</ele>
        <time>2015-04-06T07:30:24Z</time>
      </trkpt>
      <trkpt lat="49.39999" lon="1.81022">
        <ele>158</ele>
        <time>2015-04-06T07:30:26Z</time>
      </trkpt>
      <trkpt lat="49.39995" lon="1.81014">
        <ele>158</ele>
        <time>2015-04-06T07:30:28Z</time>
      </trkpt>
      <trkpt lat="49.39988" lon="1.81004">
        <ele>158</ele>
        <time>2015-04-06T07:30:31Z</time>
      </trkpt>
      <trkpt lat="49.39985" lon="1.80996">
        <ele>158</ele>
        <time>2015-04-06T07:30:33Z</time>
      </trkpt>
      <trkpt lat="49.3998" lon="1.8099">
        <ele>158</ele>
        <time>2015-04-06T07:30:35Z</time>
      </trkpt>
      <trkpt lat="49.39974" lon="1.80979">
        <ele>158</ele>
        <time>2015-04-06T07:30:38Z</time>
      </trkpt>
      <trkpt lat="49.39967" lon="1.80958">
        <ele>157</ele>
        <time>2015-04-06T07:30:42Z</time>
      </trkpt>
      <trkpt lat="49.39973" lon="1.8094">
        <ele>157</ele>
        <time>2015-04-06T07:30:45Z</time>
      </trkpt>
      <trkpt lat="49.39982" lon="1.80919">
        <ele>158</ele>
        <time>2015-04-06T07:30:49Z</time>
      </trkpt>
      <trkpt lat="49.39986" lon="1.80908">
        <ele>158</ele>
        <time>2015-04-06T07:30:51Z</time>
      </trkpt>
      <trkpt lat="49.39991" lon="1.80898">
        <ele>158</ele>
        <time>2015-04-06T07:30:53Z</time>
      </trkpt>
      <trkpt lat="49.39997" lon="1.80882">
        <ele>158</ele>
        <time>2015-04-06T07:30:56Z</time>
      </trkpt>
      <trkpt lat="49.40004" lon="1.80866">
        <ele>158</ele>
        <time>2015-04-06T07:30:59Z</time>
      </trkpt>
      <trkpt lat="49.40017" lon="1.80839">
        <ele>158</ele>
        <time>2015-04-06T07:31:04Z</time>
      </trkpt>
      <trkpt lat="49.40022" lon="1.80828">
        <ele>158</ele>
        <time>2015-04-06T07:31:06Z</time>
      </trkpt>
      <trkpt lat="49.40034" lon="1.80805">
        <ele>159</ele>
        <time>2015-04-06T07:31:10Z</time>
      </trkpt>
      <trkpt lat="49.40037" lon="1.808">
        <ele>159</ele>
        <time>2015-04-06T07:31:11Z</time>
      </trkpt>
      <trkpt lat="49.40043" lon="1.80789">
        <ele>159</ele>
        <time>2015-04-06T07:31:13Z</time>
      </trkpt>
      <trkpt lat="49.40051" lon="1.8078">
        <ele>160</ele>
        <time>2015-04-06T07:31:15Z</time>
      </trkpt>
      <trkpt lat="49.40063" lon="1.80763">
        <ele>160</ele>
        <time>2015-04-06T07:31:18Z</time>
      </trkpt>
      <trkpt lat="49.40069" lon="1.80749">
        <ele>161</ele>
        <time>2015-04-06T07:31:20Z</time>
      </trkpt>
      <trkpt lat="49.40077" lon="1.80737">
        <ele>160</ele>
        <time>2015-04-06T07:31:22Z</time>
      </trkpt>
      <trkpt lat="49.40081" lon="1.80731">
        <ele>160</ele>
        <time>2015-04-06T07:31:23Z</time>
      </trkpt>
      <trkpt lat="49.40089" lon="1.80718">
        <ele>159</ele>
        <time>2015-04-06T07:31:25Z</time>
      </trkpt>
      <trkpt lat="49.40093" lon="1.80711">
        <ele>159</ele>
        <time>2015-04-06T07:31:26Z</time>
      </trkpt>
      <trkpt lat="49.40101" lon="1.80698">
        <ele>158</ele>
        <time>2015-04-06T07:31:28Z</time>
      </trkpt>
      <trkpt lat="49.40109" lon="1.80684">
        <ele>158</ele>
        <time>2015-04-06T07:31:30Z</time>
      </trkpt>
      <trkpt lat="49.40123" lon="1.80661">
        <ele>157</ele>
        <time>2015-04-06T07:31:33Z</time>
      </trkpt>
      <trkpt lat="49.40141" lon="1.80631">
        <ele>155</ele>
        <time>2015-04-06T07:31:37Z</time>
      </trkpt>
      <trkpt lat="49.40151" lon="1.80615">
        <ele>155</ele>
        <time>2015-04-06T07:31:39Z</time>
      </trkpt>
      <trkpt lat="49.4016" lon="1.80599">
        <ele>154</ele>
        <time>2015-04-06T07:31:41Z</time>
      </trkpt>
      <trkpt lat="49.4017" lon="1.80583">
        <ele>153</ele>
        <time>2015-04-06T07:31:43Z</time>
      </trkpt>
      <trkpt lat="49.40183" lon="1.80561">
        <ele>153</ele>
        <time>2015-04-06T07:31:46Z</time>
      </trkpt>
      <trkpt lat="49.40192" lon="1.80548">
        <ele>152</ele>
        <time>2015-04-06T07:31:48Z</time>
      </trkpt>
      <trkpt lat="49.402" lon="1.80535">
        <ele>152</ele>
        <time>2015-04-06T07:31:50Z</time>
      </trkpt>
      <trkpt lat="49.40209" lon="1.80526">
        <ele>151</ele>
        <time>2015-04-06T07:31:52Z</time>
      </trkpt>
      <trkpt lat="49.40216" lon="1.80519">
        <ele>151</ele>
        <time>2015-04-06T07:31:54Z</time>
      </trkpt>
      <trkpt lat="49.4022" lon="1.80507">
        <ele>151</ele>
        <time>2015-04-06T07:31:57Z</time>
      </trkpt>
      <trkpt lat="49.4022" lon="1.80496">
        <ele>151</ele>
        <time>2015-04-06T07:31:59Z</time>
      </trkpt>
      <trkpt lat="49.40219" lon="1.80482">
        <ele>151</ele>
        <time>2015-04-06T07:32:01Z</time>
      </trkpt>
      <trkpt lat="49.40218" lon="1.80467">
        <ele>150</ele>
        <time>2015-04-06T07:32:03Z</time>
      </trkpt>
      <trkpt lat="49.40217" lon="1.80451">
        <ele>150</ele>
        <time>2015-04-06T07:32:05Z</time>
      </trkpt>
      <trkpt lat="49.40216" lon="1.80436">
        <ele>150</ele>
        <time>2015-04-06T07:32:07Z</time>
      </trkpt>
      <trkpt lat="49.40214" lon="1.80411">
        <ele>150</ele>
        <time>2015-04-06T07:32:10Z</time>
      </trkpt>
      <trkpt lat="49.40213" lon="1.80403">
        <ele>150</ele>
        <time>2015-04-06T07:32:11Z</time>
      </trkpt>
      <trkpt lat="49.40213" lon="1.80387">
        <ele>149</ele>
        <time>2015-04-06T07:32:13Z</time>
      </trkpt>
      <trkpt lat="49.40211" lon="1.8037">
        <ele>149</ele>
        <time>2015-04-06T07:32:15Z</time>
      </trkpt>
      <trkpt lat="49.40209" lon="1.80344">
        <ele>148</ele>
        <time>2015-04-06T07:32:18Z</time>
      </trkpt>
      <trkpt lat="49.40208" lon="1.80326">
        <ele>148</ele>
        <time>2015-04-06T07:32:20Z</time>
      </trkpt>
      <trkpt lat="49.40207" lon="1.80316">
        <ele>147</ele>
        <time>2015-04-06T07:32:21Z</time>
      </trkpt>
      <trkpt lat="49.40206" lon="1.80298">
        <ele>147</ele>
        <time>2015-04-06T07:32:23Z</time>
      </trkpt>
      <trkpt lat="49.40205" lon="1.80288">
        <ele>147</ele>
        <time>2015-04-06T07:32:24Z</time>
      </trkpt>
      <trkpt lat="49.40204" lon="1.80269">
        <ele>146</ele>
        <time>2015-04-06T07:32:26Z</time>
      </trkpt>
      <trkpt lat="49.40203" lon="1.80259">
        <ele>146</ele>
        <time>2015-04-06T07:32:27Z</time>
      </trkpt>
      <trkpt lat="49.40201" lon="1.8024">
        <ele>146</ele>
        <time>2015-04-06T07:32:29Z</time>
      </trkpt>
      <trkpt lat="49.40199" lon="1.80221">
        <ele>145</ele>
        <time>2015-04-06T07:32:31Z</time>
      </trkpt>
      <trkpt lat="49.40198" lon="1.80202">
        <ele>144</ele>
        <time>2015-04-06T07:32:33Z</time>
      </trkpt>
      <trkpt lat="49.40196" lon="1.80183">
        <ele>144</ele>
        <time>2015-04-06T07:32:35Z</time>
      </trkpt>
      <trkpt lat="49.40194" lon="1.80163">
        <ele>143</ele>
        <time>2015-04-06T07:32:37Z</time>
      </trkpt>
      <trkpt lat="49.40194" lon="1.80154">
        <ele>143</ele>
        <time>2015-04-06T07:32:38Z</time>
      </trkpt>
      <trkpt lat="49.40193" lon="1.80144">
        <ele>143</ele>
        <time>2015-04-06T07:32:39Z</time>
      </trkpt>
      <trkpt lat="49.40191" lon="1.80125">
        <ele>143</ele>
        <time>2015-04-06T07:32:41Z</time>
      </trkpt>
      <trkpt lat="49.4019" lon="1.80106">
        <ele>142</ele>
        <time>2015-04-06T07:32:43Z</time>
      </trkpt>
      <trkpt lat="49.40189" lon="1.80087">
        <ele>142</ele>
        <time>2015-04-06T07:32:45Z</time>
      </trkpt>
      <trkpt lat="49.40188" lon="1.80068">
        <ele>141</ele>
        <time>2015-04-06T07:32:47Z</time>
      </trkpt>
      <trkpt lat="49.40187" lon="1.80049">
        <ele>141</ele>
        <time>2015-04-06T07:32:49Z</time>
      </trkpt>
      <trkpt lat="49.40185" lon="1.8003">
        <ele>141</ele>
        <time>2015-04-06T07:32:51Z</time>
      </trkpt>
      <trkpt lat="49.40184" lon="1.8001">
        <ele>140</ele>
        <time>2015-04-06T07:32:53Z</time>
      </trkpt>
      <trkpt lat="49.40184" lon="1.80001">
        <ele>140</ele>
        <time>2015-04-06T07:32:54Z</time>
      </trkpt>
      <trkpt lat="49.40183" lon="1.79991">
        <ele>140</ele>
        <time>2015-04-06T07:32:55Z</time>
      </trkpt>
      <trkpt lat="49.40183" lon="1.79981">
        <ele>140</ele>
        <time>2015-04-06T07:32:56Z</time>
      </trkpt>
      <trkpt lat="49.40179" lon="1.79942">
        <ele>138</ele>
        <time>2015-04-06T07:33:00Z</time>
      </trkpt>
      <trkpt lat="49.40176" lon="1.79922">
        <ele>138</ele>
        <time>2015-04-06T07:33:02Z</time>
      </trkpt>
      <trkpt lat="49.40175" lon="1.79912">
        <ele>138</ele>
        <time>2015-04-06T07:33:03Z</time>
      </trkpt>
      <trkpt lat="49.40172" lon="1.79893">
        <ele>137</ele>
        <time>2015-04-06T07:33:05Z</time>
      </trkpt>
      <trkpt lat="49.40167" lon="1.79856">
        <ele>137</ele>
        <time>2015-04-06T07:33:09Z</time>
      </trkpt>
      <trkpt lat="49.40165" lon="1.79846">
        <ele>137</ele>
        <time>2015-04-06T07:33:10Z</time>
      </trkpt>
      <trkpt lat="49.4013" lon="1.79732">
        <ele>134</ele>
        <time>2015-04-06T07:33:23Z</time>
      </trkpt>
      <trkpt lat="49.40123" lon="1.79714">
        <ele>134</ele>
        <time>2015-04-06T07:33:25Z</time>
      </trkpt>
      <trkpt lat="49.40117" lon="1.79697">
        <ele>133</ele>
        <time>2015-04-06T07:33:27Z</time>
      </trkpt>
      <trkpt lat="49.40097" lon="1.79653">
        <ele>131</ele>
        <time>2015-04-06T07:33:32Z</time>
      </trkpt>
      <trkpt lat="49.40089" lon="1.79635">
        <ele>131</ele>
        <time>2015-04-06T07:33:34Z</time>
      </trkpt>
      <trkpt lat="49.4008" lon="1.79616">
        <ele>130</ele>
        <time>2015-04-06T07:33:36Z</time>
      </trkpt>
      <trkpt lat="49.4007" lon="1.79598">
        <ele>129</ele>
        <time>2015-04-06T07:33:38Z</time>
      </trkpt>
      <trkpt lat="49.40066" lon="1.79589">
        <ele>129</ele>
        <time>2015-04-06T07:33:39Z</time>
      </trkpt>
      <trkpt lat="49.40062" lon="1.7958">
        <ele>128</ele>
        <time>2015-04-06T07:33:40Z</time>
      </trkpt>
      <trkpt lat="49.40049" lon="1.79555">
        <ele>127</ele>
        <time>2015-04-06T07:33:43Z</time>
      </trkpt>
      <trkpt lat="49.40041" lon="1.79539">
        <ele>127</ele>
        <time>2015-04-06T07:33:45Z</time>
      </trkpt>
      <trkpt lat="49.40033" lon="1.79525">
        <ele>126</ele>
        <time>2015-04-06T07:33:47Z</time>
      </trkpt>
      <trkpt lat="49.40025" lon="1.79515">
        <ele>125</ele>
        <time>2015-04-06T07:33:49Z</time>
      </trkpt>
      <trkpt lat="49.4002" lon="1.79503">
        <ele>125</ele>
        <time>2015-04-06T07:33:51Z</time>
      </trkpt>
      <trkpt lat="49.40017" lon="1.79489">
        <ele>123</ele>
        <time>2015-04-06T07:33:53Z</time>
      </trkpt>
      <trkpt lat="49.40016" lon="1.79481">
        <ele>122</ele>
        <time>2015-04-06T07:33:54Z</time>
      </trkpt>
      <trkpt lat="49.40014" lon="1.79473">
        <ele>122</ele>
        <time>2015-04-06T07:33:55Z</time>
      </trkpt>
      <trkpt lat="49.40011" lon="1.79457">
        <ele>121</ele>
        <time>2015-04-06T07:33:57Z</time>
      </trkpt>
      <trkpt lat="49.40004" lon="1.79432">
        <ele>120</ele>
        <time>2015-04-06T07:34:00Z</time>
      </trkpt>
      <trkpt lat="49.4" lon="1.79415">
        <ele>120</ele>
        <time>2015-04-06T07:34:02Z</time>
      </trkpt>
      <trkpt lat="49.39999" lon="1.79407">
        <ele>119</ele>
        <time>2015-04-06T07:34:03Z</time>
      </trkpt>
      <trkpt lat="49.39994" lon="1.79382">
        <ele>118</ele>
        <time>2015-04-06T07:34:06Z</time>
      </trkpt>
      <trkpt lat="49.39983" lon="1.79332">
        <ele>116</ele>
        <time>2015-04-06T07:34:12Z</time>
      </trkpt>
      <trkpt lat="49.39961" lon="1.79258">
        <ele>112</ele>
        <time>2015-04-06T07:34:23Z</time>
      </trkpt>
      <trkpt lat="49.39957" lon="1.79248">
        <ele>112</ele>
        <time>2015-04-06T07:34:25Z</time>
      </trkpt>
      <trkpt lat="49.39949" lon="1.79231">
        <ele>110</ele>
        <time>2015-04-06T07:34:30Z</time>
      </trkpt>
      <trkpt lat="49.39918" lon="1.79154">
        <ele>106</ele>
        <time>2015-04-06T07:34:43Z</time>
      </trkpt>
      <trkpt lat="49.39915" lon="1.79139">
        <ele>106</ele>
        <time>2015-04-06T07:34:45Z</time>
      </trkpt>
      <trkpt lat="49.39916" lon="1.79117">
        <ele>105</ele>
        <time>2015-04-06T07:34:47Z</time>
      </trkpt>
      <trkpt lat="49.39907" lon="1.79106">
        <ele>105</ele>
        <time>2015-04-06T07:34:49Z</time>
      </trkpt>
      <trkpt lat="49.39904" lon="1.79084">
        <ele>104</ele>
        <time>2015-04-06T07:34:51Z</time>
      </trkpt>
      <trkpt lat="49.39905" lon="1.79074">
        <ele>104</ele>
        <time>2015-04-06T07:34:52Z</time>
      </trkpt>
      <trkpt lat="49.39905" lon="1.79057">
        <ele>103</ele>
        <time>2015-04-06T07:34:54Z</time>
      </trkpt>
      <trkpt lat="49.39913" lon="1.79027">
        <ele>102</ele>
        <time>2015-04-06T07:34:57Z</time>
      </trkpt>
      <trkpt lat="49.39915" lon="1.79018">
        <ele>102</ele>
        <time>2015-04-06T07:34:58Z</time>
      </trkpt>
      <trkpt lat="49.39919" lon="1.79001">
        <ele>101</ele>
        <time>2015-04-06T07:35:00Z</time>
      </trkpt>
      <trkpt lat="49.39919" lon="1.78992">
        <ele>101</ele>
        <time>2015-04-06T07:35:01Z</time>
      </trkpt>
      <trkpt lat="49.3992" lon="1.78976">
        <ele>100</ele>
        <time>2015-04-06T07:35:03Z</time>
      </trkpt>
      <trkpt lat="49.39922" lon="1.78967">
        <ele>99</ele>
        <time>2015-04-06T07:35:04Z</time>
      </trkpt>
      <trkpt lat="49.39924" lon="1.78948">
        <ele>99</ele>
        <time>2015-04-06T07:35:06Z</time>
      </trkpt>
      <trkpt lat="49.39918" lon="1.78825">
        <ele>94</ele>
        <time>2015-04-06T07:35:19Z</time>
      </trkpt>
      <trkpt lat="49.39918" lon="1.78813">
        <ele>94</ele>
        <time>2015-04-06T07:35:21Z</time>
      </trkpt>
      <trkpt lat="49.39919" lon="1.78789">
        <ele>92</ele>
        <time>2015-04-06T07:35:25Z</time>
      </trkpt>
      <trkpt lat="49.39909" lon="1.78701">
        <ele>91</ele>
        <time>2015-04-06T07:35:35Z</time>
      </trkpt>
      <trkpt lat="49.39911" lon="1.78657">
        <ele>90</ele>
        <time>2015-04-06T07:35:40Z</time>
      </trkpt>
      <trkpt lat="49.39902" lon="1.78615">
        <ele>89</ele>
        <time>2015-04-06T07:35:45Z</time>
      </trkpt>
      <trkpt lat="49.399" lon="1.78607">
        <ele>89</ele>
        <time>2015-04-06T07:35:46Z</time>
      </trkpt>
      <trkpt lat="49.3989" lon="1.78591">
        <ele>88</ele>
        <time>2015-04-06T07:35:48Z</time>
      </trkpt>
      <trkpt lat="49.39879" lon="1.78578">
        <ele>88</ele>
        <time>2015-04-06T07:35:50Z</time>
      </trkpt>
      <trkpt lat="49.39868" lon="1.78565">
        <ele>88</ele>
        <time>2015-04-06T07:35:53Z</time>
      </trkpt>
      <trkpt lat="49.39862" lon="1.78555">
        <ele>88</ele>
        <time>2015-04-06T07:35:55Z</time>
      </trkpt>
      <trkpt lat="49.39856" lon="1.78544">
        <ele>88</ele>
        <time>2015-04-06T07:35:57Z</time>
      </trkpt>
      <trkpt lat="49.39852" lon="1.78531">
        <ele>88</ele>
        <time>2015-04-06T07:35:59Z</time>
      </trkpt>
      <trkpt lat="49.39846" lon="1.78518">
        <ele>87</ele>
        <time>2015-04-06T07:36:01Z</time>
      </trkpt>
      <trkpt lat="49.39842" lon="1.78512">
        <ele>87</ele>
        <time>2015-04-06T07:36:02Z</time>
      </trkpt>
      <trkpt lat="49.39832" lon="1.785">
        <ele>87</ele>
        <time>2015-04-06T07:36:04Z</time>
      </trkpt>
      <trkpt lat="49.39756" lon="1.78468">
        <ele>83</ele>
        <time>2015-04-06T07:36:18Z</time>
      </trkpt>
      <trkpt lat="49.3973" lon="1.78449">
        <ele>82</ele>
        <time>2015-04-06T07:36:23Z</time>
      </trkpt>
      <trkpt lat="49.39718" lon="1.78445">
        <ele>81</ele>
        <time>2015-04-06T07:36:25Z</time>
      </trkpt>
      <trkpt lat="49.39708" lon="1.7844">
        <ele>81</ele>
        <time>2015-04-06T07:36:27Z</time>
      </trkpt>
      <trkpt lat="49.39679" lon="1.78375">
        <ele>79</ele>
        <time>2015-04-06T07:36:41Z</time>
      </trkpt>
      <trkpt lat="49.39679" lon="1.78358">
        <ele>79</ele>
        <time>2015-04-06T07:36:43Z</time>
      </trkpt>
      <trkpt lat="49.39678" lon="1.78341">
        <ele>78</ele>
        <time>2015-04-06T07:36:45Z</time>
      </trkpt>
      <trkpt lat="49.39678" lon="1.78323">
        <ele>78</ele>
        <time>2015-04-06T07:36:47Z</time>
      </trkpt>
      <trkpt lat="49.39676" lon="1.78305">
        <ele>77</ele>
        <time>2015-04-06T07:36:49Z</time>
      </trkpt>
      <trkpt lat="49.39676" lon="1.78286">
        <ele>77</ele>
        <time>2015-04-06T07:36:51Z</time>
      </trkpt>
      <trkpt lat="49.3968" lon="1.78266">
        <ele>76</ele>
        <time>2015-04-06T07:36:53Z</time>
      </trkpt>
      <trkpt lat="49.39683" lon="1.78256">
        <ele>76</ele>
        <time>2015-04-06T07:36:54Z</time>
      </trkpt>
      <trkpt lat="49.39689" lon="1.78226">
        <ele>75</ele>
        <time>2015-04-06T07:36:57Z</time>
      </trkpt>
      <trkpt lat="49.39696" lon="1.78199">
        <ele>74</ele>
        <time>2015-04-06T07:37:00Z</time>
      </trkpt>
      <trkpt lat="49.397" lon="1.78176">
        <ele>73</ele>
        <time>2015-04-06T07:37:03Z</time>
      </trkpt>
      <trkpt lat="49.397" lon="1.78166">
        <ele>73</ele>
        <time>2015-04-06T07:37:05Z</time>
      </trkpt>
      <trkpt lat="49.39705" lon="1.78144">
        <ele>72</ele>
        <time>2015-04-06T07:37:08Z</time>
      </trkpt>
      <trkpt lat="49.3971" lon="1.78109">
        <ele>70</ele>
        <time>2015-04-06T07:37:12Z</time>
      </trkpt>
      <trkpt lat="49.39707" lon="1.78087">
        <ele>69</ele>
        <time>2015-04-06T07:37:15Z</time>
      </trkpt>
      <trkpt lat="49.39698" lon="1.78057">
        <ele>69</ele>
        <time>2015-04-06T07:37:22Z</time>
      </trkpt>
      <trkpt lat="49.39693" lon="1.78046">
        <ele>69</ele>
        <time>2015-04-06T07:37:25Z</time>
      </trkpt>
      <trkpt lat="49.3969" lon="1.78038">
        <ele>68</ele>
        <time>2015-04-06T07:37:27Z</time>
      </trkpt>
      <trkpt lat="49.39643" lon="1.77959">
        <ele>64</ele>
        <time>2015-04-06T07:37:43Z</time>
      </trkpt>
      <trkpt lat="49.39636" lon="1.77948">
        <ele>64</ele>
        <time>2015-04-06T07:37:45Z</time>
      </trkpt>
      <trkpt lat="49.39623" lon="1.77926">
        <ele>63</ele>
        <time>2015-04-06T07:37:49Z</time>
      </trkpt>
      <trkpt lat="49.39616" lon="1.77916">
        <ele>63</ele>
        <time>2015-04-06T07:37:51Z</time>
      </trkpt>
      <trkpt lat="49.39583" lon="1.77861">
        <ele>61</ele>
        <time>2015-04-06T07:38:00Z</time>
      </trkpt>
      <trkpt lat="49.39575" lon="1.77847">
        <ele>61</ele>
        <time>2015-04-06T07:38:02Z</time>
      </trkpt>
      <trkpt lat="49.3957" lon="1.77841">
        <ele>60</ele>
        <time>2015-04-06T07:38:03Z</time>
      </trkpt>
      <trkpt lat="49.39566" lon="1.77835">
        <ele>60</ele>
        <time>2015-04-06T07:38:04Z</time>
      </trkpt>
      <trkpt lat="49.39557" lon="1.77821">
        <ele>60</ele>
        <time>2015-04-06T07:38:06Z</time>
      </trkpt>
      <trkpt lat="49.39548" lon="1.77808">
        <ele>60</ele>
        <time>2015-04-06T07:38:08Z</time>
      </trkpt>
      <trkpt lat="49.39544" lon="1.77801">
        <ele>60</ele>
        <time>2015-04-06T07:38:09Z</time>
      </trkpt>
      <trkpt lat="49.39529" lon="1.77781">
        <ele>59</ele>
        <time>2015-04-06T07:38:12Z</time>
      </trkpt>
      <trkpt lat="49.39525" lon="1.77775">
        <ele>59</ele>
        <time>2015-04-06T07:38:13Z</time>
      </trkpt>
      <trkpt lat="49.39515" lon="1.77763">
        <ele>58</ele>
        <time>2015-04-06T07:38:15Z</time>
      </trkpt>
      <trkpt lat="49.39489" lon="1.77737">
        <ele>57</ele>
        <time>2015-04-06T07:38:20Z</time>
      </trkpt>
      <trkpt lat="49.39464" lon="1.77718">
        <ele>56</ele>
        <time>2015-04-06T07:38:25Z</time>
      </trkpt>
      <trkpt lat="49.39454" lon="1.7771">
        <ele>56</ele>
        <time>2015-04-06T07:38:27Z</time>
      </trkpt>
      <trkpt lat="49.39382" lon="1.77647">
        <ele>53</ele>
        <time>2015-04-06T07:38:42Z</time>
      </trkpt>
      <trkpt lat="49.39377" lon="1.77643">
        <ele>53</ele>
        <time>2015-04-06T07:38:43Z</time>
      </trkpt>
      <trkpt lat="49.39364" lon="1.77632">
        <ele>53</ele>
        <time>2015-04-06T07:38:46Z</time>
      </trkpt>
      <trkpt lat="49.3935" lon="1.77621">
        <ele>52</ele>
        <time>2015-04-06T07:38:49Z</time>
      </trkpt>
      <trkpt lat="49.39342" lon="1.77615">
        <ele>52</ele>
        <time>2015-04-06T07:38:51Z</time>
      </trkpt>
      <trkpt lat="49.39319" lon="1.77584">
        <ele>51</ele>
        <time>2015-04-06T07:38:58Z</time>
      </trkpt>
      <trkpt lat="49.39307" lon="1.77548">
        <ele>50</ele>
        <time>2015-04-06T07:39:04Z</time>
      </trkpt>
      <trkpt lat="49.39305" lon="1.77535">
        <ele>50</ele>
        <time>2015-04-06T07:39:06Z</time>
      </trkpt>
      <trkpt lat="49.39323" lon="1.77473">
        <ele>51</ele>
        <time>2015-04-06T07:39:15Z</time>
      </trkpt>
      <trkpt lat="49.3933" lon="1.77462">
        <ele>51</ele>
        <time>2015-04-06T07:39:17Z</time>
      </trkpt>
      <trkpt lat="49.39337" lon="1.77453">
        <ele>51</ele>
        <time>2015-04-06T07:39:19Z</time>
      </trkpt>
      <trkpt lat="49.39349" lon="1.77437">
        <ele>51</ele>
        <time>2015-04-06T07:39:23Z</time>
      </trkpt>
      <trkpt lat="49.3936" lon="1.77423">
        <ele>51</ele>
        <time>2015-04-06T07:39:26Z</time>
      </trkpt>
      <trkpt lat="49.39363" lon="1.77419">
        <ele>51</ele>
        <time>2015-04-06T07:39:27Z</time>
      </trkpt>
      <trkpt lat="49.39371" lon="1.77411">
        <ele>51</ele>
        <time>2015-04-06T07:39:29Z</time>
      </trkpt>
      <trkpt lat="49.39375" lon="1.77406">
        <ele>51</ele>
        <time>2015-04-06T07:39:30Z</time>
      </trkpt>
      <trkpt lat="49.39378" lon="1.77402">
        <ele>51</ele>
        <time>2015-04-06T07:39:31Z</time>
      </trkpt>
      <trkpt lat="49.39386" lon="1.77393">
        <ele>52</ele>
        <time>2015-04-06T07:39:33Z</time>
      </trkpt>
      <trkpt lat="49.39395" lon="1.77379">
        <ele>52</ele>
        <time>2015-04-06T07:39:36Z</time>
      </trkpt>
      <trkpt lat="49.39407" lon="1.77362">
        <ele>52</ele>
        <time>2015-04-06T07:39:40Z</time>
      </trkpt>
      <trkpt lat="49.39412" lon="1.77353">
        <ele>51</ele>
        <time>2015-04-06T07:39:42Z</time>
      </trkpt>
      <trkpt lat="49.3942" lon="1.77337">
        <ele>51</ele>
        <time>2015-04-06T07:39:46Z</time>
      </trkpt>
      <trkpt lat="49.39422" lon="1.77328">
        <ele>50</ele>
        <time>2015-04-06T07:39:48Z</time>
      </trkpt>
      <trkpt lat="49.39423" lon="1.7732">
        <ele>50</ele>
        <time>2015-04-06T07:39:50Z</time>
      </trkpt>
      <trkpt lat="49.39426" lon="1.77307">
        <ele>49</ele>
        <time>2015-04-06T07:39:54Z</time>
      </trkpt>
      <trkpt lat="49.39428" lon="1.773">
        <ele>49</ele>
        <time>2015-04-06T07:39:56Z</time>
      </trkpt>
      <trkpt lat="49.39431" lon="1.77289">
        <ele>48</ele>
        <time>2015-04-06T07:39:59Z</time>
      </trkpt>
      <trkpt lat="49.39434" lon="1.77271">
        <ele>48</ele>
        <time>2015-04-06T07:40:03Z</time>
      </trkpt>
      <trkpt lat="49.39435" lon="1.77257">
        <ele>48</ele>
        <time>2015-04-06T07:40:06Z</time>
      </trkpt>
      <trkpt lat="49.39434" lon="1.77246">
        <ele>47</ele>
        <time>2015-04-06T07:40:08Z</time>
      </trkpt>
      <trkpt lat="49.39432" lon="1.77222">
        <ele>47</ele>
        <time>2015-04-06T07:40:12Z</time>
      </trkpt>
      <trkpt lat="49.39427" lon="1.77204">
        <ele>46</ele>
        <time>2015-04-06T07:40:15Z</time>
      </trkpt>
      <trkpt lat="49.39422" lon="1.7719">
        <ele>45</ele>
        <time>2015-04-06T07:40:17Z</time>
      </trkpt>
      <trkpt lat="49.39417" lon="1.77177">
        <ele>45</ele>
        <time>2015-04-06T07:40:19Z</time>
      </trkpt>
      <trkpt lat="49.39409" lon="1.77155">
        <ele>44</ele>
        <time>2015-04-06T07:40:22Z</time>
      </trkpt>
      <trkpt lat="49.39399" lon="1.77126">
        <ele>44</ele>
        <time>2015-04-06T07:40:26Z</time>
      </trkpt>
      <trkpt lat="49.39381" lon="1.77073">
        <ele>43</ele>
        <time>2015-04-06T07:40:34Z</time>
      </trkpt>
      <trkpt lat="49.39364" lon="1.77023">
        <ele>43</ele>
        <time>2015-04-06T07:40:42Z</time>
      </trkpt>
      <trkpt lat="49.39359" lon="1.77012">
        <ele>43</ele>
        <time>2015-04-06T07:40:44Z</time>
      </trkpt>
      <trkpt lat="49.39355" lon="1.77">
        <ele>43</ele>
        <time>2015-04-06T07:40:46Z</time>
      </trkpt>
      <trkpt lat="49.39348" lon="1.76984">
        <ele>43</ele>
        <time>2015-04-06T07:40:49Z</time>
      </trkpt>
      <trkpt lat="49.39345" lon="1.76974">
        <ele>43</ele>
        <time>2015-04-06T07:40:51Z</time>
      </trkpt>
      <trkpt lat="49.39346" lon="1.76965">
        <ele>43</ele>
        <time>2015-04-06T07:40:53Z</time>
      </trkpt>
      <trkpt lat="49.39358" lon="1.76965">
        <ele>44</ele>
        <time>2015-04-06T07:40:57Z</time>
      </trkpt>
      <trkpt lat="49.39374" lon="1.76975">
        <ele>45</ele>
        <time>2015-04-06T07:41:02Z</time>
      </trkpt>
      <trkpt lat="49.39381" lon="1.7698">
        <ele>45</ele>
        <time>2015-04-06T07:41:04Z</time>
      </trkpt>
      <trkpt lat="49.39387" lon="1.76984">
        <ele>45</ele>
        <time>2015-04-06T07:41:06Z</time>
      </trkpt>
      <trkpt lat="49.39397" lon="1.76991">
        <ele>45</ele>
        <time>2015-04-06T07:41:09Z</time>
      </trkpt>
      <trkpt lat="49.39408" lon="1.76997">
        <ele>46</ele>
        <time>2015-04-06T07:41:12Z</time>
      </trkpt>
      <trkpt lat="49.39415" lon="1.77002">
        <ele>46</ele>
        <time>2015-04-06T07:41:14Z</time>
      </trkpt>
      <trkpt lat="49.39434" lon="1.77014">
        <ele>47</ele>
        <time>2015-04-06T07:41:20Z</time>
      </trkpt>
      <trkpt lat="49.39446" lon="1.77023">
        <ele>47</ele>
        <time>2015-04-06T07:41:24Z</time>
      </trkpt>
      <trkpt lat="49.39452" lon="1.77027">
        <ele>47</ele>
        <time>2015-04-06T07:41:26Z</time>
      </trkpt>
      <trkpt lat="49.39461" lon="1.77033">
        <ele>48</ele>
        <time>2015-04-06T07:41:29Z</time>
      </trkpt>
      <trkpt lat="49.39476" lon="1.77043">
        <ele>48</ele>
        <time>2015-04-06T07:41:34Z</time>
      </trkpt>
      <trkpt lat="49.39482" lon="1.77047">
        <ele>48</ele>
        <time>2015-04-06T07:41:36Z</time>
      </trkpt>
      <trkpt lat="49.39505" lon="1.77062">
        <ele>49</ele>
        <time>2015-04-06T07:41:44Z</time>
      </trkpt>
      <trkpt lat="49.3951" lon="1.77066">
        <ele>49</ele>
        <time>2015-04-06T07:41:46Z</time>
      </trkpt>
      <trkpt lat="49.39518" lon="1.77072">
        <ele>50</ele>
        <time>2015-04-06T07:41:49Z</time>
      </trkpt>
      <trkpt lat="49.39533" lon="1.77081">
        <ele>50</ele>
        <time>2015-04-06T07:41:54Z</time>
      </trkpt>
      <trkpt lat="49.39539" lon="1.77085">
        <ele>51</ele>
        <time>2015-04-06T07:41:56Z</time>
      </trkpt>
      <trkpt lat="49.39547" lon="1.77091">
        <ele>51</ele>
        <time>2015-04-06T07:41:59Z</time>
      </trkpt>
      <trkpt lat="49.39553" lon="1.77095">
        <ele>51</ele>
        <time>2015-04-06T07:42:01Z</time>
      </trkpt>
      <trkpt lat="49.39562" lon="1.77101">
        <ele>51</ele>
        <time>2015-04-06T07:42:04Z</time>
      </trkpt>
      <trkpt lat="49.39567" lon="1.77106">
        <ele>51</ele>
        <time>2015-04-06T07:42:06Z</time>
      </trkpt>
      <trkpt lat="49.39573" lon="1.7711">
        <ele>51</ele>
        <time>2015-04-06T07:42:08Z</time>
      </trkpt>
      <trkpt lat="49.39589" lon="1.77121">
        <ele>51</ele>
        <time>2015-04-06T07:42:13Z</time>
      </trkpt>
      <trkpt lat="49.39597" lon="1.77126">
        <ele>51</ele>
        <time>2015-04-06T07:42:15Z</time>
      </trkpt>
      <trkpt lat="49.39604" lon="1.7713">
        <ele>50</ele>
        <time>2015-04-06T07:42:17Z</time>
      </trkpt>
      <trkpt lat="49.39611" lon="1.77134">
        <ele>50</ele>
        <time>2015-04-06T07:42:19Z</time>
      </trkpt>
      <trkpt lat="49.39616" lon="1.77138">
        <ele>50</ele>
        <time>2015-04-06T07:42:21Z</time>
      </trkpt>
      <trkpt lat="49.39619" lon="1.77141">
        <ele>50</ele>
        <time>2015-04-06T07:42:23Z</time>
      </trkpt>
      <trkpt lat="49.39628" lon="1.77145">
        <ele>50</ele>
        <time>2015-04-06T07:42:27Z</time>
      </trkpt>
      <trkpt lat="49.3966" lon="1.77118">
        <ele>51</ele>
        <time>2015-04-06T07:42:44Z</time>
      </trkpt>
      <trkpt lat="49.39666" lon="1.77114">
        <ele>51</ele>
        <time>2015-04-06T07:42:48Z</time>
      </trkpt>
      <trkpt lat="49.3968" lon="1.77101">
        <ele>53</ele>
        <time>2015-04-06T07:43:00Z</time>
      </trkpt>
      <trkpt lat="49.39684" lon="1.77096">
        <ele>54</ele>
        <time>2015-04-06T07:43:04Z</time>
      </trkpt>
      <trkpt lat="49.39687" lon="1.77092">
        <ele>55</ele>
        <time>2015-04-06T07:43:08Z</time>
      </trkpt>
      <trkpt lat="49.39693" lon="1.77085">
        <ele>56</ele>
        <time>2015-04-06T07:43:14Z</time>
      </trkpt>
      <trkpt lat="49.39701" lon="1.77075">
        <ele>57</ele>
        <time>2015-04-06T07:43:24Z</time>
      </trkpt>
      <trkpt lat="49.39707" lon="1.77065">
        <ele>59</ele>
        <time>2015-04-06T07:43:32Z</time>
      </trkpt>
      <trkpt lat="49.3971" lon="1.77059">
        <ele>60</ele>
        <time>2015-04-06T07:43:37Z</time>
      </trkpt>
      <trkpt lat="49.39714" lon="1.77051">
        <ele>61</ele>
        <time>2015-04-06T07:43:43Z</time>
      </trkpt>
      <trkpt lat="49.39717" lon="1.77044">
        <ele>62</ele>
        <time>2015-04-06T07:43:48Z</time>
      </trkpt>
      <trkpt lat="49.39719" lon="1.77037">
        <ele>62</ele>
        <time>2015-04-06T07:43:53Z</time>
      </trkpt>
      <trkpt lat="49.39722" lon="1.7703">
        <ele>63</ele>
        <time>2015-04-06T07:43:58Z</time>
      </trkpt>
      <trkpt lat="49.39725" lon="1.77024">
        <ele>63</ele>
        <time>2015-04-06T07:44:03Z</time>
      </trkpt>
      <trkpt lat="49.39729" lon="1.77018">
        <ele>64</ele>
        <time>2015-04-06T07:44:08Z</time>
      </trkpt>
      <trkpt lat="49.39731" lon="1.77009">
        <ele>65</ele>
        <time>2015-04-06T07:44:14Z</time>
      </trkpt>
      <trkpt lat="49.39735" lon="1.76999">
        <ele>66</ele>
        <time>2015-04-06T07:44:22Z</time>
      </trkpt>
      <trkpt lat="49.39739" lon="1.76993">
        <ele>66</ele>
        <time>2015-04-06T07:44:27Z</time>
      </trkpt>
      <trkpt lat="49.39743" lon="1.76988">
        <ele>66</ele>
        <time>2015-04-06T07:44:32Z</time>
      </trkpt>
      <trkpt lat="49.39748" lon="1.76982">
        <ele>67</ele>
        <time>2015-04-06T07:44:38Z</time>
      </trkpt>
      <trkpt lat="49.39752" lon="1.76976">
        <ele>68</ele>
        <time>2015-04-06T07:44:43Z</time>
      </trkpt>
      <trkpt lat="49.39758" lon="1.76969">
        <ele>68</ele>
        <time>2015-04-06T07:44:50Z</time>
      </trkpt>
      <trkpt lat="49.39761" lon="1.76964">
        <ele>69</ele>
        <time>2015-04-06T07:44:55Z</time>
      </trkpt>
      <trkpt lat="49.3977" lon="1.76956">
        <ele>70</ele>
        <time>2015-04-06T07:45:04Z</time>
      </trkpt>
      <trkpt lat="49.39773" lon="1.76949">
        <ele>71</ele>
        <time>2015-04-06T07:45:10Z</time>
      </trkpt>
      <trkpt lat="49.39784" lon="1.76934">
        <ele>72</ele>
        <time>2015-04-06T07:45:25Z</time>
      </trkpt>
      <trkpt lat="49.3979" lon="1.76928">
        <ele>74</ele>
        <time>2015-04-06T07:45:32Z</time>
      </trkpt>
      <trkpt lat="49.39798" lon="1.76917">
        <ele>75</ele>
        <time>2015-04-06T07:45:43Z</time>
      </trkpt>
      <trkpt lat="49.39803" lon="1.76911">
        <ele>76</ele>
        <time>2015-04-06T07:45:49Z</time>
      </trkpt>
      <trkpt lat="49.39813" lon="1.769">
        <ele>78</ele>
        <time>2015-04-06T07:46:00Z</time>
      </trkpt>
      <trkpt lat="49.39818" lon="1.76893">
        <ele>79</ele>
        <time>2015-04-06T07:46:07Z</time>
      </trkpt>
      <trkpt lat="49.39822" lon="1.76888">
        <ele>80</ele>
        <time>2015-04-06T07:46:12Z</time>
      </trkpt>
      <trkpt lat="49.39831" lon="1.76877">
        <ele>81</ele>
        <time>2015-04-06T07:46:22Z</time>
      </trkpt>
      <trkpt lat="49.39835" lon="1.76873">
        <ele>82</ele>
        <time>2015-04-06T07:46:27Z</time>
      </trkpt>
      <trkpt lat="49.3984" lon="1.76868">
        <ele>83</ele>
        <time>2015-04-06T07:46:32Z</time>
      </trkpt>
      <trkpt lat="49.39848" lon="1.76862">
        <ele>84</ele>
        <time>2015-04-06T07:46:41Z</time>
      </trkpt>
      <trkpt lat="49.39856" lon="1.76856">
        <ele>88</ele>
        <time>2015-04-06T07:46:58Z</time>
      </trkpt>
      <trkpt lat="49.3986" lon="1.76851">
        <ele>91</ele>
        <time>2015-04-06T07:47:13Z</time>
      </trkpt>
      <trkpt lat="49.39871" lon="1.7684">
        <ele>96</ele>
        <time>2015-04-06T07:47:25Z</time>
      </trkpt>
      <trkpt lat="49.39875" lon="1.76835">
        <ele>98</ele>
        <time>2015-04-06T07:47:30Z</time>
      </trkpt>
      <trkpt lat="49.39883" lon="1.76823">
        <ele>102</ele>
        <time>2015-04-06T07:47:44Z</time>
      </trkpt>
      <trkpt lat="49.39887" lon="1.76818">
        <ele>104</ele>
        <time>2015-04-06T07:47:49Z</time>
      </trkpt>
      <trkpt lat="49.39895" lon="1.76808">
        <ele>108</ele>
        <time>2015-04-06T07:48:00Z</time>
      </trkpt>
      <trkpt lat="49.39901" lon="1.76801">
        <ele>110</ele>
        <time>2015-04-06T07:48:06Z</time>
      </trkpt>
      <trkpt lat="49.39905" lon="1.76795">
        <ele>112</ele>
        <time>2015-04-06T07:48:11Z</time>
      </trkpt>
      <trkpt lat="49.39909" lon="1.76791">
        <ele>113</ele>
        <time>2015-04-06T07:48:15Z</time>
      </trkpt>
      <trkpt lat="49.39914" lon="1.76785">
        <ele>115</ele>
        <time>2015-04-06T07:48:21Z</time>
      </trkpt>
      <trkpt lat="49.39917" lon="1.76781">
        <ele>116</ele>
        <time>2015-04-06T07:48:24Z</time>
      </trkpt>
      <trkpt lat="49.39922" lon="1.76774">
        <ele>117</ele>
        <time>2015-04-06T07:48:27Z</time>
      </trkpt>
      <trkpt lat="49.39927" lon="1.76768">
        <ele>118</ele>
        <time>2015-04-06T07:48:30Z</time>
      </trkpt>
      <trkpt lat="49.39933" lon="1.76756">
        <ele>123</ele>
        <time>2015-04-06T07:48:44Z</time>
      </trkpt>
      <trkpt lat="49.39945" lon="1.7674">
        <ele>128</ele>
        <time>2015-04-06T07:49:00Z</time>
      </trkpt>
      <trkpt lat="49.39949" lon="1.76735">
        <ele>129</ele>
        <time>2015-04-06T07:49:04Z</time>
      </trkpt>
      <trkpt lat="49.39951" lon="1.76728">
        <ele>130</ele>
        <time>2015-04-06T07:49:07Z</time>
      </trkpt>
      <trkpt lat="49.39959" lon="1.76717">
        <ele>132</ele>
        <time>2015-04-06T07:49:15Z</time>
      </trkpt>
      <trkpt lat="49.39969" lon="1.767">
        <ele>136</ele>
        <time>2015-04-06T07:49:25Z</time>
      </trkpt>
      <trkpt lat="49.39972" lon="1.76695">
        <ele>137</ele>
        <time>2015-04-06T07:49:29Z</time>
      </trkpt>
      <trkpt lat="49.39975" lon="1.7669">
        <ele>138</ele>
        <time>2015-04-06T07:49:32Z</time>
      </trkpt>
      <trkpt lat="49.39993" lon="1.76668">
        <ele>139</ele>
        <time>2015-04-06T07:49:42Z</time>
      </trkpt>
      <trkpt lat="49.39999" lon="1.76659">
        <ele>140</ele>
        <time>2015-04-06T07:49:47Z</time>
      </trkpt>
      <trkpt lat="49.40002" lon="1.76652">
        <ele>141</ele>
        <time>2015-04-06T07:49:51Z</time>
      </trkpt>
      <trkpt lat="49.40012" lon="1.76643">
        <ele>142</ele>
        <time>2015-04-06T07:50:00Z</time>
      </trkpt>
      <trkpt lat="49.4002" lon="1.76633">
        <ele>143</ele>
        <time>2015-04-06T07:50:05Z</time>
      </trkpt>
      <trkpt lat="49.40025" lon="1.7663">
        <ele>143</ele>
        <time>2015-04-06T07:50:07Z</time>
      </trkpt>
      <trkpt lat="49.40038" lon="1.76623">
        <ele>140</ele>
        <time>2015-04-06T07:50:14Z</time>
      </trkpt>
      <trkpt lat="49.40052" lon="1.76617">
        <ele>134</ele>
        <time>2015-04-06T07:50:22Z</time>
      </trkpt>
      <trkpt lat="49.40061" lon="1.7661">
        <ele>131</ele>
        <time>2015-04-06T07:50:27Z</time>
      </trkpt>
      <trkpt lat="49.40066" lon="1.76607">
        <ele>130</ele>
        <time>2015-04-06T07:50:30Z</time>
      </trkpt>
      <trkpt lat="49.4007" lon="1.76604">
        <ele>128</ele>
        <time>2015-04-06T07:50:33Z</time>
      </trkpt>
      <trkpt lat="49.40087" lon="1.7659">
        <ele>125</ele>
        <time>2015-04-06T07:50:44Z</time>
      </trkpt>
      <trkpt lat="49.40092" lon="1.76586">
        <ele>125</ele>
        <time>2015-04-06T07:50:47Z</time>
      </trkpt>
      <trkpt lat="49.40114" lon="1.76568">
        <ele>124</ele>
        <time>2015-04-06T07:51:00Z</time>
      </trkpt>
      <trkpt lat="49.4012" lon="1.76564">
        <ele>123</ele>
        <time>2015-04-06T07:51:04Z</time>
      </trkpt>
      <trkpt lat="49.4013" lon="1.76556">
        <ele>123</ele>
        <time>2015-04-06T07:51:10Z</time>
      </trkpt>
      <trkpt lat="49.40142" lon="1.76546">
        <ele>123</ele>
        <time>2015-04-06T07:51:17Z</time>
      </trkpt>
      <trkpt lat="49.40153" lon="1.76537">
        <ele>123</ele>
        <time>2015-04-06T07:51:23Z</time>
      </trkpt>
      <trkpt lat="49.4016" lon="1.76531">
        <ele>123</ele>
        <time>2015-04-06T07:51:27Z</time>
      </trkpt>
      <trkpt lat="49.40165" lon="1.76524">
        <ele>121</ele>
        <time>2015-04-06T07:52:20Z</time>
      </trkpt>
      <trkpt lat="49.4017" lon="1.7652">
        <ele>121</ele>
        <time>2015-04-06T07:52:25Z</time>
      </trkpt>
      <trkpt lat="49.40177" lon="1.76512">
        <ele>122</ele>
        <time>2015-04-06T07:52:30Z</time>
      </trkpt>
      <trkpt lat="49.40181" lon="1.76506">
        <ele>122</ele>
        <time>2015-04-06T07:52:33Z</time>
      </trkpt>
      <trkpt lat="49.40188" lon="1.76497">
        <ele>123</ele>
        <time>2015-04-06T07:52:37Z</time>
      </trkpt>
      <trkpt lat="49.40199" lon="1.76475">
        <ele>123</ele>
        <time>2015-04-06T07:52:45Z</time>
      </trkpt>
      <trkpt lat="49.40204" lon="1.76467">
        <ele>124</ele>
        <time>2015-04-06T07:52:48Z</time>
      </trkpt>
      <trkpt lat="49.40217" lon="1.76441">
        <ele>124</ele>
        <time>2015-04-06T07:52:58Z</time>
      </trkpt>
      <trkpt lat="49.40226" lon="1.76422">
        <ele>125</ele>
        <time>2015-04-06T07:53:05Z</time>
      </trkpt>
      <trkpt lat="49.40231" lon="1.76414">
        <ele>125</ele>
        <time>2015-04-06T07:53:08Z</time>
      </trkpt>
      <trkpt lat="49.40239" lon="1.76398">
        <ele>125</ele>
        <time>2015-04-06T07:53:14Z</time>
      </trkpt>
      <trkpt lat="49.40248" lon="1.76383">
        <ele>125</ele>
        <time>2015-04-06T07:53:20Z</time>
      </trkpt>
      <trkpt lat="49.40255" lon="1.7637">
        <ele>125</ele>
        <time>2015-04-06T07:53:25Z</time>
      </trkpt>
      <trkpt lat="49.4026" lon="1.76359">
        <ele>125</ele>
        <time>2015-04-06T07:53:29Z</time>
      </trkpt>
      <trkpt lat="49.40264" lon="1.76352">
        <ele>125</ele>
        <time>2015-04-06T07:53:32Z</time>
      </trkpt>
      <trkpt lat="49.40268" lon="1.76344">
        <ele>125</ele>
        <time>2015-04-06T07:53:35Z</time>
      </trkpt>
      <trkpt lat="49.40282" lon="1.76317">
        <ele>126</ele>
        <time>2015-04-06T07:53:45Z</time>
      </trkpt>
      <trkpt lat="49.40285" lon="1.76312">
        <ele>126</ele>
        <time>2015-04-06T07:53:47Z</time>
      </trkpt>
      <trkpt lat="49.40291" lon="1.76301">
        <ele>126</ele>
        <time>2015-04-06T07:53:51Z</time>
      </trkpt>
      <trkpt lat="49.40295" lon="1.76294">
        <ele>127</ele>
        <time>2015-04-06T07:53:54Z</time>
      </trkpt>
      <trkpt lat="49.40298" lon="1.76286">
        <ele>127</ele>
        <time>2015-04-06T07:53:57Z</time>
      </trkpt>
      <trkpt lat="49.40302" lon="1.76275">
        <ele>127</ele>
        <time>2015-04-06T07:54:01Z</time>
      </trkpt>
      <trkpt lat="49.40307" lon="1.76267">
        <ele>127</ele>
        <time>2015-04-06T07:54:04Z</time>
      </trkpt>
      <trkpt lat="49.4031" lon="1.76261">
        <ele>127</ele>
        <time>2015-04-06T07:54:06Z</time>
      </trkpt>
      <trkpt lat="49.40314" lon="1.76253">
        <ele>127</ele>
        <time>2015-04-06T07:54:09Z</time>
      </trkpt>
      <trkpt lat="49.40317" lon="1.76247">
        <ele>127</ele>
        <time>2015-04-06T07:54:11Z</time>
      </trkpt>
      <trkpt lat="49.40339" lon="1.76208">
        <ele>128</ele>
        <time>2015-04-06T07:54:25Z</time>
      </trkpt>
      <trkpt lat="49.40342" lon="1.76202">
        <ele>128</ele>
        <time>2015-04-06T07:54:27Z</time>
      </trkpt>
      <trkpt lat="49.40347" lon="1.76192">
        <ele>129</ele>
        <time>2015-04-06T07:54:30Z</time>
      </trkpt>
      <trkpt lat="49.4035" lon="1.76186">
        <ele>129</ele>
        <time>2015-04-06T07:54:32Z</time>
      </trkpt>
      <trkpt lat="49.40372" lon="1.7615">
        <ele>129</ele>
        <time>2015-04-06T07:54:44Z</time>
      </trkpt>
      <trkpt lat="49.4038" lon="1.7615">
        <ele>129</ele>
        <time>2015-04-06T07:54:48Z</time>
      </trkpt>
      <trkpt lat="49.40385" lon="1.76164">
        <ele>130</ele>
        <time>2015-04-06T07:54:52Z</time>
      </trkpt>
      <trkpt lat="49.40396" lon="1.76193">
        <ele>130</ele>
        <time>2015-04-06T07:55:00Z</time>
      </trkpt>
      <trkpt lat="49.40401" lon="1.76203">
        <ele>130</ele>
        <time>2015-04-06T07:55:03Z</time>
      </trkpt>
      <trkpt lat="49.40403" lon="1.7621">
        <ele>131</ele>
        <time>2015-04-06T07:55:05Z</time>
      </trkpt>
      <trkpt lat="49.40406" lon="1.76217">
        <ele>131</ele>
        <time>2015-04-06T07:55:07Z</time>
      </trkpt>
      <trkpt lat="49.40409" lon="1.76224">
        <ele>131</ele>
        <time>2015-04-06T07:55:09Z</time>
      </trkpt>
      <trkpt lat="49.40412" lon="1.76231">
        <ele>131</ele>
        <time>2015-04-06T07:55:11Z</time>
      </trkpt>
      <trkpt lat="49.40416" lon="1.76242">
        <ele>131</ele>
        <time>2015-04-06T07:55:14Z</time>
      </trkpt>
      <trkpt lat="49.40426" lon="1.76263">
        <ele>131</ele>
        <time>2015-04-06T07:55:20Z</time>
      </trkpt>
      <trkpt lat="49.40431" lon="1.76274">
        <ele>131</ele>
        <time>2015-04-06T07:55:23Z</time>
      </trkpt>
      <trkpt lat="49.40437" lon="1.76288">
        <ele>131</ele>
        <time>2015-04-06T07:55:27Z</time>
      </trkpt>
      <trkpt lat="49.40442" lon="1.76299">
        <ele>131</ele>
        <time>2015-04-06T07:55:30Z</time>
      </trkpt>
      <trkpt lat="49.40446" lon="1.76306">
        <ele>131</ele>
        <time>2015-04-06T07:55:32Z</time>
      </trkpt>
      <trkpt lat="49.40468" lon="1.76355">
        <ele>130</ele>
        <time>2015-04-06T07:55:44Z</time>
      </trkpt>
      <trkpt lat="49.40473" lon="1.76367">
        <ele>130</ele>
        <time>2015-04-06T07:55:47Z</time>
      </trkpt>
      <trkpt lat="49.40477" lon="1.76375">
        <ele>130</ele>
        <time>2015-04-06T07:55:49Z</time>
      </trkpt>
      <trkpt lat="49.40481" lon="1.76384">
        <ele>129</ele>
        <time>2015-04-06T07:55:51Z</time>
      </trkpt>
      <trkpt lat="49.40494" lon="1.76412">
        <ele>129</ele>
        <time>2015-04-06T07:55:58Z</time>
      </trkpt>
      <trkpt lat="49.40497" lon="1.7642">
        <ele>128</ele>
        <time>2015-04-06T07:56:00Z</time>
      </trkpt>
      <trkpt lat="49.40508" lon="1.76441">
        <ele>128</ele>
        <time>2015-04-06T07:56:06Z</time>
      </trkpt>
      <trkpt lat="49.40511" lon="1.76449">
        <ele>127</ele>
        <time>2015-04-06T07:56:08Z</time>
      </trkpt>
      <trkpt lat="49.40524" lon="1.76476">
        <ele>126</ele>
        <time>2015-04-06T07:56:14Z</time>
      </trkpt>
      <trkpt lat="49.40547" lon="1.76528">
        <ele>123</ele>
        <time>2015-04-06T07:56:25Z</time>
      </trkpt>
      <trkpt lat="49.40552" lon="1.76537">
        <ele>123</ele>
        <time>2015-04-06T07:56:27Z</time>
      </trkpt>
      <trkpt lat="49.40557" lon="1.76546">
        <ele>122</ele>
        <time>2015-04-06T07:56:29Z</time>
      </trkpt>
      <trkpt lat="49.40561" lon="1.76553">
        <ele>122</ele>
        <time>2015-04-06T07:56:31Z</time>
      </trkpt>
      <trkpt lat="49.40597" lon="1.76619">
        <ele>119</ele>
        <time>2015-04-06T07:56:44Z</time>
      </trkpt>
      <trkpt lat="49.4061" lon="1.76631">
        <ele>119</ele>
        <time>2015-04-06T07:56:47Z</time>
      </trkpt>
      <trkpt lat="49.40616" lon="1.76636">
        <ele>119</ele>
        <time>2015-04-06T07:56:49Z</time>
      </trkpt>
      <trkpt lat="49.40624" lon="1.7664">
        <ele>118</ele>
        <time>2015-04-06T07:56:51Z</time>
      </trkpt>
      <trkpt lat="49.40633" lon="1.76641">
        <ele>118</ele>
        <time>2015-04-06T07:56:53Z</time>
      </trkpt>
      <trkpt lat="49.40663" lon="1.76629">
        <ele>116</ele>
        <time>2015-04-06T07:56:59Z</time>
      </trkpt>
      <trkpt lat="49.40688" lon="1.76617">
        <ele>115</ele>
        <time>2015-04-06T07:57:06Z</time>
      </trkpt>
      <trkpt lat="49.40693" lon="1.76613">
        <ele>115</ele>
        <time>2015-04-06T07:57:08Z</time>
      </trkpt>
      <trkpt lat="49.40698" lon="1.76608">
        <ele>115</ele>
        <time>2015-04-06T07:57:10Z</time>
      </trkpt>
      <trkpt lat="49.40704" lon="1.76603">
        <ele>116</ele>
        <time>2015-04-06T07:57:12Z</time>
      </trkpt>
      <trkpt lat="49.40709" lon="1.76598">
        <ele>117</ele>
        <time>2015-04-06T07:57:14Z</time>
      </trkpt>
      <trkpt lat="49.40728" lon="1.76576">
        <ele>120</ele>
        <time>2015-04-06T07:57:23Z</time>
      </trkpt>
      <trkpt lat="49.40733" lon="1.76569">
        <ele>120</ele>
        <time>2015-04-06T07:57:25Z</time>
      </trkpt>
      <trkpt lat="49.4074" lon="1.7656">
        <ele>121</ele>
        <time>2015-04-06T07:57:28Z</time>
      </trkpt>
      <trkpt lat="49.40745" lon="1.76554">
        <ele>121</ele>
        <time>2015-04-06T07:57:30Z</time>
      </trkpt>
      <trkpt lat="49.40749" lon="1.76548">
        <ele>122</ele>
        <time>2015-04-06T07:57:32Z</time>
      </trkpt>
      <trkpt lat="49.40754" lon="1.76543">
        <ele>122</ele>
        <time>2015-04-06T07:57:34Z</time>
      </trkpt>
      <trkpt lat="49.4076" lon="1.76536">
        <ele>122</ele>
        <time>2015-04-06T07:57:37Z</time>
      </trkpt>
      <trkpt lat="49.40767" lon="1.76528">
        <ele>123</ele>
        <time>2015-04-06T07:57:40Z</time>
      </trkpt>
      <trkpt lat="49.40775" lon="1.76517">
        <ele>123</ele>
        <time>2015-04-06T07:57:44Z</time>
      </trkpt>
      <trkpt lat="49.4078" lon="1.76512">
        <ele>124</ele>
        <time>2015-04-06T07:57:46Z</time>
      </trkpt>
      <trkpt lat="49.40784" lon="1.76507">
        <ele>124</ele>
        <time>2015-04-06T07:57:48Z</time>
      </trkpt>
      <trkpt lat="49.40788" lon="1.76502">
        <ele>125</ele>
        <time>2015-04-06T07:57:50Z</time>
      </trkpt>
      <trkpt lat="49.40797" lon="1.7649">
        <ele>125</ele>
        <time>2015-04-06T07:57:55Z</time>
      </trkpt>
      <trkpt lat="49.40801" lon="1.76486">
        <ele>125</ele>
        <time>2015-04-06T07:57:57Z</time>
      </trkpt>
      <trkpt lat="49.40805" lon="1.76482">
        <ele>125</ele>
        <time>2015-04-06T07:57:59Z</time>
      </trkpt>
      <trkpt lat="49.4081" lon="1.76477">
        <ele>125</ele>
        <time>2015-04-06T07:58:01Z</time>
      </trkpt>
      <trkpt lat="49.40816" lon="1.76469">
        <ele>125</ele>
        <time>2015-04-06T07:58:04Z</time>
      </trkpt>
      <trkpt lat="49.4082" lon="1.76463">
        <ele>126</ele>
        <time>2015-04-06T07:58:06Z</time>
      </trkpt>
      <trkpt lat="49.40824" lon="1.76457">
        <ele>126</ele>
        <time>2015-04-06T07:58:08Z</time>
      </trkpt>
      <trkpt lat="49.4083" lon="1.76448">
        <ele>126</ele>
        <time>2015-04-06T07:58:11Z</time>
      </trkpt>
      <trkpt lat="49.40834" lon="1.76443">
        <ele>126</ele>
        <time>2015-04-06T07:58:13Z</time>
      </trkpt>
      <trkpt lat="49.40844" lon="1.76428">
        <ele>127</ele>
        <time>2015-04-06T07:58:18Z</time>
      </trkpt>
      <trkpt lat="49.40848" lon="1.76422">
        <ele>127</ele>
        <time>2015-04-06T07:58:20Z</time>
      </trkpt>
      <trkpt lat="49.4086" lon="1.76404">
        <ele>127</ele>
        <time>2015-04-06T07:58:26Z</time>
      </trkpt>
      <trkpt lat="49.40865" lon="1.76398">
        <ele>128</ele>
        <time>2015-04-06T07:58:28Z</time>
      </trkpt>
      <trkpt lat="49.40871" lon="1.76389">
        <ele>128</ele>
        <time>2015-04-06T07:58:31Z</time>
      </trkpt>
      <trkpt lat="49.40876" lon="1.76384">
        <ele>129</ele>
        <time>2015-04-06T07:58:33Z</time>
      </trkpt>
      <trkpt lat="49.40905" lon="1.76359">
        <ele>130</ele>
        <time>2015-04-06T07:58:46Z</time>
      </trkpt>
      <trkpt lat="49.40909" lon="1.76361">
        <ele>130</ele>
        <time>2015-04-06T07:58:48Z</time>
      </trkpt>
      <trkpt lat="49.40915" lon="1.76363">
        <ele>131</ele>
        <time>2015-04-06T07:58:51Z</time>
      </trkpt>
      <trkpt lat="49.40923" lon="1.76365">
        <ele>132</ele>
        <time>2015-04-06T07:58:55Z</time>
      </trkpt>
      <trkpt lat="49.4093" lon="1.76365">
        <ele>134</ele>
        <time>2015-04-06T07:58:59Z</time>
      </trkpt>
      <trkpt lat="49.40936" lon="1.76367">
        <ele>135</ele>
        <time>2015-04-06T07:59:03Z</time>
      </trkpt>
      <trkpt lat="49.40944" lon="1.7637">
        <ele>136</ele>
        <time>2015-04-06T07:59:08Z</time>
      </trkpt>
      <trkpt lat="49.40948" lon="1.76373">
        <ele>137</ele>
        <time>2015-04-06T07:59:11Z</time>
      </trkpt>
      <trkpt lat="49.40954" lon="1.76377">
        <ele>139</ele>
        <time>2015-04-06T07:59:16Z</time>
      </trkpt>
      <trkpt lat="49.40959" lon="1.76379">
        <ele>141</ele>
        <time>2015-04-06T07:59:19Z</time>
      </trkpt>
      <trkpt lat="49.40965" lon="1.76385">
        <ele>141</ele>
        <time>2015-04-06T07:59:21Z</time>
      </trkpt>
      <trkpt lat="49.40969" lon="1.76389">
        <ele>142</ele>
        <time>2015-04-06T07:59:23Z</time>
      </trkpt>
      <trkpt lat="49.40976" lon="1.76391">
        <ele>143</ele>
        <time>2015-04-06T07:59:27Z</time>
      </trkpt>
      <trkpt lat="49.40982" lon="1.76394">
        <ele>144</ele>
        <time>2015-04-06T07:59:30Z</time>
      </trkpt>
      <trkpt lat="49.40989" lon="1.76398">
        <ele>146</ele>
        <time>2015-04-06T07:59:34Z</time>
      </trkpt>
      <trkpt lat="49.41005" lon="1.764">
        <ele>147</ele>
        <time>2015-04-06T07:59:41Z</time>
      </trkpt>
      <trkpt lat="49.41013" lon="1.76399">
        <ele>147</ele>
        <time>2015-04-06T07:59:44Z</time>
      </trkpt>
      <trkpt lat="49.41015" lon="1.76392">
        <ele>143</ele>
        <time>2015-04-06T07:59:49Z</time>
      </trkpt>
      <trkpt lat="49.41008" lon="1.76359">
        <ele>141</ele>
        <time>2015-04-06T08:00:00Z</time>
      </trkpt>
      <trkpt lat="49.41008" lon="1.76351">
        <ele>140</ele>
        <time>2015-04-06T08:00:02Z</time>
      </trkpt>
      <trkpt lat="49.41007" lon="1.76343">
        <ele>140</ele>
        <time>2015-04-06T08:00:04Z</time>
      </trkpt>
      <trkpt lat="49.41007" lon="1.76335">
        <ele>139</ele>
        <time>2015-04-06T08:00:06Z</time>
      </trkpt>
      <trkpt lat="49.41008" lon="1.76328">
        <ele>140</ele>
        <time>2015-04-06T08:00:08Z</time>
      </trkpt>
      <trkpt lat="49.41008" lon="1.76319">
        <ele>139</ele>
        <time>2015-04-06T08:00:10Z</time>
      </trkpt>
      <trkpt lat="49.41008" lon="1.76307">
        <ele>139</ele>
        <time>2015-04-06T08:00:13Z</time>
      </trkpt>
      <trkpt lat="49.41007" lon="1.76294">
        <ele>139</ele>
        <time>2015-04-06T08:00:16Z</time>
      </trkpt>
      <trkpt lat="49.41007" lon="1.76285">
        <ele>139</ele>
        <time>2015-04-06T08:00:18Z</time>
      </trkpt>
      <trkpt lat="49.41005" lon="1.76251">
        <ele>139</ele>
        <time>2015-04-06T08:00:26Z</time>
      </trkpt>
      <trkpt lat="49.41005" lon="1.76241">
        <ele>139</ele>
        <time>2015-04-06T08:00:28Z</time>
      </trkpt>
      <trkpt lat="49.41005" lon="1.76231">
        <ele>139</ele>
        <time>2015-04-06T08:00:30Z</time>
      </trkpt>
      <trkpt lat="49.41005" lon="1.76216">
        <ele>138</ele>
        <time>2015-04-06T08:00:33Z</time>
      </trkpt>
      <trkpt lat="49.41006" lon="1.76206">
        <ele>138</ele>
        <time>2015-04-06T08:00:35Z</time>
      </trkpt>
      <trkpt lat="49.41006" lon="1.76196">
        <ele>138</ele>
        <time>2015-04-06T08:00:37Z</time>
      </trkpt>
      <trkpt lat="49.41006" lon="1.76175">
        <ele>138</ele>
        <time>2015-04-06T08:00:41Z</time>
      </trkpt>
      <trkpt lat="49.41007" lon="1.7616">
        <ele>138</ele>
        <time>2015-04-06T08:00:44Z</time>
      </trkpt>
      <trkpt lat="49.41008" lon="1.76149">
        <ele>138</ele>
        <time>2015-04-06T08:00:46Z</time>
      </trkpt>
      <trkpt lat="49.4101" lon="1.76139">
        <ele>137</ele>
        <time>2015-04-06T08:00:48Z</time>
      </trkpt>
      <trkpt lat="49.4101" lon="1.76128">
        <ele>137</ele>
        <time>2015-04-06T08:00:50Z</time>
      </trkpt>
      <trkpt lat="49.41011" lon="1.76112">
        <ele>137</ele>
        <time>2015-04-06T08:00:53Z</time>
      </trkpt>
      <trkpt lat="49.41009" lon="1.76094">
        <ele>137</ele>
        <time>2015-04-06T08:00:56Z</time>
      </trkpt>
      <trkpt lat="49.41007" lon="1.76083">
        <ele>137</ele>
        <time>2015-04-06T08:00:58Z</time>
      </trkpt>
      <trkpt lat="49.41004" lon="1.76073">
        <ele>137</ele>
        <time>2015-04-06T08:01:00Z</time>
      </trkpt>
      <trkpt lat="49.41001" lon="1.76062">
        <ele>137</ele>
        <time>2015-04-06T08:01:02Z</time>
      </trkpt>
      <trkpt lat="49.40995" lon="1.76046">
        <ele>136</ele>
        <time>2015-04-06T08:01:05Z</time>
      </trkpt>
      <trkpt lat="49.40991" lon="1.76029">
        <ele>136</ele>
        <time>2015-04-06T08:01:08Z</time>
      </trkpt>
      <trkpt lat="49.40988" lon="1.76013">
        <ele>136</ele>
        <time>2015-04-06T08:01:11Z</time>
      </trkpt>
      <trkpt lat="49.40988" lon="1.75995">
        <ele>135</ele>
        <time>2015-04-06T08:01:14Z</time>
      </trkpt>
      <trkpt lat="49.40989" lon="1.75983">
        <ele>135</ele>
        <time>2015-04-06T08:01:16Z</time>
      </trkpt>
      <trkpt lat="49.40991" lon="1.75973">
        <ele>135</ele>
        <time>2015-04-06T08:01:18Z</time>
      </trkpt>
      <trkpt lat="49.40993" lon="1.75962">
        <ele>135</ele>
        <time>2015-04-06T08:01:20Z</time>
      </trkpt>
      <trkpt lat="49.41" lon="1.75944">
        <ele>135</ele>
        <time>2015-04-06T08:01:24Z</time>
      </trkpt>
      <trkpt lat="49.41006" lon="1.7594">
        <ele>136</ele>
        <time>2015-04-06T08:01:26Z</time>
      </trkpt>
      <trkpt lat="49.41013" lon="1.75934">
        <ele>136</ele>
        <time>2015-04-06T08:01:29Z</time>
      </trkpt>
      <trkpt lat="49.41018" lon="1.7593">
        <ele>136</ele>
        <time>2015-04-06T08:01:31Z</time>
      </trkpt>
      <trkpt lat="49.41025" lon="1.75926">
        <ele>137</ele>
        <time>2015-04-06T08:01:34Z</time>
      </trkpt>
      <trkpt lat="49.41035" lon="1.75921">
        <ele>137</ele>
        <time>2015-04-06T08:01:38Z</time>
      </trkpt>
      <trkpt lat="49.41053" lon="1.75913">
        <ele>138</ele>
        <time>2015-04-06T08:01:46Z</time>
      </trkpt>
      <trkpt lat="49.41059" lon="1.75912">
        <ele>139</ele>
        <time>2015-04-06T08:01:49Z</time>
      </trkpt>
      <trkpt lat="49.41064" lon="1.7591">
        <ele>140</ele>
        <time>2015-04-06T08:01:52Z</time>
      </trkpt>
      <trkpt lat="49.4109" lon="1.75907">
        <ele>141</ele>
        <time>2015-04-06T08:02:06Z</time>
      </trkpt>
      <trkpt lat="49.41097" lon="1.7591">
        <ele>139</ele>
        <time>2015-04-06T08:02:09Z</time>
      </trkpt>
      <trkpt lat="49.41106" lon="1.75909">
        <ele>138</ele>
        <time>2015-04-06T08:02:12Z</time>
      </trkpt>
      <trkpt lat="49.41112" lon="1.75908">
        <ele>138</ele>
        <time>2015-04-06T08:02:14Z</time>
      </trkpt>
      <trkpt lat="49.4112" lon="1.75907">
        <ele>138</ele>
        <time>2015-04-06T08:02:17Z</time>
      </trkpt>
      <trkpt lat="49.41137" lon="1.75905">
        <ele>141</ele>
        <time>2015-04-06T08:02:23Z</time>
      </trkpt>
      <trkpt lat="49.41142" lon="1.75905">
        <ele>142</ele>
        <time>2015-04-06T08:02:25Z</time>
      </trkpt>
      <trkpt lat="49.41151" lon="1.75903">
        <ele>142</ele>
        <time>2015-04-06T08:02:29Z</time>
      </trkpt>
      <trkpt lat="49.41158" lon="1.75902">
        <ele>143</ele>
        <time>2015-04-06T08:02:32Z</time>
      </trkpt>
      <trkpt lat="49.41163" lon="1.75902">
        <ele>143</ele>
        <time>2015-04-06T08:02:34Z</time>
      </trkpt>
      <trkpt lat="49.41169" lon="1.75901">
        <ele>144</ele>
        <time>2015-04-06T08:02:37Z</time>
      </trkpt>
      <trkpt lat="49.41187" lon="1.75897">
        <ele>144</ele>
        <time>2015-04-06T08:02:46Z</time>
      </trkpt>
      <trkpt lat="49.41195" lon="1.75896">
        <ele>145</ele>
        <time>2015-04-06T08:02:50Z</time>
      </trkpt>
      <trkpt lat="49.412" lon="1.75896">
        <ele>145</ele>
        <time>2015-04-06T08:02:52Z</time>
      </trkpt>
      <trkpt lat="49.41213" lon="1.75896">
        <ele>146</ele>
        <time>2015-04-06T08:02:58Z</time>
      </trkpt>
      <trkpt lat="49.41233" lon="1.75895">
        <ele>148</ele>
        <time>2015-04-06T08:03:06Z</time>
      </trkpt>
      <trkpt lat="49.4124" lon="1.75895">
        <ele>148</ele>
        <time>2015-04-06T08:03:09Z</time>
      </trkpt>
      <trkpt lat="49.41248" lon="1.75894">
        <ele>149</ele>
        <time>2015-04-06T08:03:12Z</time>
      </trkpt>
      <trkpt lat="49.41256" lon="1.75895">
        <ele>149</ele>
        <time>2015-04-06T08:03:15Z</time>
      </trkpt>
      <trkpt lat="49.41262" lon="1.75897">
        <ele>149</ele>
        <time>2015-04-06T08:03:17Z</time>
      </trkpt>
      <trkpt lat="49.41268" lon="1.75899">
        <ele>149</ele>
        <time>2015-04-06T08:03:19Z</time>
      </trkpt>
      <trkpt lat="49.41274" lon="1.75901">
        <ele>149</ele>
        <time>2015-04-06T08:03:21Z</time>
      </trkpt>
      <trkpt lat="49.41289" lon="1.75907">
        <ele>150</ele>
        <time>2015-04-06T08:03:26Z</time>
      </trkpt>
      <trkpt lat="49.41298" lon="1.75909">
        <ele>150</ele>
        <time>2015-04-06T08:03:29Z</time>
      </trkpt>
      <trkpt lat="49.41306" lon="1.75913">
        <ele>150</ele>
        <time>2015-04-06T08:03:32Z</time>
      </trkpt>
      <trkpt lat="49.41312" lon="1.75916">
        <ele>150</ele>
        <time>2015-04-06T08:03:34Z</time>
      </trkpt>
      <trkpt lat="49.41318" lon="1.75919">
        <ele>150</ele>
        <time>2015-04-06T08:03:36Z</time>
      </trkpt>
      <trkpt lat="49.41349" lon="1.75933">
        <ele>150</ele>
        <time>2015-04-06T08:03:46Z</time>
      </trkpt>
      <trkpt lat="49.41356" lon="1.75936">
        <ele>150</ele>
        <time>2015-04-06T08:03:48Z</time>
      </trkpt>
      <trkpt lat="49.41394" lon="1.75953">
        <ele>151</ele>
        <time>2015-04-06T08:04:00Z</time>
      </trkpt>
      <trkpt lat="49.41408" lon="1.75961">
        <ele>150</ele>
        <time>2015-04-06T08:04:04Z</time>
      </trkpt>
      <trkpt lat="49.41422" lon="1.7597">
        <ele>150</ele>
        <time>2015-04-06T08:04:08Z</time>
      </trkpt>
      <trkpt lat="49.41435" lon="1.75983">
        <ele>149</ele>
        <time>2015-04-06T08:04:12Z</time>
      </trkpt>
      <trkpt lat="49.41441" lon="1.7599">
        <ele>149</ele>
        <time>2015-04-06T08:04:14Z</time>
      </trkpt>
      <trkpt lat="49.41453" lon="1.76007">
        <ele>149</ele>
        <time>2015-04-06T08:04:18Z</time>
      </trkpt>
      <trkpt lat="49.41482" lon="1.76042">
        <ele>147</ele>
        <time>2015-04-06T08:04:26Z</time>
      </trkpt>
      <trkpt lat="49.41495" lon="1.76055">
        <ele>146</ele>
        <time>2015-04-06T08:04:29Z</time>
      </trkpt>
      <trkpt lat="49.41508" lon="1.76069">
        <ele>144</ele>
        <time>2015-04-06T08:04:32Z</time>
      </trkpt>
      <trkpt lat="49.41517" lon="1.76077">
        <ele>143</ele>
        <time>2015-04-06T08:04:34Z</time>
      </trkpt>
      <trkpt lat="49.41523" lon="1.76079">
        <ele>142</ele>
        <time>2015-04-06T08:04:35Z</time>
      </trkpt>
      <trkpt lat="49.41608" lon="1.76096">
        <ele>135</ele>
        <time>2015-04-06T08:04:46Z</time>
      </trkpt>
      <trkpt lat="49.41621" lon="1.76102">
        <ele>136</ele>
        <time>2015-04-06T08:04:48Z</time>
      </trkpt>
      <trkpt lat="49.41631" lon="1.76108">
        <ele>137</ele>
        <time>2015-04-06T08:04:50Z</time>
      </trkpt>
      <trkpt lat="49.41642" lon="1.76116">
        <ele>139</ele>
        <time>2015-04-06T08:04:53Z</time>
      </trkpt>
      <trkpt lat="49.41652" lon="1.76122">
        <ele>140</ele>
        <time>2015-04-06T08:04:56Z</time>
      </trkpt>
      <trkpt lat="49.41662" lon="1.76129">
        <ele>141</ele>
        <time>2015-04-06T08:05:00Z</time>
      </trkpt>
      <trkpt lat="49.41668" lon="1.76136">
        <ele>142</ele>
        <time>2015-04-06T08:05:04Z</time>
      </trkpt>
      <trkpt lat="49.41673" lon="1.76129">
        <ele>143</ele>
        <time>2015-04-06T08:05:15Z</time>
      </trkpt>
      <trkpt lat="49.41678" lon="1.76113">
        <ele>143</ele>
        <time>2015-04-06T08:05:20Z</time>
      </trkpt>
      <trkpt lat="49.4168" lon="1.76105">
        <ele>143</ele>
        <time>2015-04-06T08:05:22Z</time>
      </trkpt>
      <trkpt lat="49.41687" lon="1.76087">
        <ele>143</ele>
        <time>2015-04-06T08:05:27Z</time>
      </trkpt>
      <trkpt lat="49.41689" lon="1.76079">
        <ele>143</ele>
        <time>2015-04-06T08:05:29Z</time>
      </trkpt>
      <trkpt lat="49.41692" lon="1.76068">
        <ele>144</ele>
        <time>2015-04-06T08:05:32Z</time>
      </trkpt>
      <trkpt lat="49.41694" lon="1.76061">
        <ele>144</ele>
        <time>2015-04-06T08:05:34Z</time>
      </trkpt>
      <trkpt lat="49.41705" lon="1.76022">
        <ele>144</ele>
        <time>2015-04-06T08:05:44Z</time>
      </trkpt>
      <trkpt lat="49.41707" lon="1.76013">
        <ele>144</ele>
        <time>2015-04-06T08:05:46Z</time>
      </trkpt>
      <trkpt lat="49.41709" lon="1.76005">
        <ele>144</ele>
        <time>2015-04-06T08:05:48Z</time>
      </trkpt>
      <trkpt lat="49.41719" lon="1.75956">
        <ele>145</ele>
        <time>2015-04-06T08:06:00Z</time>
      </trkpt>
      <trkpt lat="49.41721" lon="1.75947">
        <ele>145</ele>
        <time>2015-04-06T08:06:02Z</time>
      </trkpt>
      <trkpt lat="49.41725" lon="1.75924">
        <ele>146</ele>
        <time>2015-04-06T08:06:07Z</time>
      </trkpt>
      <trkpt lat="49.41726" lon="1.75915">
        <ele>146</ele>
        <time>2015-04-06T08:06:09Z</time>
      </trkpt>
      <trkpt lat="49.41727" lon="1.759">
        <ele>146</ele>
        <time>2015-04-06T08:06:12Z</time>
      </trkpt>
      <trkpt lat="49.41729" lon="1.75891">
        <ele>146</ele>
        <time>2015-04-06T08:06:14Z</time>
      </trkpt>
      <trkpt lat="49.41729" lon="1.75877">
        <ele>146</ele>
        <time>2015-04-06T08:06:17Z</time>
      </trkpt>
      <trkpt lat="49.41727" lon="1.75867">
        <ele>146</ele>
        <time>2015-04-06T08:06:19Z</time>
      </trkpt>
      <trkpt lat="49.41717" lon="1.75839">
        <ele>147</ele>
        <time>2015-04-06T08:06:26Z</time>
      </trkpt>
      <trkpt lat="49.41706" lon="1.75828">
        <ele>147</ele>
        <time>2015-04-06T08:06:30Z</time>
      </trkpt>
      <trkpt lat="49.41701" lon="1.75822">
        <ele>148</ele>
        <time>2015-04-06T08:06:32Z</time>
      </trkpt>
      <trkpt lat="49.41696" lon="1.75816">
        <ele>149</ele>
        <time>2015-04-06T08:06:34Z</time>
      </trkpt>
      <trkpt lat="49.41672" lon="1.75768">
        <ele>149</ele>
        <time>2015-04-06T08:06:45Z</time>
      </trkpt>
      <trkpt lat="49.4167" lon="1.75759">
        <ele>149</ele>
        <time>2015-04-06T08:06:47Z</time>
      </trkpt>
      <trkpt lat="49.41667" lon="1.7575">
        <ele>149</ele>
        <time>2015-04-06T08:06:49Z</time>
      </trkpt>
      <trkpt lat="49.41657" lon="1.75704">
        <ele>149</ele>
        <time>2015-04-06T08:06:59Z</time>
      </trkpt>
      <trkpt lat="49.41654" lon="1.75691">
        <ele>150</ele>
        <time>2015-04-06T08:07:02Z</time>
      </trkpt>
      <trkpt lat="49.41653" lon="1.75668">
        <ele>150</ele>
        <time>2015-04-06T08:07:07Z</time>
      </trkpt>
      <trkpt lat="49.41652" lon="1.75657">
        <ele>150</ele>
        <time>2015-04-06T08:07:09Z</time>
      </trkpt>
      <trkpt lat="49.41653" lon="1.75648">
        <ele>150</ele>
        <time>2015-04-06T08:07:11Z</time>
      </trkpt>
      <trkpt lat="49.41653" lon="1.75628">
        <ele>151</ele>
        <time>2015-04-06T08:07:15Z</time>
      </trkpt>
      <trkpt lat="49.41654" lon="1.75617">
        <ele>151</ele>
        <time>2015-04-06T08:07:17Z</time>
      </trkpt>
      <trkpt lat="49.41652" lon="1.75565">
        <ele>153</ele>
        <time>2015-04-06T08:07:28Z</time>
      </trkpt>
      <trkpt lat="49.41652" lon="1.75556">
        <ele>153</ele>
        <time>2015-04-06T08:07:30Z</time>
      </trkpt>
      <trkpt lat="49.41651" lon="1.75541">
        <ele>153</ele>
        <time>2015-04-06T08:07:33Z</time>
      </trkpt>
      <trkpt lat="49.4165" lon="1.75532">
        <ele>154</ele>
        <time>2015-04-06T08:07:35Z</time>
      </trkpt>
      <trkpt lat="49.41647" lon="1.75483">
        <ele>155</ele>
        <time>2015-04-06T08:07:45Z</time>
      </trkpt>
      <trkpt lat="49.41647" lon="1.75473">
        <ele>155</ele>
        <time>2015-04-06T08:07:47Z</time>
      </trkpt>
      <trkpt lat="49.41646" lon="1.75463">
        <ele>155</ele>
        <time>2015-04-06T08:07:49Z</time>
      </trkpt>
      <trkpt lat="49.41646" lon="1.75453">
        <ele>155</ele>
        <time>2015-04-06T08:07:51Z</time>
      </trkpt>
      <trkpt lat="49.41646" lon="1.75443">
        <ele>156</ele>
        <time>2015-04-06T08:07:53Z</time>
      </trkpt>
      <trkpt lat="49.41648" lon="1.75418">
        <ele>156</ele>
        <time>2015-04-06T08:07:58Z</time>
      </trkpt>
      <trkpt lat="49.41649" lon="1.75408">
        <ele>156</ele>
        <time>2015-04-06T08:08:00Z</time>
      </trkpt>
      <trkpt lat="49.4165" lon="1.75399">
        <ele>156</ele>
        <time>2015-04-06T08:08:02Z</time>
      </trkpt>
      <trkpt lat="49.4165" lon="1.75386">
        <ele>157</ele>
        <time>2015-04-06T08:08:05Z</time>
      </trkpt>
      <trkpt lat="49.4165" lon="1.75372">
        <ele>158</ele>
        <time>2015-04-06T08:08:08Z</time>
      </trkpt>
      <trkpt lat="49.4165" lon="1.75364">
        <ele>159</ele>
        <time>2015-04-06T08:08:10Z</time>
      </trkpt>
      <trkpt lat="49.4165" lon="1.75349">
        <ele>159</ele>
        <time>2015-04-06T08:08:13Z</time>
      </trkpt>
      <trkpt lat="49.41652" lon="1.75339">
        <ele>160</ele>
        <time>2015-04-06T08:08:15Z</time>
      </trkpt>
      <trkpt lat="49.41653" lon="1.75329">
        <ele>161</ele>
        <time>2015-04-06T08:08:17Z</time>
      </trkpt>
      <trkpt lat="49.41655" lon="1.75314">
        <ele>162</ele>
        <time>2015-04-06T08:08:20Z</time>
      </trkpt>
      <trkpt lat="49.41657" lon="1.75299">
        <ele>162</ele>
        <time>2015-04-06T08:08:23Z</time>
      </trkpt>
      <trkpt lat="49.41658" lon="1.75289">
        <ele>161</ele>
        <time>2015-04-06T08:08:25Z</time>
      </trkpt>
      <trkpt lat="49.41661" lon="1.75279">
        <ele>162</ele>
        <time>2015-04-06T08:08:27Z</time>
      </trkpt>
      <trkpt lat="49.41662" lon="1.75269">
        <ele>162</ele>
        <time>2015-04-06T08:08:29Z</time>
      </trkpt>
      <trkpt lat="49.41662" lon="1.7526">
        <ele>163</ele>
        <time>2015-04-06T08:08:31Z</time>
      </trkpt>
      <trkpt lat="49.41663" lon="1.75246">
        <ele>163</ele>
        <time>2015-04-06T08:08:34Z</time>
      </trkpt>
      <trkpt lat="49.41665" lon="1.75237">
        <ele>163</ele>
        <time>2015-04-06T08:08:36Z</time>
      </trkpt>
      <trkpt lat="49.41666" lon="1.75228">
        <ele>164</ele>
        <time>2015-04-06T08:08:38Z</time>
      </trkpt>
      <trkpt lat="49.41667" lon="1.75218">
        <ele>164</ele>
        <time>2015-04-06T08:08:40Z</time>
      </trkpt>
      <trkpt lat="49.41669" lon="1.75202">
        <ele>164</ele>
        <time>2015-04-06T08:08:44Z</time>
      </trkpt>
      <trkpt lat="49.41671" lon="1.75187">
        <ele>163</ele>
        <time>2015-04-06T08:08:47Z</time>
      </trkpt>
      <trkpt lat="49.41672" lon="1.75178">
        <ele>163</ele>
        <time>2015-04-06T08:08:49Z</time>
      </trkpt>
      <trkpt lat="49.41674" lon="1.75169">
        <ele>163</ele>
        <time>2015-04-06T08:08:51Z</time>
      </trkpt>
      <trkpt lat="49.41676" lon="1.75157">
        <ele>163</ele>
        <time>2015-04-06T08:08:54Z</time>
      </trkpt>
      <trkpt lat="49.41684" lon="1.75148">
        <ele>163</ele>
        <time>2015-04-06T08:08:57Z</time>
      </trkpt>
      <trkpt lat="49.41692" lon="1.75152">
        <ele>164</ele>
        <time>2015-04-06T08:09:00Z</time>
      </trkpt>
      <trkpt lat="49.41698" lon="1.75158">
        <ele>164</ele>
        <time>2015-04-06T08:09:02Z</time>
      </trkpt>
      <trkpt lat="49.41703" lon="1.75164">
        <ele>164</ele>
        <time>2015-04-06T08:09:04Z</time>
      </trkpt>
      <trkpt lat="49.41708" lon="1.7517">
        <ele>164</ele>
        <time>2015-04-06T08:09:06Z</time>
      </trkpt>
      <trkpt lat="49.41713" lon="1.75176">
        <ele>164</ele>
        <time>2015-04-06T08:09:08Z</time>
      </trkpt>
      <trkpt lat="49.41719" lon="1.75182">
        <ele>164</ele>
        <time>2015-04-06T08:09:10Z</time>
      </trkpt>
      <trkpt lat="49.41724" lon="1.7519">
        <ele>164</ele>
        <time>2015-04-06T08:09:12Z</time>
      </trkpt>
      <trkpt lat="49.41732" lon="1.75201">
        <ele>164</ele>
        <time>2015-04-06T08:09:15Z</time>
      </trkpt>
      <trkpt lat="49.4174" lon="1.75212">
        <ele>164</ele>
        <time>2015-04-06T08:09:18Z</time>
      </trkpt>
      <trkpt lat="49.41765" lon="1.7525">
        <ele>164</ele>
        <time>2015-04-06T08:09:27Z</time>
      </trkpt>
      <trkpt lat="49.41773" lon="1.75264">
        <ele>163</ele>
        <time>2015-04-06T08:09:30Z</time>
      </trkpt>
      <trkpt lat="49.41781" lon="1.75277">
        <ele>163</ele>
        <time>2015-04-06T08:09:33Z</time>
      </trkpt>
      <trkpt lat="49.41787" lon="1.75287">
        <ele>163</ele>
        <time>2015-04-06T08:09:35Z</time>
      </trkpt>
      <trkpt lat="49.41818" lon="1.75338">
        <ele>162</ele>
        <time>2015-04-06T08:09:46Z</time>
      </trkpt>
      <trkpt lat="49.41827" lon="1.75352">
        <ele>161</ele>
        <time>2015-04-06T08:09:49Z</time>
      </trkpt>
      <trkpt lat="49.41855" lon="1.75402">
        <ele>160</ele>
        <time>2015-04-06T08:09:59Z</time>
      </trkpt>
      <trkpt lat="49.41874" lon="1.75433">
        <ele>159</ele>
        <time>2015-04-06T08:10:06Z</time>
      </trkpt>
      <trkpt lat="49.41882" lon="1.75445">
        <ele>159</ele>
        <time>2015-04-06T08:10:09Z</time>
      </trkpt>
      <trkpt lat="49.41892" lon="1.75461">
        <ele>159</ele>
        <time>2015-04-06T08:10:13Z</time>
      </trkpt>
      <trkpt lat="49.41898" lon="1.75464">
        <ele>159</ele>
        <time>2015-04-06T08:10:15Z</time>
      </trkpt>
      <trkpt lat="49.41907" lon="1.75455">
        <ele>160</ele>
        <time>2015-04-06T08:10:18Z</time>
      </trkpt>
      <trkpt lat="49.41913" lon="1.75449">
        <ele>160</ele>
        <time>2015-04-06T08:10:20Z</time>
      </trkpt>
      <trkpt lat="49.41931" lon="1.75425">
        <ele>161</ele>
        <time>2015-04-06T08:10:26Z</time>
      </trkpt>
      <trkpt lat="49.41943" lon="1.7541">
        <ele>161</ele>
        <time>2015-04-06T08:10:30Z</time>
      </trkpt>
      <trkpt lat="49.41951" lon="1.75399">
        <ele>162</ele>
        <time>2015-04-06T08:10:33Z</time>
      </trkpt>
      <trkpt lat="49.41957" lon="1.75392">
        <ele>162</ele>
        <time>2015-04-06T08:10:35Z</time>
      </trkpt>
      <trkpt lat="49.41992" lon="1.75349">
        <ele>163</ele>
        <time>2015-04-06T08:10:46Z</time>
      </trkpt>
      <trkpt lat="49.42001" lon="1.75338">
        <ele>163</ele>
        <time>2015-04-06T08:10:49Z</time>
      </trkpt>
      <trkpt lat="49.42009" lon="1.75331">
        <ele>163</ele>
        <time>2015-04-06T08:10:51Z</time>
      </trkpt>
      <trkpt lat="49.42015" lon="1.75324">
        <ele>163</ele>
        <time>2015-04-06T08:10:53Z</time>
      </trkpt>
      <trkpt lat="49.42028" lon="1.75307">
        <ele>163</ele>
        <time>2015-04-06T08:10:57Z</time>
      </trkpt>
      <trkpt lat="49.42034" lon="1.75299">
        <ele>163</ele>
        <time>2015-04-06T08:10:59Z</time>
      </trkpt>
      <trkpt lat="49.42041" lon="1.7529">
        <ele>163</ele>
        <time>2015-04-06T08:11:01Z</time>
      </trkpt>
      <trkpt lat="49.42051" lon="1.75276">
        <ele>162</ele>
        <time>2015-04-06T08:11:04Z</time>
      </trkpt>
      <trkpt lat="49.42057" lon="1.75268">
        <ele>162</ele>
        <time>2015-04-06T08:11:06Z</time>
      </trkpt>
      <trkpt lat="49.4207" lon="1.75253">
        <ele>162</ele>
        <time>2015-04-06T08:11:10Z</time>
      </trkpt>
      <trkpt lat="49.42079" lon="1.75243">
        <ele>162</ele>
        <time>2015-04-06T08:11:13Z</time>
      </trkpt>
      <trkpt lat="49.42085" lon="1.75234">
        <ele>162</ele>
        <time>2015-04-06T08:11:15Z</time>
      </trkpt>
      <trkpt lat="49.42091" lon="1.75225">
        <ele>163</ele>
        <time>2015-04-06T08:11:18Z</time>
      </trkpt>
      <trkpt lat="49.42095" lon="1.75218">
        <ele>164</ele>
        <time>2015-04-06T08:11:21Z</time>
      </trkpt>
      <trkpt lat="49.4209" lon="1.7522">
        <ele>166</ele>
        <time>2015-04-06T08:11:28Z</time>
      </trkpt>
      <trkpt lat="49.42089" lon="1.75227">
        <ele>166</ele>
        <time>2015-04-06T08:11:30Z</time>
      </trkpt>
      <trkpt lat="49.42092" lon="1.75236">
        <ele>167</ele>
        <time>2015-04-06T08:11:32Z</time>
      </trkpt>
      <trkpt lat="49.42095" lon="1.75245">
        <ele>168</ele>
        <time>2015-04-06T08:11:34Z</time>
      </trkpt>
      <trkpt lat="49.42096" lon="1.75253">
        <ele>168</ele>
        <time>2015-04-06T08:11:36Z</time>
      </trkpt>
      <trkpt lat="49.421" lon="1.75311">
        <ele>171</ele>
        <time>2015-04-06T08:11:47Z</time>
      </trkpt>
      <trkpt lat="49.42099" lon="1.75324">
        <ele>172</ele>
        <time>2015-04-06T08:11:49Z</time>
      </trkpt>
      <trkpt lat="49.42095" lon="1.7538">
        <ele>173</ele>
        <time>2015-04-06T08:11:58Z</time>
      </trkpt>
      <trkpt lat="49.42118" lon="1.75404">
        <ele>173</ele>
        <time>2015-04-06T08:12:04Z</time>
      </trkpt>
      <trkpt lat="49.42133" lon="1.75425">
        <ele>170</ele>
        <time>2015-04-06T08:12:08Z</time>
      </trkpt>
      <trkpt lat="49.4214" lon="1.75433">
        <ele>169</ele>
        <time>2015-04-06T08:12:10Z</time>
      </trkpt>
      <trkpt lat="49.42147" lon="1.7544">
        <ele>168</ele>
        <time>2015-04-06T08:12:12Z</time>
      </trkpt>
      <trkpt lat="49.42154" lon="1.75446">
        <ele>168</ele>
        <time>2015-04-06T08:12:14Z</time>
      </trkpt>
      <trkpt lat="49.42162" lon="1.75449">
        <ele>167</ele>
        <time>2015-04-06T08:12:16Z</time>
      </trkpt>
      <trkpt lat="49.42171" lon="1.75451">
        <ele>166</ele>
        <time>2015-04-06T08:12:18Z</time>
      </trkpt>
      <trkpt lat="49.42207" lon="1.75472">
        <ele>165</ele>
        <time>2015-04-06T08:12:28Z</time>
      </trkpt>
      <trkpt lat="49.42214" lon="1.75481">
        <ele>164</ele>
        <time>2015-04-06T08:12:30Z</time>
      </trkpt>
      <trkpt lat="49.42221" lon="1.75489">
        <ele>163</ele>
        <time>2015-04-06T08:12:32Z</time>
      </trkpt>
      <trkpt lat="49.42225" lon="1.75493">
        <ele>162</ele>
        <time>2015-04-06T08:12:33Z</time>
      </trkpt>
      <trkpt lat="49.42233" lon="1.75501">
        <ele>161</ele>
        <time>2015-04-06T08:12:35Z</time>
      </trkpt>
      <trkpt lat="49.42272" lon="1.75533">
        <ele>160</ele>
        <time>2015-04-06T08:12:45Z</time>
      </trkpt>
      <trkpt lat="49.42284" lon="1.7554">
        <ele>160</ele>
        <time>2015-04-06T08:12:49Z</time>
      </trkpt>
      <trkpt lat="49.4231" lon="1.75531">
        <ele>160</ele>
        <time>2015-04-06T08:13:00Z</time>
      </trkpt>
      <trkpt lat="49.42323" lon="1.75498">
        <ele>161</ele>
        <time>2015-04-06T08:13:08Z</time>
      </trkpt>
      <trkpt lat="49.42324" lon="1.75488">
        <ele>161</ele>
        <time>2015-04-06T08:13:10Z</time>
      </trkpt>
      <trkpt lat="49.42328" lon="1.75475">
        <ele>161</ele>
        <time>2015-04-06T08:13:13Z</time>
      </trkpt>
      <trkpt lat="49.42329" lon="1.75465">
        <ele>161</ele>
        <time>2015-04-06T08:13:15Z</time>
      </trkpt>
      <trkpt lat="49.42331" lon="1.75448">
        <ele>161</ele>
        <time>2015-04-06T08:13:18Z</time>
      </trkpt>
      <trkpt lat="49.42337" lon="1.75405">
        <ele>162</ele>
        <time>2015-04-06T08:13:26Z</time>
      </trkpt>
      <trkpt lat="49.4235" lon="1.75394">
        <ele>161</ele>
        <time>2015-04-06T08:13:30Z</time>
      </trkpt>
      <trkpt lat="49.42359" lon="1.75388">
        <ele>161</ele>
        <time>2015-04-06T08:13:33Z</time>
      </trkpt>
      <trkpt lat="49.42365" lon="1.75383">
        <ele>161</ele>
        <time>2015-04-06T08:13:35Z</time>
      </trkpt>
      <trkpt lat="49.42393" lon="1.75347">
        <ele>161</ele>
        <time>2015-04-06T08:13:46Z</time>
      </trkpt>
      <trkpt lat="49.42398" lon="1.7534">
        <ele>161</ele>
        <time>2015-04-06T08:13:48Z</time>
      </trkpt>
      <trkpt lat="49.42402" lon="1.75332">
        <ele>161</ele>
        <time>2015-04-06T08:13:50Z</time>
      </trkpt>
      <trkpt lat="49.42408" lon="1.75318">
        <ele>161</ele>
        <time>2015-04-06T08:13:53Z</time>
      </trkpt>
      <trkpt lat="49.42417" lon="1.75302">
        <ele>161</ele>
        <time>2015-04-06T08:13:58Z</time>
      </trkpt>
      <trkpt lat="49.42431" lon="1.75276">
        <ele>163</ele>
        <time>2015-04-06T08:14:06Z</time>
      </trkpt>
      <trkpt lat="49.42435" lon="1.75267">
        <ele>163</ele>
        <time>2015-04-06T08:14:08Z</time>
      </trkpt>
      <trkpt lat="49.4244" lon="1.75257">
        <ele>163</ele>
        <time>2015-04-06T08:14:10Z</time>
      </trkpt>
      <trkpt lat="49.42445" lon="1.75248">
        <ele>164</ele>
        <time>2015-04-06T08:14:12Z</time>
      </trkpt>
      <trkpt lat="49.42452" lon="1.75235">
        <ele>164</ele>
        <time>2015-04-06T08:14:15Z</time>
      </trkpt>
      <trkpt lat="49.42464" lon="1.75215">
        <ele>165</ele>
        <time>2015-04-06T08:14:20Z</time>
      </trkpt>
      <trkpt lat="49.42468" lon="1.75206">
        <ele>165</ele>
        <time>2015-04-06T08:14:22Z</time>
      </trkpt>
      <trkpt lat="49.42482" lon="1.75183">
        <ele>166</ele>
        <time>2015-04-06T08:14:28Z</time>
      </trkpt>
      <trkpt lat="49.42485" lon="1.75178">
        <ele>166</ele>
        <time>2015-04-06T08:14:30Z</time>
      </trkpt>
      <trkpt lat="49.42494" lon="1.75184">
        <ele>167</ele>
        <time>2015-04-06T08:14:35Z</time>
      </trkpt>
      <trkpt lat="49.42497" lon="1.7519">
        <ele>167</ele>
        <time>2015-04-06T08:14:37Z</time>
      </trkpt>
      <trkpt lat="49.425" lon="1.75196">
        <ele>167</ele>
        <time>2015-04-06T08:14:39Z</time>
      </trkpt>
      <trkpt lat="49.42504" lon="1.75202">
        <ele>168</ele>
        <time>2015-04-06T08:14:41Z</time>
      </trkpt>
      <trkpt lat="49.42508" lon="1.75209">
        <ele>168</ele>
        <time>2015-04-06T08:14:43Z</time>
      </trkpt>
      <trkpt lat="49.42515" lon="1.75224">
        <ele>169</ele>
        <time>2015-04-06T08:14:47Z</time>
      </trkpt>
      <trkpt lat="49.42519" lon="1.75231">
        <ele>169</ele>
        <time>2015-04-06T08:14:49Z</time>
      </trkpt>
      <trkpt lat="49.42525" lon="1.75243">
        <ele>169</ele>
        <time>2015-04-06T08:14:52Z</time>
      </trkpt>
      <trkpt lat="49.4253" lon="1.75255">
        <ele>169</ele>
        <time>2015-04-06T08:14:55Z</time>
      </trkpt>
      <trkpt lat="49.42539" lon="1.7527">
        <ele>169</ele>
        <time>2015-04-06T08:14:59Z</time>
      </trkpt>
      <trkpt lat="49.42543" lon="1.75278">
        <ele>169</ele>
        <time>2015-04-06T08:15:01Z</time>
      </trkpt>
      <trkpt lat="49.42553" lon="1.75297">
        <ele>169</ele>
        <time>2015-04-06T08:15:06Z</time>
      </trkpt>
      <trkpt lat="49.42563" lon="1.75318">
        <ele>169</ele>
        <time>2015-04-06T08:15:11Z</time>
      </trkpt>
      <trkpt lat="49.42568" lon="1.75326">
        <ele>169</ele>
        <time>2015-04-06T08:15:13Z</time>
      </trkpt>
      <trkpt lat="49.42579" lon="1.75342">
        <ele>169</ele>
        <time>2015-04-06T08:15:17Z</time>
      </trkpt>
      <trkpt lat="49.42584" lon="1.75354">
        <ele>169</ele>
        <time>2015-04-06T08:15:20Z</time>
      </trkpt>
      <trkpt lat="49.42597" lon="1.75376">
        <ele>170</ele>
        <time>2015-04-06T08:15:26Z</time>
      </trkpt>
      <trkpt lat="49.42605" lon="1.7539">
        <ele>171</ele>
        <time>2015-04-06T08:15:29Z</time>
      </trkpt>
      <trkpt lat="49.42614" lon="1.7541">
        <ele>171</ele>
        <time>2015-04-06T08:15:33Z</time>
      </trkpt>
      <trkpt lat="49.42618" lon="1.75419">
        <ele>171</ele>
        <time>2015-04-06T08:15:35Z</time>
      </trkpt>
      <trkpt lat="49.42627" lon="1.75454">
        <ele>171</ele>
        <time>2015-04-06T08:15:42Z</time>
      </trkpt>
      <trkpt lat="49.42635" lon="1.75464">
        <ele>172</ele>
        <time>2015-04-06T08:15:46Z</time>
      </trkpt>
      <trkpt lat="49.42644" lon="1.7546">
        <ele>171</ele>
        <time>2015-04-06T08:15:49Z</time>
      </trkpt>
      <trkpt lat="49.42667" lon="1.75442">
        <ele>170</ele>
        <time>2015-04-06T08:15:56Z</time>
      </trkpt>
      <trkpt lat="49.42682" lon="1.75433">
        <ele>170</ele>
        <time>2015-04-06T08:16:00Z</time>
      </trkpt>
      <trkpt lat="49.42698" lon="1.75424">
        <ele>169</ele>
        <time>2015-04-06T08:16:04Z</time>
      </trkpt>
      <trkpt lat="49.4272" lon="1.75407">
        <ele>169</ele>
        <time>2015-04-06T08:16:10Z</time>
      </trkpt>
      <trkpt lat="49.42727" lon="1.75402">
        <ele>169</ele>
        <time>2015-04-06T08:16:12Z</time>
      </trkpt>
      <trkpt lat="49.42734" lon="1.75397">
        <ele>169</ele>
        <time>2015-04-06T08:16:14Z</time>
      </trkpt>
      <trkpt lat="49.42783" lon="1.75375">
        <ele>170</ele>
        <time>2015-04-06T08:16:27Z</time>
      </trkpt>
      <trkpt lat="49.42791" lon="1.75376">
        <ele>171</ele>
        <time>2015-04-06T08:16:29Z</time>
      </trkpt>
      <trkpt lat="49.42799" lon="1.75377">
        <ele>170</ele>
        <time>2015-04-06T08:16:31Z</time>
      </trkpt>
      <trkpt lat="49.42807" lon="1.75376">
        <ele>170</ele>
        <time>2015-04-06T08:16:33Z</time>
      </trkpt>
      <trkpt lat="49.4282" lon="1.75373">
        <ele>170</ele>
        <time>2015-04-06T08:16:36Z</time>
      </trkpt>
      <trkpt lat="49.42833" lon="1.75369">
        <ele>170</ele>
        <time>2015-04-06T08:16:39Z</time>
      </trkpt>
      <trkpt lat="49.42839" lon="1.75367">
        <ele>170</ele>
        <time>2015-04-06T08:16:41Z</time>
      </trkpt>
      <trkpt lat="49.42848" lon="1.75368">
        <ele>167</ele>
        <time>2015-04-06T08:16:46Z</time>
      </trkpt>
      <trkpt lat="49.42851" lon="1.75373">
        <ele>165</ele>
        <time>2015-04-06T08:16:51Z</time>
      </trkpt>
      <trkpt lat="49.42853" lon="1.75359">
        <ele>164</ele>
        <time>2015-04-06T08:17:33Z</time>
      </trkpt>
      <trkpt lat="49.42853" lon="1.75349">
        <ele>164</ele>
        <time>2015-04-06T08:17:36Z</time>
      </trkpt>
      <trkpt lat="49.42847" lon="1.75314">
        <ele>169</ele>
        <time>2015-04-06T08:17:45Z</time>
      </trkpt>
      <trkpt lat="49.42845" lon="1.75296">
        <ele>171</ele>
        <time>2015-04-06T08:17:49Z</time>
      </trkpt>
      <trkpt lat="49.42845" lon="1.75288">
        <ele>172</ele>
        <time>2015-04-06T08:17:51Z</time>
      </trkpt>
      <trkpt lat="49.42834" lon="1.75266">
        <ele>177</ele>
        <time>2015-04-06T08:17:58Z</time>
      </trkpt>
      <trkpt lat="49.42829" lon="1.75257">
        <ele>179</ele>
        <time>2015-04-06T08:18:01Z</time>
      </trkpt>
      <trkpt lat="49.42807" lon="1.75224">
        <ele>185</ele>
        <time>2015-04-06T08:18:09Z</time>
      </trkpt>
      <trkpt lat="49.42804" lon="1.75217">
        <ele>187</ele>
        <time>2015-04-06T08:18:11Z</time>
      </trkpt>
      <trkpt lat="49.42797" lon="1.75194">
        <ele>192</ele>
        <time>2015-04-06T08:18:18Z</time>
      </trkpt>
      <trkpt lat="49.42782" lon="1.75168">
        <ele>199</ele>
        <time>2015-04-06T08:18:27Z</time>
      </trkpt>
      <trkpt lat="49.42783" lon="1.75153">
        <ele>199</ele>
        <time>2015-04-06T08:18:31Z</time>
      </trkpt>
      <trkpt lat="49.42777" lon="1.75137">
        <ele>198</ele>
        <time>2015-04-06T08:18:34Z</time>
      </trkpt>
      <trkpt lat="49.42778" lon="1.75129">
        <ele>199</ele>
        <time>2015-04-06T08:18:37Z</time>
      </trkpt>
      <trkpt lat="49.4279" lon="1.75104">
        <ele>201</ele>
        <time>2015-04-06T08:18:46Z</time>
      </trkpt>
      <trkpt lat="49.42799" lon="1.75098">
        <ele>202</ele>
        <time>2015-04-06T08:18:49Z</time>
      </trkpt>
      <trkpt lat="49.42802" lon="1.75077">
        <ele>203</ele>
        <time>2015-04-06T08:19:00Z</time>
      </trkpt>
      <trkpt lat="49.42803" lon="1.75068">
        <ele>203</ele>
        <time>2015-04-06T08:19:07Z</time>
      </trkpt>
      <trkpt lat="49.42802" lon="1.75055">
        <ele>204</ele>
        <time>2015-04-06T08:19:11Z</time>
      </trkpt>
      <trkpt lat="49.42804" lon="1.75028">
        <ele>201</ele>
        <time>2015-04-06T08:19:22Z</time>
      </trkpt>
      <trkpt lat="49.4281" lon="1.74993">
        <ele>200</ele>
        <time>2015-04-06T08:19:29Z</time>
      </trkpt>
      <trkpt lat="49.42818" lon="1.74984">
        <ele>199</ele>
        <time>2015-04-06T08:19:31Z</time>
      </trkpt>
      <trkpt lat="49.4283" lon="1.74971">
        <ele>197</ele>
        <time>2015-04-06T08:19:34Z</time>
      </trkpt>
      <trkpt lat="49.42832" lon="1.74961">
        <ele>196</ele>
        <time>2015-04-06T08:19:36Z</time>
      </trkpt>
      <trkpt lat="49.42869" lon="1.7493">
        <ele>193</ele>
        <time>2015-04-06T08:19:47Z</time>
      </trkpt>
      <trkpt lat="49.42876" lon="1.74926">
        <ele>193</ele>
        <time>2015-04-06T08:19:49Z</time>
      </trkpt>
      <trkpt lat="49.42881" lon="1.74924">
        <ele>191</ele>
        <time>2015-04-06T08:19:51Z</time>
      </trkpt>
      <trkpt lat="49.42886" lon="1.74909">
        <ele>188</ele>
        <time>2015-04-06T08:19:57Z</time>
      </trkpt>
      <trkpt lat="49.42889" lon="1.74902">
        <ele>186</ele>
        <time>2015-04-06T08:20:00Z</time>
      </trkpt>
      <trkpt lat="49.42892" lon="1.74895">
        <ele>185</ele>
        <time>2015-04-06T08:20:03Z</time>
      </trkpt>
      <trkpt lat="49.42894" lon="1.74889">
        <ele>184</ele>
        <time>2015-04-06T08:20:05Z</time>
      </trkpt>
      <trkpt lat="49.42899" lon="1.74877">
        <ele>184</ele>
        <time>2015-04-06T08:20:08Z</time>
      </trkpt>
      <trkpt lat="49.42903" lon="1.74871">
        <ele>183</ele>
        <time>2015-04-06T08:20:11Z</time>
      </trkpt>
      <trkpt lat="49.42906" lon="1.74867">
        <ele>182</ele>
        <time>2015-04-06T08:20:14Z</time>
      </trkpt>
      <trkpt lat="49.42928" lon="1.74854">
        <ele>176</ele>
        <time>2015-04-06T08:20:28Z</time>
      </trkpt>
      <trkpt lat="49.42934" lon="1.74853">
        <ele>174</ele>
        <time>2015-04-06T08:20:33Z</time>
      </trkpt>
      <trkpt lat="49.42942" lon="1.74848">
        <ele>173</ele>
        <time>2015-04-06T08:20:36Z</time>
      </trkpt>
      <trkpt lat="49.42966" lon="1.74831">
        <ele>169</ele>
        <time>2015-04-06T08:20:44Z</time>
      </trkpt>
      <trkpt lat="49.42968" lon="1.74822">
        <ele>167</ele>
        <time>2015-04-06T08:20:49Z</time>
      </trkpt>
      <trkpt lat="49.42971" lon="1.74787">
        <ele>164</ele>
        <time>2015-04-06T08:20:59Z</time>
      </trkpt>
      <trkpt lat="49.42973" lon="1.7478">
        <ele>163</ele>
        <time>2015-04-06T08:21:02Z</time>
      </trkpt>
      <trkpt lat="49.42976" lon="1.7477">
        <ele>163</ele>
        <time>2015-04-06T08:21:09Z</time>
      </trkpt>
      <trkpt lat="49.42977" lon="1.74762">
        <ele>163</ele>
        <time>2015-04-06T08:21:12Z</time>
      </trkpt>
      <trkpt lat="49.42981" lon="1.74749">
        <ele>164</ele>
        <time>2015-04-06T08:21:15Z</time>
      </trkpt>
      <trkpt lat="49.42981" lon="1.74739">
        <ele>164</ele>
        <time>2015-04-06T08:21:18Z</time>
      </trkpt>
      <trkpt lat="49.42981" lon="1.747">
        <ele>166</ele>
        <time>2015-04-06T08:21:29Z</time>
      </trkpt>
      <trkpt lat="49.42981" lon="1.74691">
        <ele>166</ele>
        <time>2015-04-06T08:21:31Z</time>
      </trkpt>
      <trkpt lat="49.42982" lon="1.74679">
        <ele>166</ele>
        <time>2015-04-06T08:21:33Z</time>
      </trkpt>
      <trkpt lat="49.4298" lon="1.74664">
        <ele>168</ele>
        <time>2015-04-06T08:21:36Z</time>
      </trkpt>
      <trkpt lat="49.4298" lon="1.74656">
        <ele>168</ele>
        <time>2015-04-06T08:21:37Z</time>
      </trkpt>
      <trkpt lat="49.42979" lon="1.74644">
        <ele>169</ele>
        <time>2015-04-06T08:21:39Z</time>
      </trkpt>
      <trkpt lat="49.42978" lon="1.74636">
        <ele>170</ele>
        <time>2015-04-06T08:21:41Z</time>
      </trkpt>
      <trkpt lat="49.42975" lon="1.74621">
        <ele>172</ele>
        <time>2015-04-06T08:21:44Z</time>
      </trkpt>
      <trkpt lat="49.42973" lon="1.74609">
        <ele>173</ele>
        <time>2015-04-06T08:21:46Z</time>
      </trkpt>
      <trkpt lat="49.42971" lon="1.74592">
        <ele>175</ele>
        <time>2015-04-06T08:21:49Z</time>
      </trkpt>
      <trkpt lat="49.42964" lon="1.74577">
        <ele>176</ele>
        <time>2015-04-06T08:21:52Z</time>
      </trkpt>
      <trkpt lat="49.4296" lon="1.74559">
        <ele>178</ele>
        <time>2015-04-06T08:21:57Z</time>
      </trkpt>
      <trkpt lat="49.42955" lon="1.74553">
        <ele>175</ele>
        <time>2015-04-06T08:22:00Z</time>
      </trkpt>
      <trkpt lat="49.42947" lon="1.74539">
        <ele>167</ele>
        <time>2015-04-06T08:22:08Z</time>
      </trkpt>
      <trkpt lat="49.42946" lon="1.74531">
        <ele>164</ele>
        <time>2015-04-06T08:22:15Z</time>
      </trkpt>
      <trkpt lat="49.42945" lon="1.74524">
        <ele>164</ele>
        <time>2015-04-06T08:22:18Z</time>
      </trkpt>
      <trkpt lat="49.42947" lon="1.74514">
        <ele>163</ele>
        <time>2015-04-06T08:22:20Z</time>
      </trkpt>
      <trkpt lat="49.42947" lon="1.74504">
        <ele>162</ele>
        <time>2015-04-06T08:22:22Z</time>
      </trkpt>
      <trkpt lat="49.42945" lon="1.74496">
        <ele>162</ele>
        <time>2015-04-06T08:22:24Z</time>
      </trkpt>
      <trkpt lat="49.42944" lon="1.74487">
        <ele>162</ele>
        <time>2015-04-06T08:22:26Z</time>
      </trkpt>
      <trkpt lat="49.42944" lon="1.74476">
        <ele>162</ele>
        <time>2015-04-06T08:22:28Z</time>
      </trkpt>
      <trkpt lat="49.42946" lon="1.74465">
        <ele>162</ele>
        <time>2015-04-06T08:22:30Z</time>
      </trkpt>
      <trkpt lat="49.42946" lon="1.74453">
        <ele>161</ele>
        <time>2015-04-06T08:22:33Z</time>
      </trkpt>
      <trkpt lat="49.42947" lon="1.74443">
        <ele>161</ele>
        <time>2015-04-06T08:22:36Z</time>
      </trkpt>
      <trkpt lat="49.42947" lon="1.74428">
        <ele>161</ele>
        <time>2015-04-06T08:22:40Z</time>
      </trkpt>
      <trkpt lat="49.42951" lon="1.7441">
        <ele>162</ele>
        <time>2015-04-06T08:22:43Z</time>
      </trkpt>
      <trkpt lat="49.42955" lon="1.74393">
        <ele>162</ele>
        <time>2015-04-06T08:22:45Z</time>
      </trkpt>
      <trkpt lat="49.42958" lon="1.74372">
        <ele>163</ele>
        <time>2015-04-06T08:22:47Z</time>
      </trkpt>
      <trkpt lat="49.4296" lon="1.74351">
        <ele>163</ele>
        <time>2015-04-06T08:22:49Z</time>
      </trkpt>
      <trkpt lat="49.42962" lon="1.74331">
        <ele>163</ele>
        <time>2015-04-06T08:22:51Z</time>
      </trkpt>
      <trkpt lat="49.42962" lon="1.74317">
        <ele>163</ele>
        <time>2015-04-06T08:22:53Z</time>
      </trkpt>
      <trkpt lat="49.42962" lon="1.74305">
        <ele>163</ele>
        <time>2015-04-06T08:22:55Z</time>
      </trkpt>
      <trkpt lat="49.42962" lon="1.74298">
        <ele>163</ele>
        <time>2015-04-06T08:22:56Z</time>
      </trkpt>
      <trkpt lat="49.42959" lon="1.74265">
        <ele>161</ele>
        <time>2015-04-06T08:22:59Z</time>
      </trkpt>
      <trkpt lat="49.42955" lon="1.74242">
        <ele>159</ele>
        <time>2015-04-06T08:23:01Z</time>
      </trkpt>
      <trkpt lat="49.42949" lon="1.74211">
        <ele>158</ele>
        <time>2015-04-06T08:23:04Z</time>
      </trkpt>
      <trkpt lat="49.42942" lon="1.74156">
        <ele>154</ele>
        <time>2015-04-06T08:23:08Z</time>
      </trkpt>
      <trkpt lat="49.42939" lon="1.74109">
        <ele>151</ele>
        <time>2015-04-06T08:23:11Z</time>
      </trkpt>
      <trkpt lat="49.4293" lon="1.74012">
        <ele>143</ele>
        <time>2015-04-06T08:23:18Z</time>
      </trkpt>
      <trkpt lat="49.4293" lon="1.73946">
        <ele>138</ele>
        <time>2015-04-06T08:23:22Z</time>
      </trkpt>
      <trkpt lat="49.42934" lon="1.73864">
        <ele>131</ele>
        <time>2015-04-06T08:23:27Z</time>
      </trkpt>
      <trkpt lat="49.42934" lon="1.73835">
        <ele>129</ele>
        <time>2015-04-06T08:23:29Z</time>
      </trkpt>
      <trkpt lat="49.4293" lon="1.7379">
        <ele>125</ele>
        <time>2015-04-06T08:23:32Z</time>
      </trkpt>
      <trkpt lat="49.42927" lon="1.73776">
        <ele>124</ele>
        <time>2015-04-06T08:23:33Z</time>
      </trkpt>
      <trkpt lat="49.42919" lon="1.73735">
        <ele>121</ele>
        <time>2015-04-06T08:23:36Z</time>
      </trkpt>
      <trkpt lat="49.42916" lon="1.73723">
        <ele>120</ele>
        <time>2015-04-06T08:23:37Z</time>
      </trkpt>
      <trkpt lat="49.4291" lon="1.73698">
        <ele>117</ele>
        <time>2015-04-06T08:23:40Z</time>
      </trkpt>
      <trkpt lat="49.42913" lon="1.73685">
        <ele>113</ele>
        <time>2015-04-06T08:23:44Z</time>
      </trkpt>
      <trkpt lat="49.42898" lon="1.73582">
        <ele>108</ele>
        <time>2015-04-06T08:25:47Z</time>
      </trkpt>
      <trkpt lat="49.42896" lon="1.73573">
        <ele>108</ele>
        <time>2015-04-06T08:25:49Z</time>
      </trkpt>
      <trkpt lat="49.42894" lon="1.73564">
        <ele>109</ele>
        <time>2015-04-06T08:25:51Z</time>
      </trkpt>
      <trkpt lat="49.42893" lon="1.73555">
        <ele>109</ele>
        <time>2015-04-06T08:25:53Z</time>
      </trkpt>
      <trkpt lat="49.4289" lon="1.73536">
        <ele>110</ele>
        <time>2015-04-06T08:25:57Z</time>
      </trkpt>
      <trkpt lat="49.42886" lon="1.73525">
        <ele>111</ele>
        <time>2015-04-06T08:26:02Z</time>
      </trkpt>
      <trkpt lat="49.42884" lon="1.73517">
        <ele>112</ele>
        <time>2015-04-06T08:26:06Z</time>
      </trkpt>
      <trkpt lat="49.42883" lon="1.73507">
        <ele>112</ele>
        <time>2015-04-06T08:26:10Z</time>
      </trkpt>
      <trkpt lat="49.42886" lon="1.735">
        <ele>111</ele>
        <time>2015-04-06T08:26:13Z</time>
      </trkpt>
      <trkpt lat="49.42886" lon="1.73492">
        <ele>109</ele>
        <time>2015-04-06T08:26:20Z</time>
      </trkpt>
      <trkpt lat="49.42886" lon="1.73478">
        <ele>108</ele>
        <time>2015-04-06T08:26:24Z</time>
      </trkpt>
      <trkpt lat="49.42885" lon="1.73458">
        <ele>105</ele>
        <time>2015-04-06T08:26:30Z</time>
      </trkpt>
      <trkpt lat="49.42886" lon="1.73448">
        <ele>103</ele>
        <time>2015-04-06T08:26:32Z</time>
      </trkpt>
      <trkpt lat="49.42888" lon="1.73431">
        <ele>100</ele>
        <time>2015-04-06T08:26:35Z</time>
      </trkpt>
      <trkpt lat="49.42887" lon="1.73421">
        <ele>99</ele>
        <time>2015-04-06T08:26:37Z</time>
      </trkpt>
      <trkpt lat="49.42885" lon="1.73392">
        <ele>95</ele>
        <time>2015-04-06T08:26:45Z</time>
      </trkpt>
      <trkpt lat="49.42878" lon="1.73373">
        <ele>94</ele>
        <time>2015-04-06T08:26:49Z</time>
      </trkpt>
      <trkpt lat="49.4288" lon="1.73359">
        <ele>93</ele>
        <time>2015-04-06T08:26:52Z</time>
      </trkpt>
      <trkpt lat="49.42884" lon="1.73348">
        <ele>91</ele>
        <time>2015-04-06T08:26:54Z</time>
      </trkpt>
      <trkpt lat="49.42886" lon="1.73341">
        <ele>90</ele>
        <time>2015-04-06T08:26:55Z</time>
      </trkpt>
      <trkpt lat="49.42888" lon="1.73334">
        <ele>89</ele>
        <time>2015-04-06T08:26:56Z</time>
      </trkpt>
      <trkpt lat="49.42891" lon="1.73311">
        <ele>85</ele>
        <time>2015-04-06T08:26:59Z</time>
      </trkpt>
      <trkpt lat="49.42895" lon="1.73285">
        <ele>81</ele>
        <time>2015-04-06T08:27:05Z</time>
      </trkpt>
      <trkpt lat="49.42901" lon="1.73282">
        <ele>79</ele>
        <time>2015-04-06T08:27:08Z</time>
      </trkpt>
      <trkpt lat="49.42907" lon="1.73275">
        <ele>77</ele>
        <time>2015-04-06T08:27:11Z</time>
      </trkpt>
      <trkpt lat="49.42909" lon="1.7327">
        <ele>76</ele>
        <time>2015-04-06T08:27:14Z</time>
      </trkpt>
      <trkpt lat="49.42914" lon="1.7326">
        <ele>77</ele>
        <time>2015-04-06T08:27:19Z</time>
      </trkpt>
      <trkpt lat="49.42922" lon="1.73243">
        <ele>75</ele>
        <time>2015-04-06T08:27:23Z</time>
      </trkpt>
      <trkpt lat="49.42925" lon="1.73237">
        <ele>75</ele>
        <time>2015-04-06T08:27:24Z</time>
      </trkpt>
      <trkpt lat="49.42934" lon="1.73218">
        <ele>73</ele>
        <time>2015-04-06T08:27:27Z</time>
      </trkpt>
      <trkpt lat="49.42938" lon="1.7321">
        <ele>73</ele>
        <time>2015-04-06T08:27:28Z</time>
      </trkpt>
      <trkpt lat="49.42945" lon="1.73194">
        <ele>72</ele>
        <time>2015-04-06T08:27:30Z</time>
      </trkpt>
      <trkpt lat="49.42952" lon="1.73178">
        <ele>72</ele>
        <time>2015-04-06T08:27:32Z</time>
      </trkpt>
      <trkpt lat="49.42955" lon="1.7317">
        <ele>71</ele>
        <time>2015-04-06T08:27:33Z</time>
      </trkpt>
      <trkpt lat="49.42959" lon="1.73162">
        <ele>71</ele>
        <time>2015-04-06T08:27:34Z</time>
      </trkpt>
      <trkpt lat="49.4297" lon="1.73136">
        <ele>70</ele>
        <time>2015-04-06T08:27:37Z</time>
      </trkpt>
      <trkpt lat="49.43009" lon="1.73054">
        <ele>66</ele>
        <time>2015-04-06T08:27:47Z</time>
      </trkpt>
      <trkpt lat="49.43018" lon="1.73037">
        <ele>65</ele>
        <time>2015-04-06T08:27:49Z</time>
      </trkpt>
      <trkpt lat="49.43021" lon="1.73029">
        <ele>65</ele>
        <time>2015-04-06T08:27:50Z</time>
      </trkpt>
      <trkpt lat="49.43029" lon="1.73012">
        <ele>64</ele>
        <time>2015-04-06T08:27:52Z</time>
      </trkpt>
      <trkpt lat="49.43057" lon="1.72958">
        <ele>61</ele>
        <time>2015-04-06T08:27:59Z</time>
      </trkpt>
      <trkpt lat="49.43099" lon="1.72865">
        <ele>58</ele>
        <time>2015-04-06T08:28:09Z</time>
      </trkpt>
      <trkpt lat="49.43107" lon="1.72844">
        <ele>58</ele>
        <time>2015-04-06T08:28:11Z</time>
      </trkpt>
      <trkpt lat="49.43115" lon="1.72824">
        <ele>57</ele>
        <time>2015-04-06T08:28:13Z</time>
      </trkpt>
      <trkpt lat="49.4312" lon="1.72814">
        <ele>57</ele>
        <time>2015-04-06T08:28:14Z</time>
      </trkpt>
      <trkpt lat="49.43148" lon="1.72728">
        <ele>53</ele>
        <time>2015-04-06T08:28:23Z</time>
      </trkpt>
      <trkpt lat="49.43184" lon="1.72733">
        <ele>49</ele>
        <time>2015-04-06T08:28:30Z</time>
      </trkpt>
      <trkpt lat="49.43197" lon="1.72739">
        <ele>49</ele>
        <time>2015-04-06T08:28:32Z</time>
      </trkpt>
      <trkpt lat="49.43203" lon="1.72742">
        <ele>49</ele>
        <time>2015-04-06T08:28:33Z</time>
      </trkpt>
      <trkpt lat="49.43232" lon="1.72756">
        <ele>47</ele>
        <time>2015-04-06T08:28:37Z</time>
      </trkpt>
      <trkpt lat="49.43247" lon="1.72766">
        <ele>46</ele>
        <time>2015-04-06T08:28:39Z</time>
      </trkpt>
      <trkpt lat="49.43304" lon="1.72783">
        <ele>43</ele>
        <time>2015-04-06T08:28:47Z</time>
      </trkpt>
      <trkpt lat="49.43317" lon="1.72785">
        <ele>42</ele>
        <time>2015-04-06T08:28:49Z</time>
      </trkpt>
      <trkpt lat="49.43329" lon="1.72787">
        <ele>43</ele>
        <time>2015-04-06T08:28:51Z</time>
      </trkpt>
      <trkpt lat="49.43341" lon="1.72789">
        <ele>43</ele>
        <time>2015-04-06T08:28:53Z</time>
      </trkpt>
      <trkpt lat="49.43374" lon="1.72797">
        <ele>45</ele>
        <time>2015-04-06T08:29:00Z</time>
      </trkpt>
      <trkpt lat="49.43388" lon="1.72802">
        <ele>45</ele>
        <time>2015-04-06T08:29:03Z</time>
      </trkpt>
      <trkpt lat="49.43417" lon="1.72815">
        <ele>47</ele>
        <time>2015-04-06T08:29:09Z</time>
      </trkpt>
      <trkpt lat="49.43427" lon="1.7282">
        <ele>47</ele>
        <time>2015-04-06T08:29:11Z</time>
      </trkpt>
      <trkpt lat="49.43437" lon="1.72827">
        <ele>46</ele>
        <time>2015-04-06T08:29:13Z</time>
      </trkpt>
      <trkpt lat="49.43442" lon="1.7283">
        <ele>46</ele>
        <time>2015-04-06T08:29:14Z</time>
      </trkpt>
      <trkpt lat="49.43506" lon="1.72876">
        <ele>43</ele>
        <time>2015-04-06T08:29:25Z</time>
      </trkpt>
      <trkpt lat="49.43516" lon="1.72887">
        <ele>43</ele>
        <time>2015-04-06T08:29:27Z</time>
      </trkpt>
      <trkpt lat="49.4352" lon="1.72893">
        <ele>42</ele>
        <time>2015-04-06T08:29:28Z</time>
      </trkpt>
      <trkpt lat="49.43535" lon="1.72912">
        <ele>43</ele>
        <time>2015-04-06T08:29:32Z</time>
      </trkpt>
      <trkpt lat="49.43544" lon="1.72924">
        <ele>44</ele>
        <time>2015-04-06T08:29:35Z</time>
      </trkpt>
      <trkpt lat="49.43549" lon="1.72932">
        <ele>44</ele>
        <time>2015-04-06T08:29:37Z</time>
      </trkpt>
      <trkpt lat="49.43576" lon="1.72969">
        <ele>46</ele>
        <time>2015-04-06T08:29:47Z</time>
      </trkpt>
      <trkpt lat="49.43581" lon="1.72976">
        <ele>46</ele>
        <time>2015-04-06T08:29:49Z</time>
      </trkpt>
      <trkpt lat="49.4359" lon="1.72986">
        <ele>47</ele>
        <time>2015-04-06T08:29:52Z</time>
      </trkpt>
      <trkpt lat="49.43606" lon="1.73008">
        <ele>47</ele>
        <time>2015-04-06T08:29:58Z</time>
      </trkpt>
      <trkpt lat="49.43616" lon="1.73019">
        <ele>46</ele>
        <time>2015-04-06T08:30:01Z</time>
      </trkpt>
      <trkpt lat="49.43639" lon="1.73051">
        <ele>45</ele>
        <time>2015-04-06T08:30:09Z</time>
      </trkpt>
      <trkpt lat="49.43646" lon="1.73059">
        <ele>45</ele>
        <time>2015-04-06T08:30:11Z</time>
      </trkpt>
      <trkpt lat="49.43653" lon="1.73069">
        <ele>44</ele>
        <time>2015-04-06T08:30:13Z</time>
      </trkpt>
      <trkpt lat="49.43665" lon="1.73084">
        <ele>43</ele>
        <time>2015-04-06T08:30:16Z</time>
      </trkpt>
      <trkpt lat="49.4368" lon="1.73102">
        <ele>42</ele>
        <time>2015-04-06T08:30:19Z</time>
      </trkpt>
      <trkpt lat="49.4369" lon="1.73115">
        <ele>41</ele>
        <time>2015-04-06T08:30:21Z</time>
      </trkpt>
      <trkpt lat="49.437" lon="1.73129">
        <ele>40</ele>
        <time>2015-04-06T08:30:23Z</time>
      </trkpt>
      <trkpt lat="49.43711" lon="1.73142">
        <ele>40</ele>
        <time>2015-04-06T08:30:25Z</time>
      </trkpt>
      <trkpt lat="49.43716" lon="1.73149">
        <ele>40</ele>
        <time>2015-04-06T08:30:26Z</time>
      </trkpt>
      <trkpt lat="49.43738" lon="1.73177">
        <ele>38</ele>
        <time>2015-04-06T08:30:30Z</time>
      </trkpt>
      <trkpt lat="49.4375" lon="1.7319">
        <ele>38</ele>
        <time>2015-04-06T08:30:32Z</time>
      </trkpt>
      <trkpt lat="49.43755" lon="1.73196">
        <ele>38</ele>
        <time>2015-04-06T08:30:33Z</time>
      </trkpt>
      <trkpt lat="49.4376" lon="1.73202">
        <ele>38</ele>
        <time>2015-04-06T08:30:34Z</time>
      </trkpt>
      <trkpt lat="49.43775" lon="1.73218">
        <ele>38</ele>
        <time>2015-04-06T08:30:37Z</time>
      </trkpt>
      <trkpt lat="49.43781" lon="1.73222">
        <ele>38</ele>
        <time>2015-04-06T08:30:38Z</time>
      </trkpt>
      <trkpt lat="49.4379" lon="1.73231">
        <ele>37</ele>
        <time>2015-04-06T08:30:40Z</time>
      </trkpt>
      <trkpt lat="49.43806" lon="1.73244">
        <ele>37</ele>
        <time>2015-04-06T08:30:43Z</time>
      </trkpt>
      <trkpt lat="49.43817" lon="1.73253">
        <ele>36</ele>
        <time>2015-04-06T08:30:45Z</time>
      </trkpt>
      <trkpt lat="49.43823" lon="1.73258">
        <ele>36</ele>
        <time>2015-04-06T08:30:46Z</time>
      </trkpt>
      <trkpt lat="49.43828" lon="1.73262">
        <ele>36</ele>
        <time>2015-04-06T08:30:47Z</time>
      </trkpt>
      <trkpt lat="49.4384" lon="1.7327">
        <ele>35</ele>
        <time>2015-04-06T08:30:49Z</time>
      </trkpt>
      <trkpt lat="49.43852" lon="1.73277">
        <ele>35</ele>
        <time>2015-04-06T08:30:51Z</time>
      </trkpt>
      <trkpt lat="49.43869" lon="1.73289">
        <ele>35</ele>
        <time>2015-04-06T08:30:54Z</time>
      </trkpt>
      <trkpt lat="49.43892" lon="1.73304">
        <ele>34</ele>
        <time>2015-04-06T08:30:58Z</time>
      </trkpt>
      <trkpt lat="49.43904" lon="1.73311">
        <ele>34</ele>
        <time>2015-04-06T08:31:00Z</time>
      </trkpt>
      <trkpt lat="49.43915" lon="1.7332">
        <ele>34</ele>
        <time>2015-04-06T08:31:02Z</time>
      </trkpt>
      <trkpt lat="49.43948" lon="1.73345">
        <ele>33</ele>
        <time>2015-04-06T08:31:08Z</time>
      </trkpt>
      <trkpt lat="49.43959" lon="1.73354">
        <ele>33</ele>
        <time>2015-04-06T08:31:10Z</time>
      </trkpt>
      <trkpt lat="49.43968" lon="1.73366">
        <ele>33</ele>
        <time>2015-04-06T08:31:12Z</time>
      </trkpt>
      <trkpt lat="49.43976" lon="1.7338">
        <ele>33</ele>
        <time>2015-04-06T08:31:14Z</time>
      </trkpt>
      <trkpt lat="49.43995" lon="1.73415">
        <ele>32</ele>
        <time>2015-04-06T08:31:19Z</time>
      </trkpt>
      <trkpt lat="49.44014" lon="1.73437">
        <ele>32</ele>
        <time>2015-04-06T08:31:23Z</time>
      </trkpt>
      <trkpt lat="49.44019" lon="1.73442">
        <ele>32</ele>
        <time>2015-04-06T08:31:24Z</time>
      </trkpt>
      <trkpt lat="49.44029" lon="1.73451">
        <ele>32</ele>
        <time>2015-04-06T08:31:26Z</time>
      </trkpt>
      <trkpt lat="49.44044" lon="1.73466">
        <ele>31</ele>
        <time>2015-04-06T08:31:29Z</time>
      </trkpt>
      <trkpt lat="49.44049" lon="1.73472">
        <ele>31</ele>
        <time>2015-04-06T08:31:30Z</time>
      </trkpt>
      <trkpt lat="49.44058" lon="1.73483">
        <ele>31</ele>
        <time>2015-04-06T08:31:32Z</time>
      </trkpt>
      <trkpt lat="49.44063" lon="1.73488">
        <ele>31</ele>
        <time>2015-04-06T08:31:33Z</time>
      </trkpt>
      <trkpt lat="49.44072" lon="1.735">
        <ele>30</ele>
        <time>2015-04-06T08:31:35Z</time>
      </trkpt>
      <trkpt lat="49.44081" lon="1.73511">
        <ele>30</ele>
        <time>2015-04-06T08:31:37Z</time>
      </trkpt>
      <trkpt lat="49.44085" lon="1.73517">
        <ele>30</ele>
        <time>2015-04-06T08:31:38Z</time>
      </trkpt>
      <trkpt lat="49.44089" lon="1.73523">
        <ele>30</ele>
        <time>2015-04-06T08:31:39Z</time>
      </trkpt>
      <trkpt lat="49.44097" lon="1.73534">
        <ele>30</ele>
        <time>2015-04-06T08:31:41Z</time>
      </trkpt>
      <trkpt lat="49.44105" lon="1.73546">
        <ele>30</ele>
        <time>2015-04-06T08:31:43Z</time>
      </trkpt>
      <trkpt lat="49.44113" lon="1.73558">
        <ele>30</ele>
        <time>2015-04-06T08:31:45Z</time>
      </trkpt>
      <trkpt lat="49.44121" lon="1.7357">
        <ele>30</ele>
        <time>2015-04-06T08:31:47Z</time>
      </trkpt>
      <trkpt lat="49.44129" lon="1.7358">
        <ele>30</ele>
        <time>2015-04-06T08:31:49Z</time>
      </trkpt>
      <trkpt lat="49.44138" lon="1.73589">
        <ele>31</ele>
        <time>2015-04-06T08:31:51Z</time>
      </trkpt>
      <trkpt lat="49.44147" lon="1.73599">
        <ele>31</ele>
        <time>2015-04-06T08:31:53Z</time>
      </trkpt>
      <trkpt lat="49.44151" lon="1.73603">
        <ele>31</ele>
        <time>2015-04-06T08:31:54Z</time>
      </trkpt>
      <trkpt lat="49.44156" lon="1.73608">
        <ele>31</ele>
        <time>2015-04-06T08:31:55Z</time>
      </trkpt>
      <trkpt lat="49.4416" lon="1.73612">
        <ele>31</ele>
        <time>2015-04-06T08:31:56Z</time>
      </trkpt>
      <trkpt lat="49.44174" lon="1.73625">
        <ele>30</ele>
        <time>2015-04-06T08:31:59Z</time>
      </trkpt>
      <trkpt lat="49.44184" lon="1.73634">
        <ele>30</ele>
        <time>2015-04-06T08:32:01Z</time>
      </trkpt>
      <trkpt lat="49.44192" lon="1.73645">
        <ele>30</ele>
        <time>2015-04-06T08:32:03Z</time>
      </trkpt>
      <trkpt lat="49.44201" lon="1.73655">
        <ele>30</ele>
        <time>2015-04-06T08:32:05Z</time>
      </trkpt>
      <trkpt lat="49.44209" lon="1.73666">
        <ele>30</ele>
        <time>2015-04-06T08:32:07Z</time>
      </trkpt>
      <trkpt lat="49.44217" lon="1.73678">
        <ele>30</ele>
        <time>2015-04-06T08:32:09Z</time>
      </trkpt>
      <trkpt lat="49.44225" lon="1.7369">
        <ele>30</ele>
        <time>2015-04-06T08:32:11Z</time>
      </trkpt>
      <trkpt lat="49.44232" lon="1.73702">
        <ele>30</ele>
        <time>2015-04-06T08:32:13Z</time>
      </trkpt>
      <trkpt lat="49.44239" lon="1.73715">
        <ele>30</ele>
        <time>2015-04-06T08:32:15Z</time>
      </trkpt>
      <trkpt lat="49.44245" lon="1.73728">
        <ele>31</ele>
        <time>2015-04-06T08:32:17Z</time>
      </trkpt>
      <trkpt lat="49.44255" lon="1.73748">
        <ele>31</ele>
        <time>2015-04-06T08:32:20Z</time>
      </trkpt>
      <trkpt lat="49.44262" lon="1.73761">
        <ele>31</ele>
        <time>2015-04-06T08:32:22Z</time>
      </trkpt>
      <trkpt lat="49.44269" lon="1.73774">
        <ele>31</ele>
        <time>2015-04-06T08:32:24Z</time>
      </trkpt>
      <trkpt lat="49.44276" lon="1.73787">
        <ele>31</ele>
        <time>2015-04-06T08:32:26Z</time>
      </trkpt>
      <trkpt lat="49.44279" lon="1.73793">
        <ele>31</ele>
        <time>2015-04-06T08:32:27Z</time>
      </trkpt>
      <trkpt lat="49.44285" lon="1.73807">
        <ele>31</ele>
        <time>2015-04-06T08:32:29Z</time>
      </trkpt>
      <trkpt lat="49.44295" lon="1.73826">
        <ele>31</ele>
        <time>2015-04-06T08:32:32Z</time>
      </trkpt>
      <trkpt lat="49.44301" lon="1.7384">
        <ele>31</ele>
        <time>2015-04-06T08:32:34Z</time>
      </trkpt>
      <trkpt lat="49.44309" lon="1.73862">
        <ele>31</ele>
        <time>2015-04-06T08:32:37Z</time>
      </trkpt>
      <trkpt lat="49.44336" lon="1.73936">
        <ele>31</ele>
        <time>2015-04-06T08:32:48Z</time>
      </trkpt>
      <trkpt lat="49.4434" lon="1.7395">
        <ele>31</ele>
        <time>2015-04-06T08:32:50Z</time>
      </trkpt>
      <trkpt lat="49.44344" lon="1.73963">
        <ele>31</ele>
        <time>2015-04-06T08:32:52Z</time>
      </trkpt>
      <trkpt lat="49.44349" lon="1.73976">
        <ele>32</ele>
        <time>2015-04-06T08:32:54Z</time>
      </trkpt>
      <trkpt lat="49.44362" lon="1.74016">
        <ele>32</ele>
        <time>2015-04-06T08:33:00Z</time>
      </trkpt>
      <trkpt lat="49.44364" lon="1.74022">
        <ele>32</ele>
        <time>2015-04-06T08:33:01Z</time>
      </trkpt>
      <trkpt lat="49.44367" lon="1.74029">
        <ele>32</ele>
        <time>2015-04-06T08:33:02Z</time>
      </trkpt>
      <trkpt lat="49.44385" lon="1.74082">
        <ele>33</ele>
        <time>2015-04-06T08:33:10Z</time>
      </trkpt>
      <trkpt lat="49.4439" lon="1.74095">
        <ele>33</ele>
        <time>2015-04-06T08:33:12Z</time>
      </trkpt>
      <trkpt lat="49.44397" lon="1.74114">
        <ele>33</ele>
        <time>2015-04-06T08:33:15Z</time>
      </trkpt>
      <trkpt lat="49.44401" lon="1.74128">
        <ele>34</ele>
        <time>2015-04-06T08:33:17Z</time>
      </trkpt>
      <trkpt lat="49.44405" lon="1.74141">
        <ele>34</ele>
        <time>2015-04-06T08:33:19Z</time>
      </trkpt>
      <trkpt lat="49.44408" lon="1.74147">
        <ele>34</ele>
        <time>2015-04-06T08:33:20Z</time>
      </trkpt>
      <trkpt lat="49.44412" lon="1.74161">
        <ele>34</ele>
        <time>2015-04-06T08:33:22Z</time>
      </trkpt>
      <trkpt lat="49.44417" lon="1.74174">
        <ele>34</ele>
        <time>2015-04-06T08:33:24Z</time>
      </trkpt>
      <trkpt lat="49.4443" lon="1.74212">
        <ele>35</ele>
        <time>2015-04-06T08:33:30Z</time>
      </trkpt>
      <trkpt lat="49.44436" lon="1.74231">
        <ele>35</ele>
        <time>2015-04-06T08:33:33Z</time>
      </trkpt>
      <trkpt lat="49.44439" lon="1.74238">
        <ele>34</ele>
        <time>2015-04-06T08:33:34Z</time>
      </trkpt>
      <trkpt lat="49.44445" lon="1.74257">
        <ele>35</ele>
        <time>2015-04-06T08:33:37Z</time>
      </trkpt>
      <trkpt lat="49.44466" lon="1.74319">
        <ele>35</ele>
        <time>2015-04-06T08:33:48Z</time>
      </trkpt>
      <trkpt lat="49.4447" lon="1.74329">
        <ele>36</ele>
        <time>2015-04-06T08:33:50Z</time>
      </trkpt>
      <trkpt lat="49.44474" lon="1.74338">
        <ele>36</ele>
        <time>2015-04-06T08:33:52Z</time>
      </trkpt>
      <trkpt lat="49.44487" lon="1.74374">
        <ele>38</ele>
        <time>2015-04-06T08:34:00Z</time>
      </trkpt>
      <trkpt lat="49.4449" lon="1.74384">
        <ele>38</ele>
        <time>2015-04-06T08:34:02Z</time>
      </trkpt>
      <trkpt lat="49.44498" lon="1.74408">
        <ele>40</ele>
        <time>2015-04-06T08:34:07Z</time>
      </trkpt>
      <trkpt lat="49.44505" lon="1.74433">
        <ele>40</ele>
        <time>2015-04-06T08:34:12Z</time>
      </trkpt>
      <trkpt lat="49.44509" lon="1.74443">
        <ele>40</ele>
        <time>2015-04-06T08:34:14Z</time>
      </trkpt>
      <trkpt lat="49.44512" lon="1.74453">
        <ele>40</ele>
        <time>2015-04-06T08:34:16Z</time>
      </trkpt>
      <trkpt lat="49.44545" lon="1.74524">
        <ele>38</ele>
        <time>2015-04-06T08:34:30Z</time>
      </trkpt>
      <trkpt lat="49.44553" lon="1.74532">
        <ele>38</ele>
        <time>2015-04-06T08:34:32Z</time>
      </trkpt>
      <trkpt lat="49.44557" lon="1.74536">
        <ele>37</ele>
        <time>2015-04-06T08:34:33Z</time>
      </trkpt>
      <trkpt lat="49.44561" lon="1.74539">
        <ele>37</ele>
        <time>2015-04-06T08:34:34Z</time>
      </trkpt>
      <trkpt lat="49.44574" lon="1.74549">
        <ele>37</ele>
        <time>2015-04-06T08:34:37Z</time>
      </trkpt>
      <trkpt lat="49.44611" lon="1.74576">
        <ele>38</ele>
        <time>2015-04-06T08:34:47Z</time>
      </trkpt>
      <trkpt lat="49.44619" lon="1.74581">
        <ele>38</ele>
        <time>2015-04-06T08:34:49Z</time>
      </trkpt>
      <trkpt lat="49.44626" lon="1.74587">
        <ele>39</ele>
        <time>2015-04-06T08:34:51Z</time>
      </trkpt>
      <trkpt lat="49.44634" lon="1.74593">
        <ele>39</ele>
        <time>2015-04-06T08:34:53Z</time>
      </trkpt>
      <trkpt lat="49.44662" lon="1.74613">
        <ele>40</ele>
        <time>2015-04-06T08:35:00Z</time>
      </trkpt>
      <trkpt lat="49.4469" lon="1.74633">
        <ele>39</ele>
        <time>2015-04-06T08:35:07Z</time>
      </trkpt>
      <trkpt lat="49.44709" lon="1.74648">
        <ele>39</ele>
        <time>2015-04-06T08:35:12Z</time>
      </trkpt>
      <trkpt lat="49.44721" lon="1.74657">
        <ele>39</ele>
        <time>2015-04-06T08:35:15Z</time>
      </trkpt>
      <trkpt lat="49.44729" lon="1.74662">
        <ele>39</ele>
        <time>2015-04-06T08:35:17Z</time>
      </trkpt>
      <trkpt lat="49.4475" lon="1.74677">
        <ele>39</ele>
        <time>2015-04-06T08:35:22Z</time>
      </trkpt>
      <trkpt lat="49.44787" lon="1.74703">
        <ele>37</ele>
        <time>2015-04-06T08:35:30Z</time>
      </trkpt>
      <trkpt lat="49.448" lon="1.74715">
        <ele>36</ele>
        <time>2015-04-06T08:35:33Z</time>
      </trkpt>
      <trkpt lat="49.44805" lon="1.74719">
        <ele>36</ele>
        <time>2015-04-06T08:35:34Z</time>
      </trkpt>
      <trkpt lat="49.44815" lon="1.74726">
        <ele>36</ele>
        <time>2015-04-06T08:35:36Z</time>
      </trkpt>
      <trkpt lat="49.44825" lon="1.74735">
        <ele>35</ele>
        <time>2015-04-06T08:35:38Z</time>
      </trkpt>
      <trkpt lat="49.44846" lon="1.74751">
        <ele>35</ele>
        <time>2015-04-06T08:35:42Z</time>
      </trkpt>
      <trkpt lat="49.44857" lon="1.74759">
        <ele>35</ele>
        <time>2015-04-06T08:35:44Z</time>
      </trkpt>
      <trkpt lat="49.44874" lon="1.74773">
        <ele>35</ele>
        <time>2015-04-06T08:35:47Z</time>
      </trkpt>
      <trkpt lat="49.4488" lon="1.74777">
        <ele>35</ele>
        <time>2015-04-06T08:35:48Z</time>
      </trkpt>
      <trkpt lat="49.4489" lon="1.74785">
        <ele>35</ele>
        <time>2015-04-06T08:35:50Z</time>
      </trkpt>
      <trkpt lat="49.44895" lon="1.74789">
        <ele>35</ele>
        <time>2015-04-06T08:35:51Z</time>
      </trkpt>
      <trkpt lat="49.44905" lon="1.74799">
        <ele>34</ele>
        <time>2015-04-06T08:35:53Z</time>
      </trkpt>
      <trkpt lat="49.44925" lon="1.74839">
        <ele>35</ele>
        <time>2015-04-06T08:35:59Z</time>
      </trkpt>
      <trkpt lat="49.44947" lon="1.74894">
        <ele>37</ele>
        <time>2015-04-06T08:36:07Z</time>
      </trkpt>
      <trkpt lat="49.44957" lon="1.74919">
        <ele>37</ele>
        <time>2015-04-06T08:36:11Z</time>
      </trkpt>
      <trkpt lat="49.44962" lon="1.74932">
        <ele>37</ele>
        <time>2015-04-06T08:36:13Z</time>
      </trkpt>
      <trkpt lat="49.44964" lon="1.74939">
        <ele>37</ele>
        <time>2015-04-06T08:36:14Z</time>
      </trkpt>
      <trkpt lat="49.44972" lon="1.74992">
        <ele>43</ele>
        <time>2015-04-06T08:36:29Z</time>
      </trkpt>
      <trkpt lat="49.44966" lon="1.75">
        <ele>44</ele>
        <time>2015-04-06T08:36:33Z</time>
      </trkpt>
      <trkpt lat="49.44959" lon="1.75009">
        <ele>46</ele>
        <time>2015-04-06T08:36:38Z</time>
      </trkpt>
      <trkpt lat="49.44945" lon="1.75025">
        <ele>48</ele>
        <time>2015-04-06T08:36:45Z</time>
      </trkpt>
      <trkpt lat="49.44937" lon="1.7503">
        <ele>49</ele>
        <time>2015-04-06T08:36:49Z</time>
      </trkpt>
      <trkpt lat="49.44928" lon="1.75036">
        <ele>51</ele>
        <time>2015-04-06T08:36:53Z</time>
      </trkpt>
      <trkpt lat="49.44924" lon="1.75041">
        <ele>53</ele>
        <time>2015-04-06T08:36:55Z</time>
      </trkpt>
      <trkpt lat="49.44918" lon="1.75046">
        <ele>55</ele>
        <time>2015-04-06T08:36:58Z</time>
      </trkpt>
      <trkpt lat="49.44912" lon="1.75053">
        <ele>57</ele>
        <time>2015-04-06T08:37:02Z</time>
      </trkpt>
      <trkpt lat="49.44902" lon="1.75062">
        <ele>60</ele>
        <time>2015-04-06T08:37:08Z</time>
      </trkpt>
      <trkpt lat="49.44896" lon="1.75069">
        <ele>62</ele>
        <time>2015-04-06T08:37:11Z</time>
      </trkpt>
      <trkpt lat="49.44891" lon="1.75073">
        <ele>65</ele>
        <time>2015-04-06T08:37:14Z</time>
      </trkpt>
      <trkpt lat="49.4488" lon="1.75086">
        <ele>66</ele>
        <time>2015-04-06T08:37:20Z</time>
      </trkpt>
      <trkpt lat="49.44877" lon="1.75093">
        <ele>67</ele>
        <time>2015-04-06T08:37:26Z</time>
      </trkpt>
      <trkpt lat="49.44871" lon="1.75099">
        <ele>67</ele>
        <time>2015-04-06T08:37:31Z</time>
      </trkpt>
      <trkpt lat="49.44862" lon="1.75101">
        <ele>66</ele>
        <time>2015-04-06T08:37:35Z</time>
      </trkpt>
      <trkpt lat="49.44856" lon="1.75102">
        <ele>65</ele>
        <time>2015-04-06T08:37:38Z</time>
      </trkpt>
      <trkpt lat="49.44833" lon="1.75109">
        <ele>60</ele>
        <time>2015-04-06T08:37:48Z</time>
      </trkpt>
      <trkpt lat="49.44826" lon="1.75112">
        <ele>58</ele>
        <time>2015-04-06T08:37:51Z</time>
      </trkpt>
      <trkpt lat="49.44818" lon="1.75113">
        <ele>56</ele>
        <time>2015-04-06T08:37:54Z</time>
      </trkpt>
      <trkpt lat="49.44801" lon="1.7512">
        <ele>52</ele>
        <time>2015-04-06T08:38:00Z</time>
      </trkpt>
      <trkpt lat="49.44783" lon="1.75135">
        <ele>50</ele>
        <time>2015-04-06T08:38:07Z</time>
      </trkpt>
      <trkpt lat="49.44773" lon="1.75144">
        <ele>49</ele>
        <time>2015-04-06T08:38:11Z</time>
      </trkpt>
      <trkpt lat="49.44768" lon="1.75148">
        <ele>49</ele>
        <time>2015-04-06T08:38:13Z</time>
      </trkpt>
      <trkpt lat="49.44743" lon="1.7517">
        <ele>47</ele>
        <time>2015-04-06T08:38:23Z</time>
      </trkpt>
      <trkpt lat="49.44726" lon="1.75187">
        <ele>46</ele>
        <time>2015-04-06T08:38:31Z</time>
      </trkpt>
      <trkpt lat="49.44722" lon="1.75191">
        <ele>46</ele>
        <time>2015-04-06T08:38:33Z</time>
      </trkpt>
      <trkpt lat="49.44717" lon="1.75196">
        <ele>45</ele>
        <time>2015-04-06T08:38:35Z</time>
      </trkpt>
      <trkpt lat="49.44711" lon="1.75203">
        <ele>45</ele>
        <time>2015-04-06T08:38:38Z</time>
      </trkpt>
      <trkpt lat="49.44706" lon="1.75207">
        <ele>45</ele>
        <time>2015-04-06T08:38:40Z</time>
      </trkpt>
      <trkpt lat="49.447" lon="1.75213">
        <ele>45</ele>
        <time>2015-04-06T08:38:43Z</time>
      </trkpt>
      <trkpt lat="49.44696" lon="1.75217">
        <ele>45</ele>
        <time>2015-04-06T08:38:45Z</time>
      </trkpt>
      <trkpt lat="49.44689" lon="1.75223">
        <ele>44</ele>
        <time>2015-04-06T08:38:48Z</time>
      </trkpt>
      <trkpt lat="49.44683" lon="1.75228">
        <ele>44</ele>
        <time>2015-04-06T08:38:51Z</time>
      </trkpt>
      <trkpt lat="49.44679" lon="1.75233">
        <ele>44</ele>
        <time>2015-04-06T08:38:53Z</time>
      </trkpt>
      <trkpt lat="49.44674" lon="1.75237">
        <ele>44</ele>
        <time>2015-04-06T08:38:55Z</time>
      </trkpt>
      <trkpt lat="49.44663" lon="1.75244">
        <ele>44</ele>
        <time>2015-04-06T08:38:59Z</time>
      </trkpt>
      <trkpt lat="49.44643" lon="1.75262">
        <ele>43</ele>
        <time>2015-04-06T08:39:09Z</time>
      </trkpt>
      <trkpt lat="49.44638" lon="1.75265">
        <ele>43</ele>
        <time>2015-04-06T08:39:11Z</time>
      </trkpt>
      <trkpt lat="49.44632" lon="1.75269">
        <ele>43</ele>
        <time>2015-04-06T08:39:14Z</time>
      </trkpt>
      <trkpt lat="49.44627" lon="1.75274">
        <ele>43</ele>
        <time>2015-04-06T08:39:17Z</time>
      </trkpt>
      <trkpt lat="49.44621" lon="1.75282">
        <ele>44</ele>
        <time>2015-04-06T08:39:21Z</time>
      </trkpt>
      <trkpt lat="49.44619" lon="1.75289">
        <ele>44</ele>
        <time>2015-04-06T08:39:24Z</time>
      </trkpt>
      <trkpt lat="49.44618" lon="1.75296">
        <ele>44</ele>
        <time>2015-04-06T08:39:27Z</time>
      </trkpt>
      <trkpt lat="49.44617" lon="1.75308">
        <ele>44</ele>
        <time>2015-04-06T08:39:31Z</time>
      </trkpt>
      <trkpt lat="49.44617" lon="1.7532">
        <ele>44</ele>
        <time>2015-04-06T08:39:35Z</time>
      </trkpt>
      <trkpt lat="49.44616" lon="1.75328">
        <ele>45</ele>
        <time>2015-04-06T08:39:38Z</time>
      </trkpt>
      <trkpt lat="49.44615" lon="1.75348">
        <ele>46</ele>
        <time>2015-04-06T08:39:46Z</time>
      </trkpt>
      <trkpt lat="49.44613" lon="1.75363">
        <ele>47</ele>
        <time>2015-04-06T08:39:51Z</time>
      </trkpt>
      <trkpt lat="49.4461" lon="1.75389">
        <ele>49</ele>
        <time>2015-04-06T08:40:00Z</time>
      </trkpt>
      <trkpt lat="49.44608" lon="1.75403">
        <ele>51</ele>
        <time>2015-04-06T08:40:05Z</time>
      </trkpt>
      <trkpt lat="49.44606" lon="1.75417">
        <ele>52</ele>
        <time>2015-04-06T08:40:09Z</time>
      </trkpt>
      <trkpt lat="49.44604" lon="1.75425">
        <ele>53</ele>
        <time>2015-04-06T08:40:11Z</time>
      </trkpt>
      <trkpt lat="49.44603" lon="1.75432">
        <ele>53</ele>
        <time>2015-04-06T08:40:13Z</time>
      </trkpt>
      <trkpt lat="49.44601" lon="1.7544">
        <ele>55</ele>
        <time>2015-04-06T08:40:15Z</time>
      </trkpt>
      <trkpt lat="49.44595" lon="1.7546">
        <ele>57</ele>
        <time>2015-04-06T08:40:21Z</time>
      </trkpt>
      <trkpt lat="49.44594" lon="1.75468">
        <ele>57</ele>
        <time>2015-04-06T08:40:23Z</time>
      </trkpt>
      <trkpt lat="49.44593" lon="1.75479">
        <ele>58</ele>
        <time>2015-04-06T08:40:26Z</time>
      </trkpt>
      <trkpt lat="49.4459" lon="1.755">
        <ele>58</ele>
        <time>2015-04-06T08:40:31Z</time>
      </trkpt>
      <trkpt lat="49.4459" lon="1.7551">
        <ele>58</ele>
        <time>2015-04-06T08:40:33Z</time>
      </trkpt>
      <trkpt lat="49.44595" lon="1.75526">
        <ele>58</ele>
        <time>2015-04-06T08:40:37Z</time>
      </trkpt>
      <trkpt lat="49.44596" lon="1.75534">
        <ele>59</ele>
        <time>2015-04-06T08:40:39Z</time>
      </trkpt>
      <trkpt lat="49.44596" lon="1.75577">
        <ele>60</ele>
        <time>2015-04-06T08:40:48Z</time>
      </trkpt>
      <trkpt lat="49.44596" lon="1.75587">
        <ele>60</ele>
        <time>2015-04-06T08:40:50Z</time>
      </trkpt>
      <trkpt lat="49.44597" lon="1.75598">
        <ele>60</ele>
        <time>2015-04-06T08:40:52Z</time>
      </trkpt>
      <trkpt lat="49.44597" lon="1.75609">
        <ele>59</ele>
        <time>2015-04-06T08:40:54Z</time>
      </trkpt>
      <trkpt lat="49.44596" lon="1.75621">
        <ele>59</ele>
        <time>2015-04-06T08:40:56Z</time>
      </trkpt>
      <trkpt lat="49.44592" lon="1.75644">
        <ele>57</ele>
        <time>2015-04-06T08:41:00Z</time>
      </trkpt>
      <trkpt lat="49.4459" lon="1.75673">
        <ele>56</ele>
        <time>2015-04-06T08:41:04Z</time>
      </trkpt>
      <trkpt lat="49.44589" lon="1.75714">
        <ele>55</ele>
        <time>2015-04-06T08:41:10Z</time>
      </trkpt>
      <trkpt lat="49.44585" lon="1.75735">
        <ele>54</ele>
        <time>2015-04-06T08:41:13Z</time>
      </trkpt>
      <trkpt lat="49.44584" lon="1.75743">
        <ele>54</ele>
        <time>2015-04-06T08:41:14Z</time>
      </trkpt>
      <trkpt lat="49.44582" lon="1.75751">
        <ele>54</ele>
        <time>2015-04-06T08:41:15Z</time>
      </trkpt>
      <trkpt lat="49.44581" lon="1.75758">
        <ele>54</ele>
        <time>2015-04-06T08:41:16Z</time>
      </trkpt>
      <trkpt lat="49.44579" lon="1.75773">
        <ele>53</ele>
        <time>2015-04-06T08:41:18Z</time>
      </trkpt>
      <trkpt lat="49.44564" lon="1.75876">
        <ele>46</ele>
        <time>2015-04-06T08:41:31Z</time>
      </trkpt>
      <trkpt lat="49.44561" lon="1.75891">
        <ele>45</ele>
        <time>2015-04-06T08:41:33Z</time>
      </trkpt>
      <trkpt lat="49.4456" lon="1.75898">
        <ele>45</ele>
        <time>2015-04-06T08:41:34Z</time>
      </trkpt>
      <trkpt lat="49.44559" lon="1.75912">
        <ele>43</ele>
        <time>2015-04-06T08:41:36Z</time>
      </trkpt>
      <trkpt lat="49.44557" lon="1.75927">
        <ele>43</ele>
        <time>2015-04-06T08:41:38Z</time>
      </trkpt>
      <trkpt lat="49.44557" lon="1.75935">
        <ele>42</ele>
        <time>2015-04-06T08:41:39Z</time>
      </trkpt>
      <trkpt lat="49.44555" lon="1.7595">
        <ele>41</ele>
        <time>2015-04-06T08:41:41Z</time>
      </trkpt>
      <trkpt lat="49.44554" lon="1.75957">
        <ele>40</ele>
        <time>2015-04-06T08:41:42Z</time>
      </trkpt>
      <trkpt lat="49.44553" lon="1.76003">
        <ele>42</ele>
        <time>2015-04-06T08:41:49Z</time>
      </trkpt>
      <trkpt lat="49.44555" lon="1.76015">
        <ele>43</ele>
        <time>2015-04-06T08:41:51Z</time>
      </trkpt>
      <trkpt lat="49.44556" lon="1.76028">
        <ele>44</ele>
        <time>2015-04-06T08:41:53Z</time>
      </trkpt>
      <trkpt lat="49.44558" lon="1.76047">
        <ele>44</ele>
        <time>2015-04-06T08:41:56Z</time>
      </trkpt>
      <trkpt lat="49.44561" lon="1.76067">
        <ele>44</ele>
        <time>2015-04-06T08:41:59Z</time>
      </trkpt>
      <trkpt lat="49.44562" lon="1.76082">
        <ele>44</ele>
        <time>2015-04-06T08:42:01Z</time>
      </trkpt>
      <trkpt lat="49.44564" lon="1.76104">
        <ele>44</ele>
        <time>2015-04-06T08:42:04Z</time>
      </trkpt>
      <trkpt lat="49.44566" lon="1.76134">
        <ele>43</ele>
        <time>2015-04-06T08:42:08Z</time>
      </trkpt>
      <trkpt lat="49.44568" lon="1.76155">
        <ele>42</ele>
        <time>2015-04-06T08:42:11Z</time>
      </trkpt>
      <trkpt lat="49.44567" lon="1.76168">
        <ele>42</ele>
        <time>2015-04-06T08:42:13Z</time>
      </trkpt>
      <trkpt lat="49.44567" lon="1.76179">
        <ele>43</ele>
        <time>2015-04-06T08:42:15Z</time>
      </trkpt>
      <trkpt lat="49.44564" lon="1.76196">
        <ele>43</ele>
        <time>2015-04-06T08:42:18Z</time>
      </trkpt>
      <trkpt lat="49.44558" lon="1.76222">
        <ele>44</ele>
        <time>2015-04-06T08:42:24Z</time>
      </trkpt>
      <trkpt lat="49.4455" lon="1.76244">
        <ele>44</ele>
        <time>2015-04-06T08:42:30Z</time>
      </trkpt>
      <trkpt lat="49.44546" lon="1.76255">
        <ele>44</ele>
        <time>2015-04-06T08:42:33Z</time>
      </trkpt>
      <trkpt lat="49.44545" lon="1.76262">
        <ele>45</ele>
        <time>2015-04-06T08:42:35Z</time>
      </trkpt>
      <trkpt lat="49.44542" lon="1.76273">
        <ele>44</ele>
        <time>2015-04-06T08:42:38Z</time>
      </trkpt>
      <trkpt lat="49.44537" lon="1.76307">
        <ele>45</ele>
        <time>2015-04-06T08:42:47Z</time>
      </trkpt>
      <trkpt lat="49.44537" lon="1.76322">
        <ele>45</ele>
        <time>2015-04-06T08:42:51Z</time>
      </trkpt>
      <trkpt lat="49.44537" lon="1.7633">
        <ele>46</ele>
        <time>2015-04-06T08:42:53Z</time>
      </trkpt>
      <trkpt lat="49.44538" lon="1.76337">
        <ele>46</ele>
        <time>2015-04-06T08:42:55Z</time>
      </trkpt>
      <trkpt lat="49.4454" lon="1.76355">
        <ele>46</ele>
        <time>2015-04-06T08:43:00Z</time>
      </trkpt>
      <trkpt lat="49.44544" lon="1.76379">
        <ele>46</ele>
        <time>2015-04-06T08:43:07Z</time>
      </trkpt>
      <trkpt lat="49.44545" lon="1.76388">
        <ele>46</ele>
        <time>2015-04-06T08:43:10Z</time>
      </trkpt>
      <trkpt lat="49.44548" lon="1.76396">
        <ele>46</ele>
        <time>2015-04-06T08:43:13Z</time>
      </trkpt>
      <trkpt lat="49.44558" lon="1.76425">
        <ele>47</ele>
        <time>2015-04-06T08:43:23Z</time>
      </trkpt>
      <trkpt lat="49.44565" lon="1.76444">
        <ele>47</ele>
        <time>2015-04-06T08:43:30Z</time>
      </trkpt>
      <trkpt lat="49.44569" lon="1.76452">
        <ele>48</ele>
        <time>2015-04-06T08:43:33Z</time>
      </trkpt>
      <trkpt lat="49.44573" lon="1.7646">
        <ele>49</ele>
        <time>2015-04-06T08:43:36Z</time>
      </trkpt>
      <trkpt lat="49.44588" lon="1.76486">
        <ele>51</ele>
        <time>2015-04-06T08:43:47Z</time>
      </trkpt>
      <trkpt lat="49.44593" lon="1.76496">
        <ele>52</ele>
        <time>2015-04-06T08:43:51Z</time>
      </trkpt>
      <trkpt lat="49.44597" lon="1.76505">
        <ele>53</ele>
        <time>2015-04-06T08:43:54Z</time>
      </trkpt>
      <trkpt lat="49.44603" lon="1.76522">
        <ele>54</ele>
        <time>2015-04-06T08:43:59Z</time>
      </trkpt>
      <trkpt lat="49.44618" lon="1.7657">
        <ele>56</ele>
        <time>2015-04-06T08:44:10Z</time>
      </trkpt>
      <trkpt lat="49.44623" lon="1.76585">
        <ele>56</ele>
        <time>2015-04-06T08:44:13Z</time>
      </trkpt>
      <trkpt lat="49.44628" lon="1.76596">
        <ele>56</ele>
        <time>2015-04-06T08:44:15Z</time>
      </trkpt>
      <trkpt lat="49.44634" lon="1.76611">
        <ele>56</ele>
        <time>2015-04-06T08:44:18Z</time>
      </trkpt>
      <trkpt lat="49.44644" lon="1.76694">
        <ele>55</ele>
        <time>2015-04-06T08:44:31Z</time>
      </trkpt>
      <trkpt lat="49.44643" lon="1.76708">
        <ele>55</ele>
        <time>2015-04-06T08:44:33Z</time>
      </trkpt>
      <trkpt lat="49.4464" lon="1.76737">
        <ele>54</ele>
        <time>2015-04-06T08:44:37Z</time>
      </trkpt>
      <trkpt lat="49.44637" lon="1.76751">
        <ele>53</ele>
        <time>2015-04-06T08:44:39Z</time>
      </trkpt>
      <trkpt lat="49.44623" lon="1.76813">
        <ele>52</ele>
        <time>2015-04-06T08:44:48Z</time>
      </trkpt>
      <trkpt lat="49.4462" lon="1.76827">
        <ele>52</ele>
        <time>2015-04-06T08:44:50Z</time>
      </trkpt>
      <trkpt lat="49.44617" lon="1.76841">
        <ele>52</ele>
        <time>2015-04-06T08:44:52Z</time>
      </trkpt>
      <trkpt lat="49.44615" lon="1.76855">
        <ele>52</ele>
        <time>2015-04-06T08:44:54Z</time>
      </trkpt>
      <trkpt lat="49.44612" lon="1.76869">
        <ele>51</ele>
        <time>2015-04-06T08:44:56Z</time>
      </trkpt>
      <trkpt lat="49.44611" lon="1.76877">
        <ele>51</ele>
        <time>2015-04-06T08:44:57Z</time>
      </trkpt>
      <trkpt lat="49.44608" lon="1.76891">
        <ele>51</ele>
        <time>2015-04-06T08:44:59Z</time>
      </trkpt>
      <trkpt lat="49.44607" lon="1.76898">
        <ele>51</ele>
        <time>2015-04-06T08:45:00Z</time>
      </trkpt>
      <trkpt lat="49.44601" lon="1.76926">
        <ele>50</ele>
        <time>2015-04-06T08:45:04Z</time>
      </trkpt>
      <trkpt lat="49.44599" lon="1.76933">
        <ele>50</ele>
        <time>2015-04-06T08:45:05Z</time>
      </trkpt>
      <trkpt lat="49.44592" lon="1.7696">
        <ele>50</ele>
        <time>2015-04-06T08:45:09Z</time>
      </trkpt>
      <trkpt lat="49.44586" lon="1.76978">
        <ele>50</ele>
        <time>2015-04-06T08:45:12Z</time>
      </trkpt>
      <trkpt lat="49.44583" lon="1.76989">
        <ele>50</ele>
        <time>2015-04-06T08:45:14Z</time>
      </trkpt>
      <trkpt lat="49.44553" lon="1.77074">
        <ele>51</ele>
        <time>2015-04-06T08:45:30Z</time>
      </trkpt>
      <trkpt lat="49.44551" lon="1.77085">
        <ele>51</ele>
        <time>2015-04-06T08:45:32Z</time>
      </trkpt>
      <trkpt lat="49.44549" lon="1.77098">
        <ele>50</ele>
        <time>2015-04-06T08:45:34Z</time>
      </trkpt>
      <trkpt lat="49.44545" lon="1.77128">
        <ele>49</ele>
        <time>2015-04-06T08:45:38Z</time>
      </trkpt>
      <trkpt lat="49.4454" lon="1.77162">
        <ele>49</ele>
        <time>2015-04-06T08:45:43Z</time>
      </trkpt>
      <trkpt lat="49.44539" lon="1.77181">
        <ele>49</ele>
        <time>2015-04-06T08:45:46Z</time>
      </trkpt>
      <trkpt lat="49.44537" lon="1.77197">
        <ele>49</ele>
        <time>2015-04-06T08:45:49Z</time>
      </trkpt>
      <trkpt lat="49.44537" lon="1.77209">
        <ele>49</ele>
        <time>2015-04-06T08:45:51Z</time>
      </trkpt>
      <trkpt lat="49.44536" lon="1.77216">
        <ele>49</ele>
        <time>2015-04-06T08:45:52Z</time>
      </trkpt>
      <trkpt lat="49.44535" lon="1.77229">
        <ele>49</ele>
        <time>2015-04-06T08:45:54Z</time>
      </trkpt>
      <trkpt lat="49.44532" lon="1.77246">
        <ele>48</ele>
        <time>2015-04-06T08:45:58Z</time>
      </trkpt>
      <trkpt lat="49.44531" lon="1.77254">
        <ele>48</ele>
        <time>2015-04-06T08:46:00Z</time>
      </trkpt>
      <trkpt lat="49.44524" lon="1.7729">
        <ele>50</ele>
        <time>2015-04-06T08:46:10Z</time>
      </trkpt>
      <trkpt lat="49.4452" lon="1.77303">
        <ele>51</ele>
        <time>2015-04-06T08:46:14Z</time>
      </trkpt>
      <trkpt lat="49.44495" lon="1.77353">
        <ele>53</ele>
        <time>2015-04-06T08:46:31Z</time>
      </trkpt>
      <trkpt lat="49.44492" lon="1.77376">
        <ele>54</ele>
        <time>2015-04-06T08:46:38Z</time>
      </trkpt>
      <trkpt lat="49.44487" lon="1.77396">
        <ele>56</ele>
        <time>2015-04-06T08:46:44Z</time>
      </trkpt>
      <trkpt lat="49.44482" lon="1.77417">
        <ele>59</ele>
        <time>2015-04-06T08:46:50Z</time>
      </trkpt>
      <trkpt lat="49.44481" lon="1.77425">
        <ele>59</ele>
        <time>2015-04-06T08:46:52Z</time>
      </trkpt>
      <trkpt lat="49.44479" lon="1.77432">
        <ele>58</ele>
        <time>2015-04-06T08:46:54Z</time>
      </trkpt>
      <trkpt lat="49.44478" lon="1.7744">
        <ele>57</ele>
        <time>2015-04-06T08:46:56Z</time>
      </trkpt>
      <trkpt lat="49.44476" lon="1.77448">
        <ele>56</ele>
        <time>2015-04-06T08:46:58Z</time>
      </trkpt>
      <trkpt lat="49.4447" lon="1.77496">
        <ele>53</ele>
        <time>2015-04-06T08:47:11Z</time>
      </trkpt>
      <trkpt lat="49.44469" lon="1.77504">
        <ele>53</ele>
        <time>2015-04-06T08:47:13Z</time>
      </trkpt>
      <trkpt lat="49.44466" lon="1.77571">
        <ele>50</ele>
        <time>2015-04-06T08:47:29Z</time>
      </trkpt>
      <trkpt lat="49.44465" lon="1.77584">
        <ele>49</ele>
        <time>2015-04-06T08:47:32Z</time>
      </trkpt>
      <trkpt lat="49.44465" lon="1.77596">
        <ele>49</ele>
        <time>2015-04-06T08:47:35Z</time>
      </trkpt>
      <trkpt lat="49.44461" lon="1.77611">
        <ele>51</ele>
        <time>2015-04-06T08:47:39Z</time>
      </trkpt>
      <trkpt lat="49.44458" lon="1.77624">
        <ele>50</ele>
        <time>2015-04-06T08:47:42Z</time>
      </trkpt>
      <trkpt lat="49.44454" lon="1.77667">
        <ele>49</ele>
        <time>2015-04-06T08:47:49Z</time>
      </trkpt>
      <trkpt lat="49.44455" lon="1.7768">
        <ele>48</ele>
        <time>2015-04-06T08:47:51Z</time>
      </trkpt>
      <trkpt lat="49.44457" lon="1.77699">
        <ele>47</ele>
        <time>2015-04-06T08:47:54Z</time>
      </trkpt>
      <trkpt lat="49.44459" lon="1.77733">
        <ele>46</ele>
        <time>2015-04-06T08:48:00Z</time>
      </trkpt>
      <trkpt lat="49.4446" lon="1.77743">
        <ele>45</ele>
        <time>2015-04-06T08:48:02Z</time>
      </trkpt>
      <trkpt lat="49.44463" lon="1.77752">
        <ele>45</ele>
        <time>2015-04-06T08:48:04Z</time>
      </trkpt>
      <trkpt lat="49.44464" lon="1.77768">
        <ele>45</ele>
        <time>2015-04-06T08:48:08Z</time>
      </trkpt>
      <trkpt lat="49.44459" lon="1.77778">
        <ele>44</ele>
        <time>2015-04-06T08:48:11Z</time>
      </trkpt>
      <trkpt lat="49.44453" lon="1.77786">
        <ele>44</ele>
        <time>2015-04-06T08:48:13Z</time>
      </trkpt>
      <trkpt lat="49.44441" lon="1.77801">
        <ele>44</ele>
        <time>2015-04-06T08:48:17Z</time>
      </trkpt>
      <trkpt lat="49.444" lon="1.77829">
        <ele>44</ele>
        <time>2015-04-06T08:48:29Z</time>
      </trkpt>
      <trkpt lat="49.44388" lon="1.77833">
        <ele>45</ele>
        <time>2015-04-06T08:48:32Z</time>
      </trkpt>
      <trkpt lat="49.4438" lon="1.77835">
        <ele>46</ele>
        <time>2015-04-06T08:48:34Z</time>
      </trkpt>
      <trkpt lat="49.44373" lon="1.77838">
        <ele>46</ele>
        <time>2015-04-06T08:48:36Z</time>
      </trkpt>
      <trkpt lat="49.4436" lon="1.77842">
        <ele>47</ele>
        <time>2015-04-06T08:48:39Z</time>
      </trkpt>
      <trkpt lat="49.44355" lon="1.77844">
        <ele>47</ele>
        <time>2015-04-06T08:48:40Z</time>
      </trkpt>
      <trkpt lat="49.44341" lon="1.77846">
        <ele>49</ele>
        <time>2015-04-06T08:48:43Z</time>
      </trkpt>
      <trkpt lat="49.44323" lon="1.77849">
        <ele>50</ele>
        <time>2015-04-06T08:48:47Z</time>
      </trkpt>
      <trkpt lat="49.44318" lon="1.77851">
        <ele>50</ele>
        <time>2015-04-06T08:48:48Z</time>
      </trkpt>
      <trkpt lat="49.44305" lon="1.77856">
        <ele>50</ele>
        <time>2015-04-06T08:48:51Z</time>
      </trkpt>
      <trkpt lat="49.44297" lon="1.7786">
        <ele>50</ele>
        <time>2015-04-06T08:48:53Z</time>
      </trkpt>
      <trkpt lat="49.44289" lon="1.77862">
        <ele>50</ele>
        <time>2015-04-06T08:48:55Z</time>
      </trkpt>
      <trkpt lat="49.4427" lon="1.77869">
        <ele>50</ele>
        <time>2015-04-06T08:49:00Z</time>
      </trkpt>
      <trkpt lat="49.44257" lon="1.77927">
        <ele>47</ele>
        <time>2015-04-06T08:49:12Z</time>
      </trkpt>
      <trkpt lat="49.4426" lon="1.7794">
        <ele>46</ele>
        <time>2015-04-06T08:49:14Z</time>
      </trkpt>
      <trkpt lat="49.44281" lon="1.78031">
        <ele>46</ele>
        <time>2015-04-06T08:49:29Z</time>
      </trkpt>
      <trkpt lat="49.44276" lon="1.78041">
        <ele>46</ele>
        <time>2015-04-06T08:49:33Z</time>
      </trkpt>
      <trkpt lat="49.4427" lon="1.78047">
        <ele>47</ele>
        <time>2015-04-06T08:49:37Z</time>
      </trkpt>
    </trkseg>
  </trk>
</gpx>